<?xml version="1.0" encoding="UTF-8" standalone="yes"?>
<gpx version="1.1" creator="outdooractive - http://www.outdooractive.com" xmlns="http://www.topografix.com/GPX/1/1" xmlns:oa="http://www.outdooractive.com/GPX/Extensions/1" xmlns:xsi="http://www.w3.org/2001/XMLSchema-instance" xsi:schemaLocation="http://www.topografix.com/GPX/1/1 http://www.topografix.com/GPX/1/1/gpx.xsd http://www.outdooractive.com/GPX/Extensions/1 https://www.outdooractive.com/schema/gpx_extensions.xsd">
  <metadata>
    <name>Percorso 8/1 collegamento Frassinetto al sentiero 8 in Punta Quinzeina</name>
    <author>
      <name>Flavio Querio - Community</name>
    </author>
    <link href="https://www.outdooractive.com/r/334533663"/>
    <time>2026-02-10T09:40:09.266Z</time>
    <extensions>
      <oa:oaCategory>hikingTourTrail</oa:oaCategory>
    </extensions>
  </metadata>
  <trk>
    <name>Percorso 8/1 collegamento Frassinetto al sentiero 8 in Punta Quinzeina</name>
    <desc><![CDATA[Il percorso 8/1 è pensato per chi vuole raggiungere il bivacco di Punta Rama partendo dal centro di Frassinetto. / La partenza è dal capoluogo 1050 mt, si prosegue in via Borgiallo per Chiapinetto 1113 mt, attraversato il centro storico della borgata si supera la bianca chiesetta di Santa Croce addentrandoci nel bosco, il sentiero termina sulla strada asfaltata che sale da Pian Ciuleri che noi percorriamo per un breve tratto in salita poi si prende a sx per lo sterrato del Moschietto, seguendo la segnaletica si abbandona lo sterrato per il sentiero a destra che sale tra i pascoli al Colle di Pian Mungel 1645 mt, poi I Tre Denti 1738 mt, Casone basso 1874 mt, Casone alto 2001 mt e arriviamo alla Croce di Santa Elisabetta (Quinzeina sud) 2231 mt. / Affrontiamo ora il tratto in cresta, non difficile ma da porre maggior attenzione, superiamo la Finestra 2219 mt e risaliamo dapprima alla Croce di Frassinetto 2312 e pochi metri dopo a Punta Quinzeina 2344 mt collegandoci al percorso n.8 che sale dal Berchiotto. / Distanza: 6,8 Km / Dislivello: + 1314 mt - 49 mt / Quota part: 1050 mt Frassinetto / Quota min : 1050 mt Frassinetto / Quota max: 2344 mt Punta Quinzeina / Tempo perc : 4 h 10 min / Grado diff: EE /]]></desc>
    <type>hikingTourTrail</type>
    <trkseg>
      <trkpt lat="45.437109" lon="7.606495">
        <ele>1052.28334</ele>
        <time>2021-07-09T12:02:52.000Z</time>
        <name>Percorso 8 da Frassinetto a Punta Quinzeina</name>
        <desc><![CDATA[Frassinetto, Chiapinetto, Pian Ciuleri, Pian Mungel, Tre Denti, Quinzeina sud, Punta Quinzeina 

Per salire al bivacco di Punta Rama, possiamo utilizzare anche questo percorso 8 (variante1) con partenza da Frassinetto, in pratica si percorre fedelmente il sentiero (7)che raggiunge Punta Quinzeina, qui si collega con il sentiero che sale dal Berchiotto e prosegue verso il Verzel e la cresta Beltrando con pernottamento al bivacco di Punta Rama.]]></desc>
      </trkpt>
      <trkpt lat="45.437073" lon="7.60649">
        <ele>1051.72686</ele>
        <time>2021-07-09T12:02:57.000Z</time>
      </trkpt>
      <trkpt lat="45.437054" lon="7.606488">
        <ele>1051.46277</ele>
        <time>2021-07-09T12:03:02.000Z</time>
      </trkpt>
      <trkpt lat="45.437054" lon="7.606486">
        <ele>1051.43676</ele>
        <time>2021-07-09T12:03:08.000Z</time>
      </trkpt>
      <trkpt lat="45.437049" lon="7.60648">
        <ele>1051.30309</ele>
        <time>2021-07-09T12:03:14.000Z</time>
      </trkpt>
      <trkpt lat="45.437049" lon="7.60651">
        <ele>1051.70847</ele>
        <time>2021-07-09T12:04:11.000Z</time>
      </trkpt>
      <trkpt lat="45.437048" lon="7.606524">
        <ele>1051.90825</ele>
        <time>2021-07-09T12:04:16.000Z</time>
      </trkpt>
      <trkpt lat="45.437039" lon="7.606563">
        <ele>1052.4375</ele>
        <time>2021-07-09T12:04:28.000Z</time>
      </trkpt>
      <trkpt lat="45.437002" lon="7.606595">
        <ele>1052.57966</ele>
        <time>2021-07-09T12:04:33.000Z</time>
      </trkpt>
      <trkpt lat="45.436947" lon="7.606617">
        <ele>1052.47993</ele>
        <time>2021-07-09T12:04:39.000Z</time>
      </trkpt>
      <trkpt lat="45.436863" lon="7.606625">
        <ele>1052.03413</ele>
        <time>2021-07-09T12:04:45.000Z</time>
      </trkpt>
      <trkpt lat="45.436831" lon="7.606674">
        <ele>1052.40221</ele>
        <time>2021-07-09T12:04:50.000Z</time>
      </trkpt>
      <trkpt lat="45.436831" lon="7.606753">
        <ele>1053.05167</ele>
        <time>2021-07-09T12:04:56.000Z</time>
      </trkpt>
      <trkpt lat="45.436859" lon="7.606816">
        <ele>1053.60213</ele>
        <time>2021-07-09T12:05:02.000Z</time>
      </trkpt>
      <trkpt lat="45.436905" lon="7.606884">
        <ele>1054.21926</ele>
        <time>2021-07-09T12:05:08.000Z</time>
      </trkpt>
      <trkpt lat="45.43695" lon="7.606953">
        <ele>1054.84295</ele>
        <time>2021-07-09T12:05:13.000Z</time>
      </trkpt>
      <trkpt lat="45.437031" lon="7.607034">
        <ele>1056.18722</ele>
        <time>2021-07-09T12:05:19.000Z</time>
      </trkpt>
      <trkpt lat="45.437081" lon="7.6071">
        <ele>1057.04108</ele>
        <time>2021-07-09T12:05:24.000Z</time>
      </trkpt>
      <trkpt lat="45.437137" lon="7.607147">
        <ele>1057.57954</ele>
        <time>2021-07-09T12:05:29.000Z</time>
      </trkpt>
      <trkpt lat="45.437197" lon="7.607198">
        <ele>1057.93554</ele>
        <time>2021-07-09T12:05:35.000Z</time>
      </trkpt>
      <trkpt lat="45.437239" lon="7.607216">
        <ele>1058.35323</ele>
        <time>2021-07-09T12:05:40.000Z</time>
      </trkpt>
      <trkpt lat="45.437288" lon="7.607201">
        <ele>1059.074</ele>
        <time>2021-07-09T12:05:46.000Z</time>
      </trkpt>
      <trkpt lat="45.437309" lon="7.607235">
        <ele>1059.29258</ele>
        <time>2021-07-09T12:05:52.000Z</time>
      </trkpt>
      <trkpt lat="45.437322" lon="7.607282">
        <ele>1059.43908</ele>
        <time>2021-07-09T12:05:58.000Z</time>
      </trkpt>
      <trkpt lat="45.437323" lon="7.607287">
        <ele>1059.45132</ele>
        <time>2021-07-09T12:06:04.000Z</time>
      </trkpt>
      <trkpt lat="45.437326" lon="7.607332">
        <ele>1059.48147</ele>
        <time>2021-07-09T12:06:21.000Z</time>
      </trkpt>
      <trkpt lat="45.437332" lon="7.607333">
        <ele>1059.56884</ele>
        <time>2021-07-09T12:06:27.000Z</time>
      </trkpt>
      <trkpt lat="45.437325" lon="7.607356">
        <ele>1059.4611</ele>
        <time>2021-07-09T12:06:33.000Z</time>
      </trkpt>
      <trkpt lat="45.437328" lon="7.607396">
        <ele>1059.48723</ele>
        <time>2021-07-09T12:06:39.000Z</time>
      </trkpt>
      <trkpt lat="45.437332" lon="7.607393">
        <ele>1059.54648</ele>
        <time>2021-07-09T12:06:44.000Z</time>
      </trkpt>
      <trkpt lat="45.437336" lon="7.607402">
        <ele>1059.59684</ele>
        <time>2021-07-09T12:06:50.000Z</time>
      </trkpt>
      <trkpt lat="45.437407" lon="7.607464">
        <ele>1060.34678</ele>
        <time>2021-07-09T12:06:56.000Z</time>
      </trkpt>
      <trkpt lat="45.437481" lon="7.607526">
        <ele>1060.895</ele>
        <time>2021-07-09T12:07:02.000Z</time>
      </trkpt>
      <trkpt lat="45.437528" lon="7.607573">
        <ele>1061.35972</ele>
        <time>2021-07-09T12:07:08.000Z</time>
      </trkpt>
      <trkpt lat="45.437575" lon="7.607633">
        <ele>1062.11696</ele>
        <time>2021-07-09T12:07:14.000Z</time>
      </trkpt>
      <trkpt lat="45.437644" lon="7.607687">
        <ele>1063.49782</ele>
        <time>2021-07-09T12:07:20.000Z</time>
      </trkpt>
      <trkpt lat="45.437686" lon="7.607769">
        <ele>1064.65289</ele>
        <time>2021-07-09T12:07:26.000Z</time>
      </trkpt>
      <trkpt lat="45.437717" lon="7.607838">
        <ele>1065.56994</ele>
        <time>2021-07-09T12:07:31.000Z</time>
      </trkpt>
      <trkpt lat="45.437753" lon="7.607919">
        <ele>1066.70531</ele>
        <time>2021-07-09T12:07:37.000Z</time>
      </trkpt>
      <trkpt lat="45.437772" lon="7.608006">
        <ele>1067.77586</ele>
        <time>2021-07-09T12:07:43.000Z</time>
      </trkpt>
      <trkpt lat="45.437805" lon="7.608108">
        <ele>1069.52213</ele>
        <time>2021-07-09T12:07:49.000Z</time>
      </trkpt>
      <trkpt lat="45.43785" lon="7.608191">
        <ele>1071.32984</ele>
        <time>2021-07-09T12:07:55.000Z</time>
      </trkpt>
      <trkpt lat="45.437858" lon="7.608241">
        <ele>1071.98033</ele>
        <time>2021-07-09T12:08:00.000Z</time>
      </trkpt>
      <trkpt lat="45.437827" lon="7.608335">
        <ele>1072.41549</ele>
        <time>2021-07-09T12:08:05.000Z</time>
      </trkpt>
      <trkpt lat="45.437773" lon="7.608463">
        <ele>1073.09776</ele>
        <time>2021-07-09T12:08:11.000Z</time>
      </trkpt>
      <trkpt lat="45.437763" lon="7.608572">
        <ele>1073.87557</ele>
        <time>2021-07-09T12:08:17.000Z</time>
      </trkpt>
      <trkpt lat="45.437771" lon="7.608643">
        <ele>1074.38018</ele>
        <time>2021-07-09T12:08:22.000Z</time>
      </trkpt>
      <trkpt lat="45.437772" lon="7.608747">
        <ele>1074.7769</ele>
        <time>2021-07-09T12:08:28.000Z</time>
      </trkpt>
      <trkpt lat="45.437741" lon="7.60875">
        <ele>1074.30688</ele>
        <time>2021-07-09T12:08:34.000Z</time>
      </trkpt>
      <trkpt lat="45.43773" lon="7.608787">
        <ele>1074.19486</ele>
        <time>2021-07-09T12:08:39.000Z</time>
      </trkpt>
      <trkpt lat="45.437796" lon="7.608882">
        <ele>1075.25428</ele>
        <time>2021-07-09T12:08:44.000Z</time>
      </trkpt>
      <trkpt lat="45.437862" lon="7.608962">
        <ele>1076.07267</ele>
        <time>2021-07-09T12:08:50.000Z</time>
      </trkpt>
      <trkpt lat="45.43794" lon="7.609022">
        <ele>1076.90635</ele>
        <time>2021-07-09T12:08:56.000Z</time>
      </trkpt>
      <trkpt lat="45.437996" lon="7.6091">
        <ele>1077.40173</ele>
        <time>2021-07-09T12:09:02.000Z</time>
      </trkpt>
      <trkpt lat="45.438032" lon="7.60916">
        <ele>1077.89775</ele>
        <time>2021-07-09T12:09:08.000Z</time>
      </trkpt>
      <trkpt lat="45.438082" lon="7.609255">
        <ele>1078.93386</ele>
        <time>2021-07-09T12:09:14.000Z</time>
      </trkpt>
      <trkpt lat="45.438101" lon="7.60935">
        <ele>1079.26074</ele>
        <time>2021-07-09T12:09:19.000Z</time>
      </trkpt>
      <trkpt lat="45.438115" lon="7.60945">
        <ele>1079.37886</ele>
        <time>2021-07-09T12:09:25.000Z</time>
      </trkpt>
      <trkpt lat="45.43813" lon="7.609558">
        <ele>1079.64271</ele>
        <time>2021-07-09T12:09:31.000Z</time>
      </trkpt>
      <trkpt lat="45.438179" lon="7.609643">
        <ele>1080.37356</ele>
        <time>2021-07-09T12:09:37.000Z</time>
      </trkpt>
      <trkpt lat="45.438232" lon="7.60971">
        <ele>1081.02065</ele>
        <time>2021-07-09T12:09:43.000Z</time>
      </trkpt>
      <trkpt lat="45.438259" lon="7.609757">
        <ele>1081.43747</ele>
        <time>2021-07-09T12:09:48.000Z</time>
      </trkpt>
      <trkpt lat="45.438289" lon="7.609842">
        <ele>1082.53565</ele>
        <time>2021-07-09T12:09:54.000Z</time>
      </trkpt>
      <trkpt lat="45.438301" lon="7.60993">
        <ele>1083.78601</ele>
        <time>2021-07-09T12:09:59.000Z</time>
      </trkpt>
      <trkpt lat="45.438305" lon="7.609968">
        <ele>1084.28032</ele>
        <time>2021-07-09T12:10:05.000Z</time>
      </trkpt>
      <trkpt lat="45.438314" lon="7.609979">
        <ele>1084.48842</ele>
        <time>2021-07-09T12:10:11.000Z</time>
      </trkpt>
      <trkpt lat="45.438315" lon="7.60998">
        <ele>1084.5088</ele>
        <time>2021-07-09T12:10:16.000Z</time>
      </trkpt>
      <trkpt lat="45.438383" lon="7.610037">
        <ele>1085.65634</ele>
        <time>2021-07-09T12:11:37.000Z</time>
      </trkpt>
      <trkpt lat="45.438395" lon="7.610122">
        <ele>1086.14729</ele>
        <time>2021-07-09T12:11:42.000Z</time>
      </trkpt>
      <trkpt lat="45.438384" lon="7.610207">
        <ele>1086.40018</ele>
        <time>2021-07-09T12:11:48.000Z</time>
      </trkpt>
      <trkpt lat="45.43839" lon="7.610294">
        <ele>1086.85224</ele>
        <time>2021-07-09T12:11:54.000Z</time>
      </trkpt>
      <trkpt lat="45.438391" lon="7.610372">
        <ele>1087.2571</ele>
        <time>2021-07-09T12:12:00.000Z</time>
      </trkpt>
      <trkpt lat="45.438372" lon="7.610427">
        <ele>1087.22555</ele>
        <time>2021-07-09T12:12:05.000Z</time>
      </trkpt>
      <trkpt lat="45.438362" lon="7.610495">
        <ele>1087.26156</ele>
        <time>2021-07-09T12:12:10.000Z</time>
      </trkpt>
      <trkpt lat="45.438393" lon="7.610539">
        <ele>1087.98923</ele>
        <time>2021-07-09T12:12:15.000Z</time>
      </trkpt>
      <trkpt lat="45.438443" lon="7.610534">
        <ele>1089.07565</ele>
        <time>2021-07-09T12:12:20.000Z</time>
      </trkpt>
      <trkpt lat="45.438508" lon="7.610491">
        <ele>1090.25984</ele>
        <time>2021-07-09T12:12:26.000Z</time>
      </trkpt>
      <trkpt lat="45.438567" lon="7.610478">
        <ele>1091.63785</ele>
        <time>2021-07-09T12:12:31.000Z</time>
      </trkpt>
      <trkpt lat="45.438631" lon="7.610497">
        <ele>1093.32546</ele>
        <time>2021-07-09T12:12:37.000Z</time>
      </trkpt>
      <trkpt lat="45.438656" lon="7.610554">
        <ele>1094.193</ele>
        <time>2021-07-09T12:12:43.000Z</time>
      </trkpt>
      <trkpt lat="45.438664" lon="7.610611">
        <ele>1094.85152</ele>
        <time>2021-07-09T12:12:49.000Z</time>
      </trkpt>
      <trkpt lat="45.43868" lon="7.610662">
        <ele>1095.70493</ele>
        <time>2021-07-09T12:12:54.000Z</time>
      </trkpt>
      <trkpt lat="45.438706" lon="7.61072">
        <ele>1096.80133</ele>
        <time>2021-07-09T12:13:00.000Z</time>
      </trkpt>
      <trkpt lat="45.438743" lon="7.610794">
        <ele>1098.00975</ele>
        <time>2021-07-09T12:13:06.000Z</time>
      </trkpt>
      <trkpt lat="45.438791" lon="7.610877">
        <ele>1099.21185</ele>
        <time>2021-07-09T12:13:12.000Z</time>
      </trkpt>
      <trkpt lat="45.43882" lon="7.610946">
        <ele>1099.972</ele>
        <time>2021-07-09T12:13:17.000Z</time>
      </trkpt>
      <trkpt lat="45.438855" lon="7.611031">
        <ele>1100.82068</ele>
        <time>2021-07-09T12:13:23.000Z</time>
      </trkpt>
      <trkpt lat="45.438888" lon="7.611108">
        <ele>1101.50386</ele>
        <time>2021-07-09T12:13:28.000Z</time>
      </trkpt>
      <trkpt lat="45.438913" lon="7.611189">
        <ele>1102.06941</ele>
        <time>2021-07-09T12:13:34.000Z</time>
      </trkpt>
      <trkpt lat="45.43896" lon="7.611259">
        <ele>1103.02943</ele>
        <time>2021-07-09T12:13:40.000Z</time>
      </trkpt>
      <trkpt lat="45.439006" lon="7.611322">
        <ele>1103.90826</ele>
        <time>2021-07-09T12:13:46.000Z</time>
      </trkpt>
      <trkpt lat="45.439021" lon="7.611376">
        <ele>1104.18888</ele>
        <time>2021-07-09T12:13:52.000Z</time>
      </trkpt>
      <trkpt lat="45.439029" lon="7.611455">
        <ele>1104.32245</ele>
        <time>2021-07-09T12:13:58.000Z</time>
      </trkpt>
      <trkpt lat="45.439108" lon="7.611518">
        <ele>1105.32337</ele>
        <time>2021-07-09T12:14:04.000Z</time>
      </trkpt>
      <trkpt lat="45.439164" lon="7.611574">
        <ele>1106.06389</ele>
        <time>2021-07-09T12:14:09.000Z</time>
      </trkpt>
      <trkpt lat="45.43922" lon="7.611655">
        <ele>1106.67574</ele>
        <time>2021-07-09T12:14:15.000Z</time>
      </trkpt>
      <trkpt lat="45.439278" lon="7.611724">
        <ele>1107.04302</ele>
        <time>2021-07-09T12:14:21.000Z</time>
      </trkpt>
      <trkpt lat="45.439318" lon="7.6118">
        <ele>1107.25134</ele>
        <time>2021-07-09T12:14:27.000Z</time>
      </trkpt>
      <trkpt lat="45.439376" lon="7.611858">
        <ele>1107.6576</ele>
        <time>2021-07-09T12:14:32.000Z</time>
      </trkpt>
      <trkpt lat="45.43941" lon="7.611919">
        <ele>1108.11949</ele>
        <time>2021-07-09T12:14:38.000Z</time>
      </trkpt>
      <trkpt lat="45.439448" lon="7.611963">
        <ele>1108.56723</ele>
        <time>2021-07-09T12:14:43.000Z</time>
      </trkpt>
      <trkpt lat="45.439487" lon="7.612007">
        <ele>1108.94439</ele>
        <time>2021-07-09T12:14:48.000Z</time>
      </trkpt>
      <trkpt lat="45.439516" lon="7.612048">
        <ele>1109.19236</ele>
        <time>2021-07-09T12:14:54.000Z</time>
      </trkpt>
      <trkpt lat="45.439532" lon="7.612061">
        <ele>1109.28563</ele>
        <time>2021-07-09T12:14:59.000Z</time>
      </trkpt>
      <trkpt lat="45.439536" lon="7.612053">
        <ele>1109.26817</ele>
        <time>2021-07-09T12:15:04.000Z</time>
      </trkpt>
      <trkpt lat="45.439537" lon="7.612052">
        <ele>1109.26755</ele>
        <time>2021-07-09T12:15:10.000Z</time>
      </trkpt>
      <trkpt lat="45.43955" lon="7.612074">
        <ele>1109.38156</ele>
        <time>2021-07-09T12:15:27.000Z</time>
      </trkpt>
      <trkpt lat="45.43955" lon="7.612077">
        <ele>1109.39243</ele>
        <time>2021-07-09T12:15:33.000Z</time>
      </trkpt>
      <trkpt lat="45.439617" lon="7.612149">
        <ele>1109.85414</ele>
        <time>2021-07-09T12:16:21.000Z</time>
      </trkpt>
      <trkpt lat="45.43966" lon="7.612214">
        <ele>1110.16955</ele>
        <time>2021-07-09T12:16:27.000Z</time>
      </trkpt>
      <trkpt lat="45.439665" lon="7.612236">
        <ele>1110.23631</ele>
        <time>2021-07-09T12:16:33.000Z</time>
      </trkpt>
      <trkpt lat="45.439652" lon="7.612267">
        <ele>1110.28021</ele>
        <time>2021-07-09T12:16:38.000Z</time>
      </trkpt>
      <trkpt lat="45.439652" lon="7.612272">
        <ele>1110.29204</ele>
        <time>2021-07-09T12:16:44.000Z</time>
      </trkpt>
      <trkpt lat="45.439705" lon="7.612374">
        <ele>1110.65462</ele>
        <time>2021-07-09T12:17:28.000Z</time>
      </trkpt>
      <trkpt lat="45.439716" lon="7.612447">
        <ele>1110.83604</ele>
        <time>2021-07-09T12:17:33.000Z</time>
      </trkpt>
      <trkpt lat="45.439734" lon="7.612542">
        <ele>1111.0112</ele>
        <time>2021-07-09T12:17:39.000Z</time>
      </trkpt>
      <trkpt lat="45.439782" lon="7.612637">
        <ele>1111.26262</ele>
        <time>2021-07-09T12:17:45.000Z</time>
      </trkpt>
      <trkpt lat="45.439835" lon="7.612697">
        <ele>1111.72288</ele>
        <time>2021-07-09T12:17:50.000Z</time>
      </trkpt>
      <trkpt lat="45.439897" lon="7.612757">
        <ele>1112.471</ele>
        <time>2021-07-09T12:17:56.000Z</time>
      </trkpt>
      <trkpt lat="45.439946" lon="7.612796">
        <ele>1113.12719</ele>
        <time>2021-07-09T12:18:02.000Z</time>
      </trkpt>
      <trkpt lat="45.439965" lon="7.612856">
        <ele>1113.52796</ele>
        <time>2021-07-09T12:18:07.000Z</time>
      </trkpt>
      <trkpt lat="45.439954" lon="7.612984">
        <ele>1113.80132</ele>
        <time>2021-07-09T12:18:13.000Z</time>
      </trkpt>
      <trkpt lat="45.439967" lon="7.613079">
        <ele>1114.52978</ele>
        <time>2021-07-09T12:18:19.000Z</time>
      </trkpt>
      <trkpt lat="45.439992" lon="7.613168">
        <ele>1115.67111</ele>
        <time>2021-07-09T12:18:25.000Z</time>
      </trkpt>
      <trkpt lat="45.440023" lon="7.613257">
        <ele>1117.0176</ele>
        <time>2021-07-09T12:18:31.000Z</time>
      </trkpt>
      <trkpt lat="45.440044" lon="7.613335">
        <ele>1117.96728</ele>
        <time>2021-07-09T12:18:36.000Z</time>
      </trkpt>
      <trkpt lat="45.440058" lon="7.613406">
        <ele>1118.53671</ele>
        <time>2021-07-09T12:18:42.000Z</time>
      </trkpt>
      <trkpt lat="45.440083" lon="7.613486">
        <ele>1118.9527</ele>
        <time>2021-07-09T12:18:48.000Z</time>
      </trkpt>
      <trkpt lat="45.440108" lon="7.613559">
        <ele>1119.30559</ele>
        <time>2021-07-09T12:18:53.000Z</time>
      </trkpt>
      <trkpt lat="45.440136" lon="7.613642">
        <ele>1120.1026</ele>
        <time>2021-07-09T12:18:59.000Z</time>
      </trkpt>
      <trkpt lat="45.440161" lon="7.613705">
        <ele>1121.1038</ele>
        <time>2021-07-09T12:19:04.000Z</time>
      </trkpt>
      <trkpt lat="45.440172" lon="7.613752">
        <ele>1121.91777</ele>
        <time>2021-07-09T12:19:09.000Z</time>
      </trkpt>
      <trkpt lat="45.440183" lon="7.613832">
        <ele>1123.27168</ele>
        <time>2021-07-09T12:19:15.000Z</time>
      </trkpt>
      <trkpt lat="45.440209" lon="7.61389">
        <ele>1124.78175</ele>
        <time>2021-07-09T12:19:21.000Z</time>
      </trkpt>
      <trkpt lat="45.440223" lon="7.613958">
        <ele>1126.22005</ele>
        <time>2021-07-09T12:19:27.000Z</time>
      </trkpt>
      <trkpt lat="45.440228" lon="7.614019">
        <ele>1127.31352</ele>
        <time>2021-07-09T12:19:33.000Z</time>
      </trkpt>
      <trkpt lat="45.440244" lon="7.61408">
        <ele>1128.52722</ele>
        <time>2021-07-09T12:19:39.000Z</time>
      </trkpt>
      <trkpt lat="45.440255" lon="7.61416">
        <ele>1129.79545</ele>
        <time>2021-07-09T12:19:45.000Z</time>
      </trkpt>
      <trkpt lat="45.440271" lon="7.61423">
        <ele>1130.63301</ele>
        <time>2021-07-09T12:19:51.000Z</time>
      </trkpt>
      <trkpt lat="45.440283" lon="7.614288">
        <ele>1131.06515</ele>
        <time>2021-07-09T12:19:57.000Z</time>
      </trkpt>
      <trkpt lat="45.440303" lon="7.614361">
        <ele>1131.34635</ele>
        <time>2021-07-09T12:20:03.000Z</time>
      </trkpt>
      <trkpt lat="45.440333" lon="7.614428">
        <ele>1131.53449</ele>
        <time>2021-07-09T12:20:09.000Z</time>
      </trkpt>
      <trkpt lat="45.440363" lon="7.614468">
        <ele>1132.02566</ele>
        <time>2021-07-09T12:20:15.000Z</time>
      </trkpt>
      <trkpt lat="45.440361" lon="7.614465">
        <ele>1131.97956</ele>
        <time>2021-07-09T12:20:21.000Z</time>
      </trkpt>
      <trkpt lat="45.440352" lon="7.614449">
        <ele>1131.77792</ele>
        <time>2021-07-09T12:20:27.000Z</time>
      </trkpt>
      <trkpt lat="45.440348" lon="7.614448">
        <ele>1131.72826</ele>
        <time>2021-07-09T12:20:33.000Z</time>
      </trkpt>
      <trkpt lat="45.440351" lon="7.614531">
        <ele>1132.30517</ele>
        <time>2021-07-09T12:20:55.000Z</time>
      </trkpt>
      <trkpt lat="45.440376" lon="7.614556">
        <ele>1132.84101</ele>
        <time>2021-07-09T12:21:00.000Z</time>
      </trkpt>
      <trkpt lat="45.440428" lon="7.614593">
        <ele>1134.03818</ele>
        <time>2021-07-09T12:21:06.000Z</time>
      </trkpt>
      <trkpt lat="45.44047" lon="7.614641">
        <ele>1134.82603</ele>
        <time>2021-07-09T12:21:11.000Z</time>
      </trkpt>
      <trkpt lat="45.440517" lon="7.614741">
        <ele>1134.82975</ele>
        <time>2021-07-09T12:21:17.000Z</time>
      </trkpt>
      <trkpt lat="45.44058" lon="7.614858">
        <ele>1135.71015</ele>
        <time>2021-07-09T12:21:23.000Z</time>
      </trkpt>
      <trkpt lat="45.4406" lon="7.614952">
        <ele>1137.07136</ele>
        <time>2021-07-09T12:21:29.000Z</time>
      </trkpt>
      <trkpt lat="45.440627" lon="7.614995">
        <ele>1137.77305</ele>
        <time>2021-07-09T12:21:34.000Z</time>
      </trkpt>
      <trkpt lat="45.440651" lon="7.615039">
        <ele>1138.2268</ele>
        <time>2021-07-09T12:21:39.000Z</time>
      </trkpt>
      <trkpt lat="45.440689" lon="7.615117">
        <ele>1138.76907</ele>
        <time>2021-07-09T12:21:45.000Z</time>
      </trkpt>
      <trkpt lat="45.440722" lon="7.615189">
        <ele>1139.42666</ele>
        <time>2021-07-09T12:21:51.000Z</time>
      </trkpt>
      <trkpt lat="45.440759" lon="7.615242">
        <ele>1140.0372</ele>
        <time>2021-07-09T12:21:57.000Z</time>
      </trkpt>
      <trkpt lat="45.440807" lon="7.6153">
        <ele>1140.5692</ele>
        <time>2021-07-09T12:22:03.000Z</time>
      </trkpt>
      <trkpt lat="45.44086" lon="7.615371">
        <ele>1141.23269</ele>
        <time>2021-07-09T12:22:09.000Z</time>
      </trkpt>
      <trkpt lat="45.440898" lon="7.615429">
        <ele>1141.90728</ele>
        <time>2021-07-09T12:22:15.000Z</time>
      </trkpt>
      <trkpt lat="45.440986" lon="7.61548">
        <ele>1143.3417</ele>
        <time>2021-07-09T12:22:21.000Z</time>
      </trkpt>
      <trkpt lat="45.441047" lon="7.615562">
        <ele>1143.07772</ele>
        <time>2021-07-09T12:22:27.000Z</time>
      </trkpt>
      <trkpt lat="45.441117" lon="7.615599">
        <ele>1143.57964</ele>
        <time>2021-07-09T12:22:33.000Z</time>
      </trkpt>
      <trkpt lat="45.441185" lon="7.615609">
        <ele>1144.63244</ele>
        <time>2021-07-09T12:22:38.000Z</time>
      </trkpt>
      <trkpt lat="45.441261" lon="7.61559">
        <ele>1146.09216</ele>
        <time>2021-07-09T12:22:44.000Z</time>
      </trkpt>
      <trkpt lat="45.441322" lon="7.615593">
        <ele>1146.88348</ele>
        <time>2021-07-09T12:22:50.000Z</time>
      </trkpt>
      <trkpt lat="45.441368" lon="7.615583">
        <ele>1147.58422</ele>
        <time>2021-07-09T12:22:56.000Z</time>
      </trkpt>
      <trkpt lat="45.441411" lon="7.61557">
        <ele>1148.39396</ele>
        <time>2021-07-09T12:23:02.000Z</time>
      </trkpt>
      <trkpt lat="45.44145" lon="7.61557">
        <ele>1149.20756</ele>
        <time>2021-07-09T12:23:07.000Z</time>
      </trkpt>
      <trkpt lat="45.441496" lon="7.61557">
        <ele>1150.45259</ele>
        <time>2021-07-09T12:23:13.000Z</time>
      </trkpt>
      <trkpt lat="45.441533" lon="7.615563">
        <ele>1151.62348</ele>
        <time>2021-07-09T12:23:18.000Z</time>
      </trkpt>
      <trkpt lat="45.441584" lon="7.615544">
        <ele>1153.27911</ele>
        <time>2021-07-09T12:23:23.000Z</time>
      </trkpt>
      <trkpt lat="45.441634" lon="7.615514">
        <ele>1154.75214</ele>
        <time>2021-07-09T12:23:28.000Z</time>
      </trkpt>
      <trkpt lat="45.44169" lon="7.615477">
        <ele>1156.11563</ele>
        <time>2021-07-09T12:23:34.000Z</time>
      </trkpt>
      <trkpt lat="45.441737" lon="7.615454">
        <ele>1156.96776</ele>
        <time>2021-07-09T12:23:40.000Z</time>
      </trkpt>
      <trkpt lat="45.441763" lon="7.615437">
        <ele>1157.38384</ele>
        <time>2021-07-09T12:23:45.000Z</time>
      </trkpt>
      <trkpt lat="45.441802" lon="7.615421">
        <ele>1157.9395</ele>
        <time>2021-07-09T12:23:51.000Z</time>
      </trkpt>
      <trkpt lat="45.441834" lon="7.61542">
        <ele>1158.42924</ele>
        <time>2021-07-09T12:23:57.000Z</time>
      </trkpt>
      <trkpt lat="45.441866" lon="7.615422">
        <ele>1158.96575</ele>
        <time>2021-07-09T12:24:03.000Z</time>
      </trkpt>
      <trkpt lat="45.441897" lon="7.615427">
        <ele>1159.50152</ele>
        <time>2021-07-09T12:24:09.000Z</time>
      </trkpt>
      <trkpt lat="45.441938" lon="7.615444">
        <ele>1160.23128</ele>
        <time>2021-07-09T12:24:15.000Z</time>
      </trkpt>
      <trkpt lat="45.441977" lon="7.615477">
        <ele>1161.02057</ele>
        <time>2021-07-09T12:24:21.000Z</time>
      </trkpt>
      <trkpt lat="45.442005" lon="7.615527">
        <ele>1161.96792</ele>
        <time>2021-07-09T12:24:27.000Z</time>
      </trkpt>
      <trkpt lat="45.442028" lon="7.61558">
        <ele>1163.02677</ele>
        <time>2021-07-09T12:24:33.000Z</time>
      </trkpt>
      <trkpt lat="45.442032" lon="7.615617">
        <ele>1163.72371</ele>
        <time>2021-07-09T12:24:39.000Z</time>
      </trkpt>
      <trkpt lat="45.44205" lon="7.615657">
        <ele>1164.49005</ele>
        <time>2021-07-09T12:24:45.000Z</time>
      </trkpt>
      <trkpt lat="45.442084" lon="7.615714">
        <ele>1165.18681</ele>
        <time>2021-07-09T12:24:51.000Z</time>
      </trkpt>
      <trkpt lat="45.442114" lon="7.615777">
        <ele>1165.63834</ele>
        <time>2021-07-09T12:24:57.000Z</time>
      </trkpt>
      <trkpt lat="45.442142" lon="7.615838">
        <ele>1166.14002</ele>
        <time>2021-07-09T12:25:03.000Z</time>
      </trkpt>
      <trkpt lat="45.442157" lon="7.615896">
        <ele>1166.98115</ele>
        <time>2021-07-09T12:25:09.000Z</time>
      </trkpt>
      <trkpt lat="45.442176" lon="7.615952">
        <ele>1167.90821</ele>
        <time>2021-07-09T12:25:15.000Z</time>
      </trkpt>
      <trkpt lat="45.442197" lon="7.616003">
        <ele>1168.82878</ele>
        <time>2021-07-09T12:25:21.000Z</time>
      </trkpt>
      <trkpt lat="45.442219" lon="7.616063">
        <ele>1169.94954</ele>
        <time>2021-07-09T12:25:27.000Z</time>
      </trkpt>
      <trkpt lat="45.442244" lon="7.616119">
        <ele>1170.96485</ele>
        <time>2021-07-09T12:25:33.000Z</time>
      </trkpt>
      <trkpt lat="45.442269" lon="7.616177">
        <ele>1171.86018</ele>
        <time>2021-07-09T12:25:39.000Z</time>
      </trkpt>
      <trkpt lat="45.44228" lon="7.61624">
        <ele>1172.78412</ele>
        <time>2021-07-09T12:25:45.000Z</time>
      </trkpt>
      <trkpt lat="45.44229" lon="7.616306">
        <ele>1173.66205</ele>
        <time>2021-07-09T12:25:51.000Z</time>
      </trkpt>
      <trkpt lat="45.442311" lon="7.616359">
        <ele>1174.06404</ele>
        <time>2021-07-09T12:25:57.000Z</time>
      </trkpt>
      <trkpt lat="45.442324" lon="7.616419">
        <ele>1174.75892</ele>
        <time>2021-07-09T12:26:03.000Z</time>
      </trkpt>
      <trkpt lat="45.442333" lon="7.616494">
        <ele>1175.79641</ele>
        <time>2021-07-09T12:26:09.000Z</time>
      </trkpt>
      <trkpt lat="45.44236" lon="7.616559">
        <ele>1176.33094</ele>
        <time>2021-07-09T12:26:15.000Z</time>
      </trkpt>
      <trkpt lat="45.442387" lon="7.616617">
        <ele>1176.75296</ele>
        <time>2021-07-09T12:26:21.000Z</time>
      </trkpt>
      <trkpt lat="45.442387" lon="7.616684">
        <ele>1177.77688</ele>
        <time>2021-07-09T12:26:27.000Z</time>
      </trkpt>
      <trkpt lat="45.442382" lon="7.616759">
        <ele>1178.97682</ele>
        <time>2021-07-09T12:26:33.000Z</time>
      </trkpt>
      <trkpt lat="45.442393" lon="7.616829">
        <ele>1179.69821</ele>
        <time>2021-07-09T12:26:39.000Z</time>
      </trkpt>
      <trkpt lat="45.442409" lon="7.61689">
        <ele>1180.07568</ele>
        <time>2021-07-09T12:26:45.000Z</time>
      </trkpt>
      <trkpt lat="45.442423" lon="7.616967">
        <ele>1180.61616</ele>
        <time>2021-07-09T12:26:51.000Z</time>
      </trkpt>
      <trkpt lat="45.442437" lon="7.617048">
        <ele>1181.31382</ele>
        <time>2021-07-09T12:26:57.000Z</time>
      </trkpt>
      <trkpt lat="45.44244" lon="7.617121">
        <ele>1182.18651</ele>
        <time>2021-07-09T12:27:03.000Z</time>
      </trkpt>
      <trkpt lat="45.442456" lon="7.617186">
        <ele>1182.88363</ele>
        <time>2021-07-09T12:27:09.000Z</time>
      </trkpt>
      <trkpt lat="45.442475" lon="7.617254">
        <ele>1183.53218</ele>
        <time>2021-07-09T12:27:15.000Z</time>
      </trkpt>
      <trkpt lat="45.442485" lon="7.617351">
        <ele>1184.56699</ele>
        <time>2021-07-09T12:27:21.000Z</time>
      </trkpt>
      <trkpt lat="45.442492" lon="7.617438">
        <ele>1185.46033</ele>
        <time>2021-07-09T12:27:27.000Z</time>
      </trkpt>
      <trkpt lat="45.442501" lon="7.617508">
        <ele>1186.05538</ele>
        <time>2021-07-09T12:27:33.000Z</time>
      </trkpt>
      <trkpt lat="45.442505" lon="7.617554">
        <ele>1186.45049</ele>
        <time>2021-07-09T12:27:39.000Z</time>
      </trkpt>
      <trkpt lat="45.442517" lon="7.61761">
        <ele>1186.72131</ele>
        <time>2021-07-09T12:27:45.000Z</time>
      </trkpt>
      <trkpt lat="45.442521" lon="7.617694">
        <ele>1187.33429</ele>
        <time>2021-07-09T12:27:51.000Z</time>
      </trkpt>
      <trkpt lat="45.442516" lon="7.61778">
        <ele>1188.15471</ele>
        <time>2021-07-09T12:27:57.000Z</time>
      </trkpt>
      <trkpt lat="45.442517" lon="7.617857">
        <ele>1188.81228</ele>
        <time>2021-07-09T12:28:03.000Z</time>
      </trkpt>
      <trkpt lat="45.44251" lon="7.617939">
        <ele>1189.79316</ele>
        <time>2021-07-09T12:28:09.000Z</time>
      </trkpt>
      <trkpt lat="45.442527" lon="7.618025">
        <ele>1190.14422</ele>
        <time>2021-07-09T12:28:15.000Z</time>
      </trkpt>
      <trkpt lat="45.442527" lon="7.618115">
        <ele>1191.21364</ele>
        <time>2021-07-09T12:28:21.000Z</time>
      </trkpt>
      <trkpt lat="45.442527" lon="7.618189">
        <ele>1192.24705</ele>
        <time>2021-07-09T12:28:27.000Z</time>
      </trkpt>
      <trkpt lat="45.442547" lon="7.618265">
        <ele>1192.92862</ele>
        <time>2021-07-09T12:28:33.000Z</time>
      </trkpt>
      <trkpt lat="45.442576" lon="7.618349">
        <ele>1193.82599</ele>
        <time>2021-07-09T12:28:39.000Z</time>
      </trkpt>
      <trkpt lat="45.442605" lon="7.618418">
        <ele>1194.6797</ele>
        <time>2021-07-09T12:28:45.000Z</time>
      </trkpt>
      <trkpt lat="45.442616" lon="7.61847">
        <ele>1195.54181</ele>
        <time>2021-07-09T12:28:51.000Z</time>
      </trkpt>
      <trkpt lat="45.442626" lon="7.61852">
        <ele>1196.42588</ele>
        <time>2021-07-09T12:28:57.000Z</time>
      </trkpt>
      <trkpt lat="45.442638" lon="7.618576">
        <ele>1197.45675</ele>
        <time>2021-07-09T12:29:03.000Z</time>
      </trkpt>
      <trkpt lat="45.442659" lon="7.618616">
        <ele>1198.09467</ele>
        <time>2021-07-09T12:29:09.000Z</time>
      </trkpt>
      <trkpt lat="45.44269" lon="7.61868">
        <ele>1199.13632</ele>
        <time>2021-07-09T12:29:15.000Z</time>
      </trkpt>
      <trkpt lat="45.442728" lon="7.618735">
        <ele>1199.94262</ele>
        <time>2021-07-09T12:29:20.000Z</time>
      </trkpt>
      <trkpt lat="45.442771" lon="7.618767">
        <ele>1200.53346</ele>
        <time>2021-07-09T12:29:25.000Z</time>
      </trkpt>
      <trkpt lat="45.442807" lon="7.618817">
        <ele>1201.83919</ele>
        <time>2021-07-09T12:29:31.000Z</time>
      </trkpt>
      <trkpt lat="45.44283" lon="7.618855">
        <ele>1202.9692</ele>
        <time>2021-07-09T12:29:37.000Z</time>
      </trkpt>
      <trkpt lat="45.442846" lon="7.618888">
        <ele>1204.00186</ele>
        <time>2021-07-09T12:29:42.000Z</time>
      </trkpt>
      <trkpt lat="45.442871" lon="7.618914">
        <ele>1204.93944</ele>
        <time>2021-07-09T12:29:48.000Z</time>
      </trkpt>
      <trkpt lat="45.442903" lon="7.61895">
        <ele>1206.11411</ele>
        <time>2021-07-09T12:29:54.000Z</time>
      </trkpt>
      <trkpt lat="45.442932" lon="7.618986">
        <ele>1207.10502</ele>
        <time>2021-07-09T12:30:00.000Z</time>
      </trkpt>
      <trkpt lat="45.442951" lon="7.619012">
        <ele>1207.73982</ele>
        <time>2021-07-09T12:30:06.000Z</time>
      </trkpt>
      <trkpt lat="45.442967" lon="7.619055">
        <ele>1208.70394</ele>
        <time>2021-07-09T12:30:12.000Z</time>
      </trkpt>
      <trkpt lat="45.442983" lon="7.61912">
        <ele>1209.94379</ele>
        <time>2021-07-09T12:30:18.000Z</time>
      </trkpt>
      <trkpt lat="45.443" lon="7.619177">
        <ele>1210.79053</ele>
        <time>2021-07-09T12:30:24.000Z</time>
      </trkpt>
      <trkpt lat="45.443003" lon="7.619212">
        <ele>1211.32222</ele>
        <time>2021-07-09T12:30:30.000Z</time>
      </trkpt>
      <trkpt lat="45.443002" lon="7.61928">
        <ele>1212.3301</ele>
        <time>2021-07-09T12:30:36.000Z</time>
      </trkpt>
      <trkpt lat="45.443016" lon="7.619349">
        <ele>1213.01375</ele>
        <time>2021-07-09T12:30:42.000Z</time>
      </trkpt>
      <trkpt lat="45.443023" lon="7.619405">
        <ele>1213.50507</ele>
        <time>2021-07-09T12:30:47.000Z</time>
      </trkpt>
      <trkpt lat="45.443008" lon="7.619466">
        <ele>1214.31911</ele>
        <time>2021-07-09T12:30:52.000Z</time>
      </trkpt>
      <trkpt lat="45.442982" lon="7.619532">
        <ele>1215.33471</ele>
        <time>2021-07-09T12:30:57.000Z</time>
      </trkpt>
      <trkpt lat="45.44297" lon="7.619612">
        <ele>1216.10953</ele>
        <time>2021-07-09T12:31:03.000Z</time>
      </trkpt>
      <trkpt lat="45.442986" lon="7.619688">
        <ele>1216.00756</ele>
        <time>2021-07-09T12:31:09.000Z</time>
      </trkpt>
      <trkpt lat="45.442985" lon="7.619747">
        <ele>1216.0656</ele>
        <time>2021-07-09T12:31:15.000Z</time>
      </trkpt>
      <trkpt lat="45.442949" lon="7.619827">
        <ele>1217.05607</ele>
        <time>2021-07-09T12:31:21.000Z</time>
      </trkpt>
      <trkpt lat="45.442921" lon="7.619917">
        <ele>1218.00047</ele>
        <time>2021-07-09T12:31:27.000Z</time>
      </trkpt>
      <trkpt lat="45.442896" lon="7.620002">
        <ele>1218.88504</ele>
        <time>2021-07-09T12:31:33.000Z</time>
      </trkpt>
      <trkpt lat="45.442886" lon="7.620071">
        <ele>1219.36446</ele>
        <time>2021-07-09T12:31:39.000Z</time>
      </trkpt>
      <trkpt lat="45.442879" lon="7.620133">
        <ele>1219.83902</ele>
        <time>2021-07-09T12:31:45.000Z</time>
      </trkpt>
      <trkpt lat="45.442882" lon="7.620204">
        <ele>1220.18877</ele>
        <time>2021-07-09T12:31:51.000Z</time>
      </trkpt>
      <trkpt lat="45.442879" lon="7.620284">
        <ele>1220.90559</ele>
        <time>2021-07-09T12:31:57.000Z</time>
      </trkpt>
      <trkpt lat="45.442885" lon="7.620379">
        <ele>1221.48302</ele>
        <time>2021-07-09T12:32:03.000Z</time>
      </trkpt>
      <trkpt lat="45.442886" lon="7.620442">
        <ele>1221.94296</ele>
        <time>2021-07-09T12:32:08.000Z</time>
      </trkpt>
      <trkpt lat="45.4429" lon="7.620505">
        <ele>1221.95984</ele>
        <time>2021-07-09T12:32:14.000Z</time>
      </trkpt>
      <trkpt lat="45.442905" lon="7.620576">
        <ele>1222.32761</ele>
        <time>2021-07-09T12:32:19.000Z</time>
      </trkpt>
      <trkpt lat="45.442898" lon="7.620646">
        <ele>1223.08472</ele>
        <time>2021-07-09T12:32:24.000Z</time>
      </trkpt>
      <trkpt lat="45.442903" lon="7.620713">
        <ele>1223.28494</ele>
        <time>2021-07-09T12:32:30.000Z</time>
      </trkpt>
      <trkpt lat="45.4429" lon="7.620761">
        <ele>1223.64405</ele>
        <time>2021-07-09T12:32:35.000Z</time>
      </trkpt>
      <trkpt lat="45.442896" lon="7.620815">
        <ele>1224.08029</ele>
        <time>2021-07-09T12:32:41.000Z</time>
      </trkpt>
      <trkpt lat="45.442883" lon="7.620867">
        <ele>1224.93278</ele>
        <time>2021-07-09T12:32:47.000Z</time>
      </trkpt>
      <trkpt lat="45.442868" lon="7.620948">
        <ele>1226.20112</ele>
        <time>2021-07-09T12:32:53.000Z</time>
      </trkpt>
      <trkpt lat="45.442848" lon="7.621019">
        <ele>1227.73034</ele>
        <time>2021-07-09T12:32:58.000Z</time>
      </trkpt>
      <trkpt lat="45.442817" lon="7.62109">
        <ele>1229.65433</ele>
        <time>2021-07-09T12:33:03.000Z</time>
      </trkpt>
      <trkpt lat="45.442816" lon="7.621177">
        <ele>1230.1927</ele>
        <time>2021-07-09T12:33:09.000Z</time>
      </trkpt>
      <trkpt lat="45.442825" lon="7.621262">
        <ele>1230.11632</ele>
        <time>2021-07-09T12:33:15.000Z</time>
      </trkpt>
      <trkpt lat="45.442817" lon="7.621334">
        <ele>1230.50141</ele>
        <time>2021-07-09T12:33:21.000Z</time>
      </trkpt>
      <trkpt lat="45.442797" lon="7.621428">
        <ele>1231.02843</ele>
        <time>2021-07-09T12:33:27.000Z</time>
      </trkpt>
      <trkpt lat="45.442782" lon="7.621519">
        <ele>1230.89614</ele>
        <time>2021-07-09T12:33:33.000Z</time>
      </trkpt>
      <trkpt lat="45.442772" lon="7.621587">
        <ele>1230.54916</ele>
        <time>2021-07-09T12:33:38.000Z</time>
      </trkpt>
      <trkpt lat="45.442756" lon="7.621669">
        <ele>1230.2544</ele>
        <time>2021-07-09T12:33:44.000Z</time>
      </trkpt>
      <trkpt lat="45.442741" lon="7.621751">
        <ele>1230.08818</ele>
        <time>2021-07-09T12:33:50.000Z</time>
      </trkpt>
      <trkpt lat="45.442713" lon="7.621817">
        <ele>1230.34977</ele>
        <time>2021-07-09T12:33:55.000Z</time>
      </trkpt>
      <trkpt lat="45.442698" lon="7.621911">
        <ele>1230.44057</ele>
        <time>2021-07-09T12:34:01.000Z</time>
      </trkpt>
      <trkpt lat="45.442682" lon="7.622">
        <ele>1230.84388</ele>
        <time>2021-07-09T12:34:07.000Z</time>
      </trkpt>
      <trkpt lat="45.442679" lon="7.622097">
        <ele>1231.29545</ele>
        <time>2021-07-09T12:34:13.000Z</time>
      </trkpt>
      <trkpt lat="45.442684" lon="7.622204">
        <ele>1231.87716</ele>
        <time>2021-07-09T12:34:19.000Z</time>
      </trkpt>
      <trkpt lat="45.442678" lon="7.62227">
        <ele>1232.50016</ele>
        <time>2021-07-09T12:34:24.000Z</time>
      </trkpt>
      <trkpt lat="45.442691" lon="7.622341">
        <ele>1232.95791</ele>
        <time>2021-07-09T12:34:30.000Z</time>
      </trkpt>
      <trkpt lat="45.442701" lon="7.622414">
        <ele>1233.6222</ele>
        <time>2021-07-09T12:34:35.000Z</time>
      </trkpt>
      <trkpt lat="45.442711" lon="7.622486">
        <ele>1234.42375</ele>
        <time>2021-07-09T12:34:40.000Z</time>
      </trkpt>
      <trkpt lat="45.442718" lon="7.622544">
        <ele>1235.21393</ele>
        <time>2021-07-09T12:34:46.000Z</time>
      </trkpt>
      <trkpt lat="45.442728" lon="7.622594">
        <ele>1235.92339</ele>
        <time>2021-07-09T12:34:52.000Z</time>
      </trkpt>
      <trkpt lat="45.442764" lon="7.622648">
        <ele>1236.57327</ele>
        <time>2021-07-09T12:34:58.000Z</time>
      </trkpt>
      <trkpt lat="45.442792" lon="7.622697">
        <ele>1237.26329</ele>
        <time>2021-07-09T12:35:04.000Z</time>
      </trkpt>
      <trkpt lat="45.442825" lon="7.622749">
        <ele>1238.082</ele>
        <time>2021-07-09T12:35:10.000Z</time>
      </trkpt>
      <trkpt lat="45.44284" lon="7.622798">
        <ele>1238.92989</ele>
        <time>2021-07-09T12:35:16.000Z</time>
      </trkpt>
      <trkpt lat="45.442862" lon="7.622853">
        <ele>1239.9918</ele>
        <time>2021-07-09T12:35:22.000Z</time>
      </trkpt>
      <trkpt lat="45.442891" lon="7.622899">
        <ele>1241.02505</ele>
        <time>2021-07-09T12:35:27.000Z</time>
      </trkpt>
      <trkpt lat="45.442909" lon="7.622955">
        <ele>1242.13596</ele>
        <time>2021-07-09T12:35:33.000Z</time>
      </trkpt>
      <trkpt lat="45.442938" lon="7.622997">
        <ele>1242.91921</ele>
        <time>2021-07-09T12:35:39.000Z</time>
      </trkpt>
      <trkpt lat="45.442966" lon="7.623044">
        <ele>1243.52547</ele>
        <time>2021-07-09T12:35:45.000Z</time>
      </trkpt>
      <trkpt lat="45.442972" lon="7.623104">
        <ele>1244.37966</ele>
        <time>2021-07-09T12:35:51.000Z</time>
      </trkpt>
      <trkpt lat="45.44297" lon="7.623143">
        <ele>1244.99792</ele>
        <time>2021-07-09T12:35:57.000Z</time>
      </trkpt>
      <trkpt lat="45.442988" lon="7.623194">
        <ele>1245.64018</ele>
        <time>2021-07-09T12:36:03.000Z</time>
      </trkpt>
      <trkpt lat="45.443009" lon="7.623249">
        <ele>1246.34849</ele>
        <time>2021-07-09T12:36:09.000Z</time>
      </trkpt>
      <trkpt lat="45.443022" lon="7.623306">
        <ele>1247.23903</ele>
        <time>2021-07-09T12:36:15.000Z</time>
      </trkpt>
      <trkpt lat="45.443047" lon="7.623355">
        <ele>1247.9065</ele>
        <time>2021-07-09T12:36:21.000Z</time>
      </trkpt>
      <trkpt lat="45.443066" lon="7.623408">
        <ele>1248.79237</ele>
        <time>2021-07-09T12:36:27.000Z</time>
      </trkpt>
      <trkpt lat="45.443078" lon="7.623484">
        <ele>1250.25984</ele>
        <time>2021-07-09T12:36:33.000Z</time>
      </trkpt>
      <trkpt lat="45.443084" lon="7.623539">
        <ele>1251.36118</ele>
        <time>2021-07-09T12:36:38.000Z</time>
      </trkpt>
      <trkpt lat="45.443102" lon="7.623582">
        <ele>1252.09607</ele>
        <time>2021-07-09T12:36:43.000Z</time>
      </trkpt>
      <trkpt lat="45.443119" lon="7.623628">
        <ele>1252.88487</ele>
        <time>2021-07-09T12:36:49.000Z</time>
      </trkpt>
      <trkpt lat="45.443121" lon="7.623665">
        <ele>1253.63465</ele>
        <time>2021-07-09T12:36:55.000Z</time>
      </trkpt>
      <trkpt lat="45.443123" lon="7.623708">
        <ele>1254.50367</ele>
        <time>2021-07-09T12:37:00.000Z</time>
      </trkpt>
      <trkpt lat="45.443121" lon="7.623761">
        <ele>1255.61414</ele>
        <time>2021-07-09T12:37:06.000Z</time>
      </trkpt>
      <trkpt lat="45.443124" lon="7.623809">
        <ele>1256.55888</ele>
        <time>2021-07-09T12:37:11.000Z</time>
      </trkpt>
      <trkpt lat="45.443123" lon="7.623866">
        <ele>1257.72065</ele>
        <time>2021-07-09T12:37:16.000Z</time>
      </trkpt>
      <trkpt lat="45.443124" lon="7.623918">
        <ele>1258.75102</ele>
        <time>2021-07-09T12:37:21.000Z</time>
      </trkpt>
      <trkpt lat="45.443125" lon="7.623973">
        <ele>1259.83382</ele>
        <time>2021-07-09T12:37:27.000Z</time>
      </trkpt>
      <trkpt lat="45.443116" lon="7.624017">
        <ele>1260.78716</ele>
        <time>2021-07-09T12:37:33.000Z</time>
      </trkpt>
      <trkpt lat="45.443114" lon="7.62408">
        <ele>1262.02012</ele>
        <time>2021-07-09T12:37:38.000Z</time>
      </trkpt>
      <trkpt lat="45.443116" lon="7.62414">
        <ele>1263.15439</ele>
        <time>2021-07-09T12:37:44.000Z</time>
      </trkpt>
      <trkpt lat="45.44312" lon="7.624184">
        <ele>1263.97206</ele>
        <time>2021-07-09T12:37:49.000Z</time>
      </trkpt>
      <trkpt lat="45.443126" lon="7.624203">
        <ele>1264.30772</ele>
        <time>2021-07-09T12:37:54.000Z</time>
      </trkpt>
      <trkpt lat="45.443131" lon="7.624191">
        <ele>1264.06276</ele>
        <time>2021-07-09T12:37:59.000Z</time>
      </trkpt>
      <trkpt lat="45.443144" lon="7.624207">
        <ele>1264.25902</ele>
        <time>2021-07-09T12:38:05.000Z</time>
      </trkpt>
      <trkpt lat="45.443137" lon="7.624244">
        <ele>1264.97764</ele>
        <time>2021-07-09T12:38:10.000Z</time>
      </trkpt>
      <trkpt lat="45.443133" lon="7.624276">
        <ele>1265.53488</ele>
        <time>2021-07-09T12:38:16.000Z</time>
      </trkpt>
      <trkpt lat="45.443132" lon="7.6243">
        <ele>1265.92191</ele>
        <time>2021-07-09T12:38:21.000Z</time>
      </trkpt>
      <trkpt lat="45.443148" lon="7.62437">
        <ele>1266.74014</ele>
        <time>2021-07-09T12:38:27.000Z</time>
      </trkpt>
      <trkpt lat="45.443157" lon="7.624421">
        <ele>1267.33309</ele>
        <time>2021-07-09T12:38:33.000Z</time>
      </trkpt>
      <trkpt lat="45.443145" lon="7.624523">
        <ele>1269.60617</ele>
        <time>2021-07-09T12:38:39.000Z</time>
      </trkpt>
      <trkpt lat="45.443111" lon="7.624571">
        <ele>1271.28274</ele>
        <time>2021-07-09T12:38:45.000Z</time>
      </trkpt>
      <trkpt lat="45.443085" lon="7.624588">
        <ele>1272.00196</ele>
        <time>2021-07-09T12:38:51.000Z</time>
      </trkpt>
      <trkpt lat="45.443058" lon="7.624611">
        <ele>1272.75092</ele>
        <time>2021-07-09T12:38:57.000Z</time>
      </trkpt>
      <trkpt lat="45.443032" lon="7.62463">
        <ele>1273.31311</ele>
        <time>2021-07-09T12:39:03.000Z</time>
      </trkpt>
      <trkpt lat="45.44299" lon="7.624658">
        <ele>1274.01902</ele>
        <time>2021-07-09T12:39:09.000Z</time>
      </trkpt>
      <trkpt lat="45.442943" lon="7.624677">
        <ele>1274.32907</ele>
        <time>2021-07-09T12:39:15.000Z</time>
      </trkpt>
      <trkpt lat="45.442903" lon="7.624707">
        <ele>1274.74956</ele>
        <time>2021-07-09T12:39:21.000Z</time>
      </trkpt>
      <trkpt lat="45.442862" lon="7.624737">
        <ele>1275.23694</ele>
        <time>2021-07-09T12:39:27.000Z</time>
      </trkpt>
      <trkpt lat="45.442811" lon="7.624771">
        <ele>1276.00381</ele>
        <time>2021-07-09T12:39:33.000Z</time>
      </trkpt>
      <trkpt lat="45.442756" lon="7.624791">
        <ele>1276.42224</ele>
        <time>2021-07-09T12:39:39.000Z</time>
      </trkpt>
      <trkpt lat="45.442698" lon="7.624835">
        <ele>1277.59407</ele>
        <time>2021-07-09T12:39:45.000Z</time>
      </trkpt>
      <trkpt lat="45.442647" lon="7.624856">
        <ele>1278.01296</ele>
        <time>2021-07-09T12:39:50.000Z</time>
      </trkpt>
      <trkpt lat="45.442596" lon="7.624883">
        <ele>1278.7851</ele>
        <time>2021-07-09T12:39:56.000Z</time>
      </trkpt>
      <trkpt lat="45.442549" lon="7.624907">
        <ele>1279.55702</ele>
        <time>2021-07-09T12:40:01.000Z</time>
      </trkpt>
      <trkpt lat="45.442496" lon="7.624934">
        <ele>1280.3773</ele>
        <time>2021-07-09T12:40:06.000Z</time>
      </trkpt>
      <trkpt lat="45.442429" lon="7.624973">
        <ele>1281.32606</ele>
        <time>2021-07-09T12:40:12.000Z</time>
      </trkpt>
      <trkpt lat="45.442372" lon="7.624993">
        <ele>1281.77062</ele>
        <time>2021-07-09T12:40:17.000Z</time>
      </trkpt>
      <trkpt lat="45.442302" lon="7.625024">
        <ele>1282.30994</ele>
        <time>2021-07-09T12:40:23.000Z</time>
      </trkpt>
      <trkpt lat="45.44225" lon="7.62505">
        <ele>1282.54402</ele>
        <time>2021-07-09T12:40:28.000Z</time>
      </trkpt>
      <trkpt lat="45.442193" lon="7.625077">
        <ele>1282.67766</ele>
        <time>2021-07-09T12:40:33.000Z</time>
      </trkpt>
      <trkpt lat="45.442137" lon="7.62512">
        <ele>1282.95852</ele>
        <time>2021-07-09T12:40:39.000Z</time>
      </trkpt>
      <trkpt lat="45.442111" lon="7.62516">
        <ele>1283.45056</ele>
        <time>2021-07-09T12:40:45.000Z</time>
      </trkpt>
      <trkpt lat="45.442086" lon="7.625239">
        <ele>1284.97811</ele>
        <time>2021-07-09T12:40:51.000Z</time>
      </trkpt>
      <trkpt lat="45.442117" lon="7.62528">
        <ele>1286.86985</ele>
        <time>2021-07-09T12:40:57.000Z</time>
      </trkpt>
      <trkpt lat="45.442159" lon="7.625307">
        <ele>1288.53441</ele>
        <time>2021-07-09T12:41:03.000Z</time>
      </trkpt>
      <trkpt lat="45.442207" lon="7.625319">
        <ele>1289.67674</ele>
        <time>2021-07-09T12:41:09.000Z</time>
      </trkpt>
      <trkpt lat="45.442254" lon="7.625337">
        <ele>1290.90583</ele>
        <time>2021-07-09T12:41:15.000Z</time>
      </trkpt>
      <trkpt lat="45.442297" lon="7.625344">
        <ele>1291.72185</ele>
        <time>2021-07-09T12:41:21.000Z</time>
      </trkpt>
      <trkpt lat="45.442348" lon="7.625349">
        <ele>1292.53267</ele>
        <time>2021-07-09T12:41:27.000Z</time>
      </trkpt>
      <trkpt lat="45.442398" lon="7.625348">
        <ele>1293.07213</ele>
        <time>2021-07-09T12:41:33.000Z</time>
      </trkpt>
      <trkpt lat="45.442452" lon="7.625354">
        <ele>1293.76733</ele>
        <time>2021-07-09T12:41:39.000Z</time>
      </trkpt>
      <trkpt lat="45.442509" lon="7.625351">
        <ele>1294.14053</ele>
        <time>2021-07-09T12:41:45.000Z</time>
      </trkpt>
      <trkpt lat="45.442554" lon="7.625358">
        <ele>1294.6277</ele>
        <time>2021-07-09T12:41:51.000Z</time>
      </trkpt>
      <trkpt lat="45.442603" lon="7.625382">
        <ele>1295.51276</ele>
        <time>2021-07-09T12:41:57.000Z</time>
      </trkpt>
      <trkpt lat="45.442661" lon="7.625403">
        <ele>1296.18039</ele>
        <time>2021-07-09T12:42:03.000Z</time>
      </trkpt>
      <trkpt lat="45.442705" lon="7.625417">
        <ele>1296.49055</ele>
        <time>2021-07-09T12:42:09.000Z</time>
      </trkpt>
      <trkpt lat="45.44274" lon="7.625473">
        <ele>1297.63693</ele>
        <time>2021-07-09T12:42:15.000Z</time>
      </trkpt>
      <trkpt lat="45.44274" lon="7.625528">
        <ele>1298.85077</ele>
        <time>2021-07-09T12:42:21.000Z</time>
      </trkpt>
      <trkpt lat="45.442728" lon="7.625557">
        <ele>1299.53773</ele>
        <time>2021-07-09T12:42:27.000Z</time>
      </trkpt>
      <trkpt lat="45.442702" lon="7.625591">
        <ele>1300.40073</ele>
        <time>2021-07-09T12:42:33.000Z</time>
      </trkpt>
      <trkpt lat="45.442666" lon="7.625617">
        <ele>1301.13983</ele>
        <time>2021-07-09T12:42:39.000Z</time>
      </trkpt>
      <trkpt lat="45.442626" lon="7.625626">
        <ele>1301.47052</ele>
        <time>2021-07-09T12:42:45.000Z</time>
      </trkpt>
      <trkpt lat="45.442598" lon="7.625665">
        <ele>1302.40648</ele>
        <time>2021-07-09T12:42:51.000Z</time>
      </trkpt>
      <trkpt lat="45.442578" lon="7.625682">
        <ele>1302.85258</ele>
        <time>2021-07-09T12:42:56.000Z</time>
      </trkpt>
      <trkpt lat="45.442575" lon="7.625698">
        <ele>1303.23794</ele>
        <time>2021-07-09T12:43:02.000Z</time>
      </trkpt>
      <trkpt lat="45.442543" lon="7.625735">
        <ele>1304.24262</ele>
        <time>2021-07-09T12:43:07.000Z</time>
      </trkpt>
      <trkpt lat="45.442504" lon="7.625764">
        <ele>1305.09064</ele>
        <time>2021-07-09T12:43:12.000Z</time>
      </trkpt>
      <trkpt lat="45.442462" lon="7.625802">
        <ele>1306.10589</ele>
        <time>2021-07-09T12:43:18.000Z</time>
      </trkpt>
      <trkpt lat="45.44243" lon="7.625839">
        <ele>1307.0037</ele>
        <time>2021-07-09T12:43:24.000Z</time>
      </trkpt>
      <trkpt lat="45.442393" lon="7.62588">
        <ele>1307.94351</ele>
        <time>2021-07-09T12:43:30.000Z</time>
      </trkpt>
      <trkpt lat="45.442345" lon="7.625928">
        <ele>1308.96671</ele>
        <time>2021-07-09T12:43:36.000Z</time>
      </trkpt>
      <trkpt lat="45.442316" lon="7.625988">
        <ele>1310.26668</ele>
        <time>2021-07-09T12:43:42.000Z</time>
      </trkpt>
      <trkpt lat="45.442298" lon="7.626039">
        <ele>1311.32108</ele>
        <time>2021-07-09T12:43:48.000Z</time>
      </trkpt>
      <trkpt lat="45.442279" lon="7.626076">
        <ele>1311.96003</ele>
        <time>2021-07-09T12:43:54.000Z</time>
      </trkpt>
      <trkpt lat="45.442267" lon="7.626127">
        <ele>1312.85547</ele>
        <time>2021-07-09T12:44:00.000Z</time>
      </trkpt>
      <trkpt lat="45.442253" lon="7.626174">
        <ele>1313.53286</ele>
        <time>2021-07-09T12:44:06.000Z</time>
      </trkpt>
      <trkpt lat="45.442247" lon="7.626219">
        <ele>1314.1771</ele>
        <time>2021-07-09T12:44:12.000Z</time>
      </trkpt>
      <trkpt lat="45.442242" lon="7.626271">
        <ele>1314.8742</ele>
        <time>2021-07-09T12:44:18.000Z</time>
      </trkpt>
      <trkpt lat="45.442258" lon="7.626328">
        <ele>1316.07344</ele>
        <time>2021-07-09T12:44:24.000Z</time>
      </trkpt>
      <trkpt lat="45.44228" lon="7.626352">
        <ele>1316.9135</ele>
        <time>2021-07-09T12:44:29.000Z</time>
      </trkpt>
      <trkpt lat="45.442319" lon="7.626381">
        <ele>1318.04377</ele>
        <time>2021-07-09T12:44:35.000Z</time>
      </trkpt>
      <trkpt lat="45.442365" lon="7.626415">
        <ele>1319.12967</ele>
        <time>2021-07-09T12:44:41.000Z</time>
      </trkpt>
      <trkpt lat="45.442411" lon="7.626439">
        <ele>1319.90332</ele>
        <time>2021-07-09T12:44:47.000Z</time>
      </trkpt>
      <trkpt lat="45.442449" lon="7.626463">
        <ele>1320.64546</ele>
        <time>2021-07-09T12:44:53.000Z</time>
      </trkpt>
      <trkpt lat="45.442491" lon="7.626488">
        <ele>1321.51314</ele>
        <time>2021-07-09T12:44:59.000Z</time>
      </trkpt>
      <trkpt lat="45.442542" lon="7.626511">
        <ele>1322.29534</ele>
        <time>2021-07-09T12:45:05.000Z</time>
      </trkpt>
      <trkpt lat="45.442586" lon="7.626545">
        <ele>1323.3005</ele>
        <time>2021-07-09T12:45:10.000Z</time>
      </trkpt>
      <trkpt lat="45.442623" lon="7.626561">
        <ele>1323.9227</ele>
        <time>2021-07-09T12:45:15.000Z</time>
      </trkpt>
      <trkpt lat="45.44265" lon="7.626583">
        <ele>1324.73536</ele>
        <time>2021-07-09T12:45:21.000Z</time>
      </trkpt>
      <trkpt lat="45.442691" lon="7.626604">
        <ele>1325.77856</ele>
        <time>2021-07-09T12:45:27.000Z</time>
      </trkpt>
      <trkpt lat="45.442733" lon="7.626631">
        <ele>1327.03698</ele>
        <time>2021-07-09T12:45:33.000Z</time>
      </trkpt>
      <trkpt lat="45.442768" lon="7.626638">
        <ele>1327.64751</ele>
        <time>2021-07-09T12:45:39.000Z</time>
      </trkpt>
      <trkpt lat="45.442815" lon="7.626655">
        <ele>1328.5833</ele>
        <time>2021-07-09T12:45:45.000Z</time>
      </trkpt>
      <trkpt lat="45.442865" lon="7.626672">
        <ele>1329.53748</ele>
        <time>2021-07-09T12:45:51.000Z</time>
      </trkpt>
      <trkpt lat="45.442915" lon="7.62668">
        <ele>1330.38632</ele>
        <time>2021-07-09T12:45:57.000Z</time>
      </trkpt>
      <trkpt lat="45.442963" lon="7.626693">
        <ele>1331.26821</ele>
        <time>2021-07-09T12:46:03.000Z</time>
      </trkpt>
      <trkpt lat="45.442995" lon="7.626706">
        <ele>1331.82362</ele>
        <time>2021-07-09T12:46:08.000Z</time>
      </trkpt>
      <trkpt lat="45.443022" lon="7.62672">
        <ele>1332.21639</ele>
        <time>2021-07-09T12:46:13.000Z</time>
      </trkpt>
      <trkpt lat="45.443032" lon="7.62674">
        <ele>1332.78412</ele>
        <time>2021-07-09T12:46:18.000Z</time>
      </trkpt>
      <trkpt lat="45.443024" lon="7.626779">
        <ele>1333.93301</ele>
        <time>2021-07-09T12:46:24.000Z</time>
      </trkpt>
      <trkpt lat="45.443021" lon="7.626831">
        <ele>1335.30364</ele>
        <time>2021-07-09T12:46:30.000Z</time>
      </trkpt>
      <trkpt lat="45.443024" lon="7.626845">
        <ele>1335.63095</ele>
        <time>2021-07-09T12:46:35.000Z</time>
      </trkpt>
      <trkpt lat="45.443036" lon="7.626847">
        <ele>1335.61169</ele>
        <time>2021-07-09T12:46:41.000Z</time>
      </trkpt>
      <trkpt lat="45.443039" lon="7.62687">
        <ele>1336.125</ele>
        <time>2021-07-09T12:46:47.000Z</time>
      </trkpt>
      <trkpt lat="45.443025" lon="7.626897">
        <ele>1336.8351</ele>
        <time>2021-07-09T12:46:52.000Z</time>
      </trkpt>
      <trkpt lat="45.443004" lon="7.626905">
        <ele>1337.13129</ele>
        <time>2021-07-09T12:46:58.000Z</time>
      </trkpt>
      <trkpt lat="45.442995" lon="7.62693">
        <ele>1337.73432</ele>
        <time>2021-07-09T12:47:03.000Z</time>
      </trkpt>
      <trkpt lat="45.442974" lon="7.626974">
        <ele>1338.78824</ele>
        <time>2021-07-09T12:47:09.000Z</time>
      </trkpt>
      <trkpt lat="45.442947" lon="7.627004">
        <ele>1339.45821</ele>
        <time>2021-07-09T12:47:15.000Z</time>
      </trkpt>
      <trkpt lat="45.442936" lon="7.627009">
        <ele>1339.52509</ele>
        <time>2021-07-09T12:47:21.000Z</time>
      </trkpt>
      <trkpt lat="45.442901" lon="7.627057">
        <ele>1340.60317</ele>
        <time>2021-07-09T12:47:27.000Z</time>
      </trkpt>
      <trkpt lat="45.442886" lon="7.627088">
        <ele>1341.38483</ele>
        <time>2021-07-09T12:47:32.000Z</time>
      </trkpt>
      <trkpt lat="45.442851" lon="7.627143">
        <ele>1342.72766</ele>
        <time>2021-07-09T12:47:38.000Z</time>
      </trkpt>
      <trkpt lat="45.442806" lon="7.627198">
        <ele>1343.98847</ele>
        <time>2021-07-09T12:47:43.000Z</time>
      </trkpt>
      <trkpt lat="45.442761" lon="7.627249">
        <ele>1345.00848</ele>
        <time>2021-07-09T12:47:49.000Z</time>
      </trkpt>
      <trkpt lat="45.442743" lon="7.627291">
        <ele>1346.01817</ele>
        <time>2021-07-09T12:47:55.000Z</time>
      </trkpt>
      <trkpt lat="45.442728" lon="7.627333">
        <ele>1347.05903</ele>
        <time>2021-07-09T12:48:01.000Z</time>
      </trkpt>
      <trkpt lat="45.442707" lon="7.627366">
        <ele>1347.7472</ele>
        <time>2021-07-09T12:48:06.000Z</time>
      </trkpt>
      <trkpt lat="45.442676" lon="7.627396">
        <ele>1348.12682</ele>
        <time>2021-07-09T12:48:11.000Z</time>
      </trkpt>
      <trkpt lat="45.442643" lon="7.627438">
        <ele>1348.69549</ele>
        <time>2021-07-09T12:48:17.000Z</time>
      </trkpt>
      <trkpt lat="45.442622" lon="7.627514">
        <ele>1350.22584</ele>
        <time>2021-07-09T12:48:23.000Z</time>
      </trkpt>
      <trkpt lat="45.442618" lon="7.627575">
        <ele>1351.50614</ele>
        <time>2021-07-09T12:48:28.000Z</time>
      </trkpt>
      <trkpt lat="45.442603" lon="7.62762">
        <ele>1351.8507</ele>
        <time>2021-07-09T12:48:33.000Z</time>
      </trkpt>
      <trkpt lat="45.442585" lon="7.627687">
        <ele>1352.21309</ele>
        <time>2021-07-09T12:48:39.000Z</time>
      </trkpt>
      <trkpt lat="45.442565" lon="7.627747">
        <ele>1352.14074</ele>
        <time>2021-07-09T12:48:45.000Z</time>
      </trkpt>
      <trkpt lat="45.44257" lon="7.627816">
        <ele>1353.22854</ele>
        <time>2021-07-09T12:48:51.000Z</time>
      </trkpt>
      <trkpt lat="45.442564" lon="7.627888">
        <ele>1353.74278</ele>
        <time>2021-07-09T12:48:57.000Z</time>
      </trkpt>
      <trkpt lat="45.442558" lon="7.627954">
        <ele>1354.08584</ele>
        <time>2021-07-09T12:49:03.000Z</time>
      </trkpt>
      <trkpt lat="45.442538" lon="7.628028">
        <ele>1353.88015</ele>
        <time>2021-07-09T12:49:09.000Z</time>
      </trkpt>
      <trkpt lat="45.442535" lon="7.628113">
        <ele>1354.83373</ele>
        <time>2021-07-09T12:49:15.000Z</time>
      </trkpt>
      <trkpt lat="45.44253" lon="7.628186">
        <ele>1355.68645</ele>
        <time>2021-07-09T12:49:21.000Z</time>
      </trkpt>
      <trkpt lat="45.442522" lon="7.628252">
        <ele>1356.4272</ele>
        <time>2021-07-09T12:49:27.000Z</time>
      </trkpt>
      <trkpt lat="45.442512" lon="7.628327">
        <ele>1357.40275</ele>
        <time>2021-07-09T12:49:33.000Z</time>
      </trkpt>
      <trkpt lat="45.442501" lon="7.628379">
        <ele>1358.04343</ele>
        <time>2021-07-09T12:49:39.000Z</time>
      </trkpt>
      <trkpt lat="45.442487" lon="7.628409">
        <ele>1358.2114</ele>
        <time>2021-07-09T12:49:45.000Z</time>
      </trkpt>
      <trkpt lat="45.442483" lon="7.628445">
        <ele>1358.88004</ele>
        <time>2021-07-09T12:49:51.000Z</time>
      </trkpt>
      <trkpt lat="45.442477" lon="7.628482">
        <ele>1359.53799</ele>
        <time>2021-07-09T12:49:57.000Z</time>
      </trkpt>
      <trkpt lat="45.442459" lon="7.628504">
        <ele>1359.52625</ele>
        <time>2021-07-09T12:50:03.000Z</time>
      </trkpt>
      <trkpt lat="45.442434" lon="7.628534">
        <ele>1359.58978</ele>
        <time>2021-07-09T12:50:09.000Z</time>
      </trkpt>
      <trkpt lat="45.442406" lon="7.628611">
        <ele>1360.88911</ele>
        <time>2021-07-09T12:50:15.000Z</time>
      </trkpt>
      <trkpt lat="45.442383" lon="7.628671">
        <ele>1362.09495</ele>
        <time>2021-07-09T12:50:21.000Z</time>
      </trkpt>
      <trkpt lat="45.442351" lon="7.628741">
        <ele>1363.60924</ele>
        <time>2021-07-09T12:50:27.000Z</time>
      </trkpt>
      <trkpt lat="45.44232" lon="7.628798">
        <ele>1364.7684</ele>
        <time>2021-07-09T12:50:33.000Z</time>
      </trkpt>
      <trkpt lat="45.442272" lon="7.628838">
        <ele>1364.947</ele>
        <time>2021-07-09T12:50:39.000Z</time>
      </trkpt>
      <trkpt lat="45.442228" lon="7.628897">
        <ele>1365.61073</ele>
        <time>2021-07-09T12:50:45.000Z</time>
      </trkpt>
      <trkpt lat="45.442184" lon="7.628945">
        <ele>1366.05613</ele>
        <time>2021-07-09T12:50:51.000Z</time>
      </trkpt>
      <trkpt lat="45.442149" lon="7.628984">
        <ele>1366.57661</ele>
        <time>2021-07-09T12:50:57.000Z</time>
      </trkpt>
      <trkpt lat="45.442106" lon="7.629038">
        <ele>1367.53202</ele>
        <time>2021-07-09T12:51:03.000Z</time>
      </trkpt>
      <trkpt lat="45.442082" lon="7.629096">
        <ele>1368.85901</ele>
        <time>2021-07-09T12:51:09.000Z</time>
      </trkpt>
      <trkpt lat="45.442068" lon="7.629151">
        <ele>1370.20352</ele>
        <time>2021-07-09T12:51:15.000Z</time>
      </trkpt>
      <trkpt lat="45.44204" lon="7.629201">
        <ele>1371.1228</ele>
        <time>2021-07-09T12:51:21.000Z</time>
      </trkpt>
      <trkpt lat="45.442006" lon="7.629256">
        <ele>1371.87787</ele>
        <time>2021-07-09T12:51:27.000Z</time>
      </trkpt>
      <trkpt lat="45.441967" lon="7.629319">
        <ele>1372.55147</ele>
        <time>2021-07-09T12:51:33.000Z</time>
      </trkpt>
      <trkpt lat="45.441931" lon="7.629391">
        <ele>1373.4565</ele>
        <time>2021-07-09T12:51:39.000Z</time>
      </trkpt>
      <trkpt lat="45.441906" lon="7.629454">
        <ele>1374.39111</ele>
        <time>2021-07-09T12:51:45.000Z</time>
      </trkpt>
      <trkpt lat="45.441882" lon="7.629525">
        <ele>1375.50516</ele>
        <time>2021-07-09T12:51:51.000Z</time>
      </trkpt>
      <trkpt lat="45.441868" lon="7.629603">
        <ele>1376.81937</ele>
        <time>2021-07-09T12:51:57.000Z</time>
      </trkpt>
      <trkpt lat="45.441889" lon="7.629665">
        <ele>1378.21088</ele>
        <time>2021-07-09T12:52:03.000Z</time>
      </trkpt>
      <trkpt lat="45.441904" lon="7.629692">
        <ele>1378.88854</ele>
        <time>2021-07-09T12:52:09.000Z</time>
      </trkpt>
      <trkpt lat="45.441919" lon="7.629696">
        <ele>1379.21518</ele>
        <time>2021-07-09T12:52:15.000Z</time>
      </trkpt>
      <trkpt lat="45.441967" lon="7.629693">
        <ele>1380.14458</ele>
        <time>2021-07-09T12:52:21.000Z</time>
      </trkpt>
      <trkpt lat="45.44202" lon="7.629683">
        <ele>1381.35255</ele>
        <time>2021-07-09T12:52:27.000Z</time>
      </trkpt>
      <trkpt lat="45.442078" lon="7.629658">
        <ele>1382.67482</ele>
        <time>2021-07-09T12:52:33.000Z</time>
      </trkpt>
      <trkpt lat="45.442115" lon="7.629636">
        <ele>1383.42087</ele>
        <time>2021-07-09T12:52:39.000Z</time>
      </trkpt>
      <trkpt lat="45.442162" lon="7.629631">
        <ele>1384.77186</ele>
        <time>2021-07-09T12:52:45.000Z</time>
      </trkpt>
      <trkpt lat="45.442213" lon="7.629634">
        <ele>1386.50395</ele>
        <time>2021-07-09T12:52:51.000Z</time>
      </trkpt>
      <trkpt lat="45.442265" lon="7.629616">
        <ele>1387.77781</ele>
        <time>2021-07-09T12:52:57.000Z</time>
      </trkpt>
      <trkpt lat="45.442295" lon="7.629593">
        <ele>1388.09006</ele>
        <time>2021-07-09T12:53:02.000Z</time>
      </trkpt>
      <trkpt lat="45.442326" lon="7.629546">
        <ele>1387.60669</ele>
        <time>2021-07-09T12:53:08.000Z</time>
      </trkpt>
      <trkpt lat="45.442358" lon="7.629513">
        <ele>1387.41125</ele>
        <time>2021-07-09T12:53:14.000Z</time>
      </trkpt>
      <trkpt lat="45.442405" lon="7.629507">
        <ele>1388.33494</ele>
        <time>2021-07-09T12:53:20.000Z</time>
      </trkpt>
      <trkpt lat="45.442483" lon="7.629486">
        <ele>1389.56942</ele>
        <time>2021-07-09T12:53:26.000Z</time>
      </trkpt>
      <trkpt lat="45.442524" lon="7.629477">
        <ele>1390.34805</ele>
        <time>2021-07-09T12:53:31.000Z</time>
      </trkpt>
      <trkpt lat="45.442572" lon="7.629476">
        <ele>1391.65181</ele>
        <time>2021-07-09T12:53:36.000Z</time>
      </trkpt>
      <trkpt lat="45.442635" lon="7.629468">
        <ele>1393.12171</ele>
        <time>2021-07-09T12:53:42.000Z</time>
      </trkpt>
      <trkpt lat="45.442694" lon="7.629466">
        <ele>1394.09386</ele>
        <time>2021-07-09T12:53:48.000Z</time>
      </trkpt>
      <trkpt lat="45.442747" lon="7.629477">
        <ele>1394.61202</ele>
        <time>2021-07-09T12:53:54.000Z</time>
      </trkpt>
      <trkpt lat="45.442791" lon="7.629509">
        <ele>1395.10131</ele>
        <time>2021-07-09T12:54:00.000Z</time>
      </trkpt>
      <trkpt lat="45.442819" lon="7.629545">
        <ele>1395.52772</ele>
        <time>2021-07-09T12:54:05.000Z</time>
      </trkpt>
      <trkpt lat="45.442844" lon="7.629585">
        <ele>1395.98672</ele>
        <time>2021-07-09T12:54:11.000Z</time>
      </trkpt>
      <trkpt lat="45.442881" lon="7.629621">
        <ele>1396.35421</ele>
        <time>2021-07-09T12:54:17.000Z</time>
      </trkpt>
      <trkpt lat="45.442926" lon="7.629671">
        <ele>1396.99659</ele>
        <time>2021-07-09T12:54:23.000Z</time>
      </trkpt>
      <trkpt lat="45.44296" lon="7.629712">
        <ele>1397.63988</ele>
        <time>2021-07-09T12:54:29.000Z</time>
      </trkpt>
      <trkpt lat="45.442981" lon="7.629745">
        <ele>1398.24109</ele>
        <time>2021-07-09T12:54:35.000Z</time>
      </trkpt>
      <trkpt lat="45.442998" lon="7.629764">
        <ele>1398.59714</ele>
        <time>2021-07-09T12:54:40.000Z</time>
      </trkpt>
      <trkpt lat="45.442996" lon="7.629776">
        <ele>1398.85195</ele>
        <time>2021-07-09T12:54:45.000Z</time>
      </trkpt>
      <trkpt lat="45.442995" lon="7.629781">
        <ele>1398.95721</ele>
        <time>2021-07-09T12:54:51.000Z</time>
      </trkpt>
      <trkpt lat="45.443011" lon="7.62982">
        <ele>1399.74392</ele>
        <time>2021-07-09T12:54:57.000Z</time>
      </trkpt>
      <trkpt lat="45.443023" lon="7.629878">
        <ele>1400.85787</ele>
        <time>2021-07-09T12:55:03.000Z</time>
      </trkpt>
      <trkpt lat="45.443023" lon="7.629944">
        <ele>1402.05254</ele>
        <time>2021-07-09T12:55:09.000Z</time>
      </trkpt>
      <trkpt lat="45.443012" lon="7.630007">
        <ele>1403.16712</ele>
        <time>2021-07-09T12:55:15.000Z</time>
      </trkpt>
      <trkpt lat="45.442989" lon="7.630053">
        <ele>1404.06629</ele>
        <time>2021-07-09T12:55:21.000Z</time>
      </trkpt>
      <trkpt lat="45.442965" lon="7.630074">
        <ele>1404.60982</ele>
        <time>2021-07-09T12:55:27.000Z</time>
      </trkpt>
      <trkpt lat="45.442942" lon="7.630112">
        <ele>1405.55661</ele>
        <time>2021-07-09T12:55:33.000Z</time>
      </trkpt>
      <trkpt lat="45.442896" lon="7.630154">
        <ele>1406.8501</ele>
        <time>2021-07-09T12:55:39.000Z</time>
      </trkpt>
      <trkpt lat="45.442848" lon="7.630189">
        <ele>1407.82934</ele>
        <time>2021-07-09T12:55:45.000Z</time>
      </trkpt>
      <trkpt lat="45.442817" lon="7.630213">
        <ele>1408.4161</ele>
        <time>2021-07-09T12:55:51.000Z</time>
      </trkpt>
      <trkpt lat="45.442812" lon="7.63022">
        <ele>1408.58324</ele>
        <time>2021-07-09T12:55:57.000Z</time>
      </trkpt>
      <trkpt lat="45.442814" lon="7.63022">
        <ele>1408.58446</ele>
        <time>2021-07-09T12:56:03.000Z</time>
      </trkpt>
      <trkpt lat="45.442798" lon="7.630257">
        <ele>1409.47326</ele>
        <time>2021-07-09T12:56:09.000Z</time>
      </trkpt>
      <trkpt lat="45.442754" lon="7.630273">
        <ele>1409.77297</ele>
        <time>2021-07-09T12:56:15.000Z</time>
      </trkpt>
      <trkpt lat="45.442705" lon="7.630313">
        <ele>1410.53836</ele>
        <time>2021-07-09T12:56:21.000Z</time>
      </trkpt>
      <trkpt lat="45.442668" lon="7.630347">
        <ele>1411.09559</ele>
        <time>2021-07-09T12:56:27.000Z</time>
      </trkpt>
      <trkpt lat="45.442637" lon="7.630398">
        <ele>1411.86503</ele>
        <time>2021-07-09T12:56:33.000Z</time>
      </trkpt>
      <trkpt lat="45.442626" lon="7.630455">
        <ele>1412.71021</ele>
        <time>2021-07-09T12:56:39.000Z</time>
      </trkpt>
      <trkpt lat="45.442617" lon="7.630532">
        <ele>1413.73053</ele>
        <time>2021-07-09T12:56:45.000Z</time>
      </trkpt>
      <trkpt lat="45.442609" lon="7.630614">
        <ele>1414.75422</ele>
        <time>2021-07-09T12:56:51.000Z</time>
      </trkpt>
      <trkpt lat="45.442584" lon="7.630689">
        <ele>1415.19079</ele>
        <time>2021-07-09T12:56:57.000Z</time>
      </trkpt>
      <trkpt lat="45.442565" lon="7.630774">
        <ele>1415.86641</ele>
        <time>2021-07-09T12:57:03.000Z</time>
      </trkpt>
      <trkpt lat="45.442532" lon="7.630854">
        <ele>1416.25082</ele>
        <time>2021-07-09T12:57:09.000Z</time>
      </trkpt>
      <trkpt lat="45.4425" lon="7.630922">
        <ele>1416.78027</ele>
        <time>2021-07-09T12:57:15.000Z</time>
      </trkpt>
      <trkpt lat="45.442483" lon="7.630996">
        <ele>1418.02838</ele>
        <time>2021-07-09T12:57:21.000Z</time>
      </trkpt>
      <trkpt lat="45.442459" lon="7.631044">
        <ele>1418.65071</ele>
        <time>2021-07-09T12:57:27.000Z</time>
      </trkpt>
      <trkpt lat="45.442425" lon="7.631086">
        <ele>1418.9853</ele>
        <time>2021-07-09T12:57:33.000Z</time>
      </trkpt>
      <trkpt lat="45.442394" lon="7.631111">
        <ele>1418.98345</ele>
        <time>2021-07-09T12:57:39.000Z</time>
      </trkpt>
      <trkpt lat="45.44237" lon="7.631161">
        <ele>1419.8048</ele>
        <time>2021-07-09T12:57:45.000Z</time>
      </trkpt>
      <trkpt lat="45.442372" lon="7.631219">
        <ele>1421.41001</ele>
        <time>2021-07-09T12:57:51.000Z</time>
      </trkpt>
      <trkpt lat="45.442385" lon="7.631258">
        <ele>1422.79747</ele>
        <time>2021-07-09T12:57:57.000Z</time>
      </trkpt>
      <trkpt lat="45.442404" lon="7.63127">
        <ele>1423.6187</ele>
        <time>2021-07-09T12:58:03.000Z</time>
      </trkpt>
      <trkpt lat="45.442442" lon="7.631276">
        <ele>1424.79229</ele>
        <time>2021-07-09T12:58:09.000Z</time>
      </trkpt>
      <trkpt lat="45.442474" lon="7.631281">
        <ele>1425.7912</ele>
        <time>2021-07-09T12:58:15.000Z</time>
      </trkpt>
      <trkpt lat="45.44252" lon="7.631281">
        <ele>1426.93395</ele>
        <time>2021-07-09T12:58:21.000Z</time>
      </trkpt>
      <trkpt lat="45.442564" lon="7.631268">
        <ele>1427.53192</ele>
        <time>2021-07-09T12:58:27.000Z</time>
      </trkpt>
      <trkpt lat="45.442614" lon="7.631261">
        <ele>1428.46538</ele>
        <time>2021-07-09T12:58:33.000Z</time>
      </trkpt>
      <trkpt lat="45.442666" lon="7.631256">
        <ele>1429.41589</ele>
        <time>2021-07-09T12:58:39.000Z</time>
      </trkpt>
      <trkpt lat="45.442717" lon="7.631252">
        <ele>1430.16574</ele>
        <time>2021-07-09T12:58:45.000Z</time>
      </trkpt>
      <trkpt lat="45.442774" lon="7.631252">
        <ele>1430.79628</ele>
        <time>2021-07-09T12:58:51.000Z</time>
      </trkpt>
      <trkpt lat="45.442822" lon="7.631274">
        <ele>1431.62524</ele>
        <time>2021-07-09T12:58:57.000Z</time>
      </trkpt>
      <trkpt lat="45.442865" lon="7.631294">
        <ele>1432.31882</ele>
        <time>2021-07-09T12:59:03.000Z</time>
      </trkpt>
      <trkpt lat="45.442905" lon="7.631319">
        <ele>1433.07966</ele>
        <time>2021-07-09T12:59:09.000Z</time>
      </trkpt>
      <trkpt lat="45.442943" lon="7.63136">
        <ele>1434.06421</ele>
        <time>2021-07-09T12:59:15.000Z</time>
      </trkpt>
      <trkpt lat="45.442988" lon="7.631407">
        <ele>1435.1495</ele>
        <time>2021-07-09T12:59:21.000Z</time>
      </trkpt>
      <trkpt lat="45.443035" lon="7.631448">
        <ele>1436.13038</ele>
        <time>2021-07-09T12:59:27.000Z</time>
      </trkpt>
      <trkpt lat="45.443082" lon="7.631472">
        <ele>1436.98878</ele>
        <time>2021-07-09T12:59:33.000Z</time>
      </trkpt>
      <trkpt lat="45.44312" lon="7.631482">
        <ele>1437.81623</ele>
        <time>2021-07-09T12:59:39.000Z</time>
      </trkpt>
      <trkpt lat="45.443159" lon="7.631484">
        <ele>1438.68309</ele>
        <time>2021-07-09T12:59:45.000Z</time>
      </trkpt>
      <trkpt lat="45.443213" lon="7.631489">
        <ele>1439.82592</ele>
        <time>2021-07-09T12:59:51.000Z</time>
      </trkpt>
      <trkpt lat="45.443259" lon="7.631533">
        <ele>1440.99395</ele>
        <time>2021-07-09T12:59:57.000Z</time>
      </trkpt>
      <trkpt lat="45.443259" lon="7.631588">
        <ele>1441.82432</ele>
        <time>2021-07-09T13:00:03.000Z</time>
      </trkpt>
      <trkpt lat="45.443238" lon="7.631629">
        <ele>1442.29926</ele>
        <time>2021-07-09T13:00:09.000Z</time>
      </trkpt>
      <trkpt lat="45.443242" lon="7.631689">
        <ele>1443.1666</ele>
        <time>2021-07-09T13:00:15.000Z</time>
      </trkpt>
      <trkpt lat="45.443247" lon="7.631754">
        <ele>1443.98668</ele>
        <time>2021-07-09T13:00:21.000Z</time>
      </trkpt>
      <trkpt lat="45.443255" lon="7.631829">
        <ele>1444.89741</ele>
        <time>2021-07-09T13:00:27.000Z</time>
      </trkpt>
      <trkpt lat="45.44326" lon="7.631886">
        <ele>1445.67538</ele>
        <time>2021-07-09T13:00:33.000Z</time>
      </trkpt>
      <trkpt lat="45.443243" lon="7.631945">
        <ele>1446.66654</ele>
        <time>2021-07-09T13:00:39.000Z</time>
      </trkpt>
      <trkpt lat="45.443211" lon="7.631998">
        <ele>1447.64254</ele>
        <time>2021-07-09T13:00:45.000Z</time>
      </trkpt>
      <trkpt lat="45.44317" lon="7.632021">
        <ele>1448.179</ele>
        <time>2021-07-09T13:00:51.000Z</time>
      </trkpt>
      <trkpt lat="45.443127" lon="7.632028">
        <ele>1448.48653</ele>
        <time>2021-07-09T13:00:57.000Z</time>
      </trkpt>
      <trkpt lat="45.443093" lon="7.632045">
        <ele>1448.96751</ele>
        <time>2021-07-09T13:01:02.000Z</time>
      </trkpt>
      <trkpt lat="45.443089" lon="7.632076">
        <ele>1449.54331</ele>
        <time>2021-07-09T13:01:08.000Z</time>
      </trkpt>
      <trkpt lat="45.443075" lon="7.632101">
        <ele>1450.09138</ele>
        <time>2021-07-09T13:01:13.000Z</time>
      </trkpt>
      <trkpt lat="45.443028" lon="7.632135">
        <ele>1451.09187</ele>
        <time>2021-07-09T13:01:19.000Z</time>
      </trkpt>
      <trkpt lat="45.442985" lon="7.632163">
        <ele>1452.01807</ele>
        <time>2021-07-09T13:01:24.000Z</time>
      </trkpt>
      <trkpt lat="45.442942" lon="7.632182">
        <ele>1452.78154</ele>
        <time>2021-07-09T13:01:30.000Z</time>
      </trkpt>
      <trkpt lat="45.442907" lon="7.632197">
        <ele>1453.3866</ele>
        <time>2021-07-09T13:01:35.000Z</time>
      </trkpt>
      <trkpt lat="45.442872" lon="7.632242">
        <ele>1454.45039</ele>
        <time>2021-07-09T13:01:41.000Z</time>
      </trkpt>
      <trkpt lat="45.442835" lon="7.632266">
        <ele>1455.23118</ele>
        <time>2021-07-09T13:01:46.000Z</time>
      </trkpt>
      <trkpt lat="45.4428" lon="7.632286">
        <ele>1455.9375</ele>
        <time>2021-07-09T13:01:51.000Z</time>
      </trkpt>
      <trkpt lat="45.44277" lon="7.632317">
        <ele>1456.69279</ele>
        <time>2021-07-09T13:01:57.000Z</time>
      </trkpt>
      <trkpt lat="45.442741" lon="7.632352">
        <ele>1457.46131</ele>
        <time>2021-07-09T13:02:02.000Z</time>
      </trkpt>
      <trkpt lat="45.442708" lon="7.632402">
        <ele>1458.49225</ele>
        <time>2021-07-09T13:02:08.000Z</time>
      </trkpt>
      <trkpt lat="45.442689" lon="7.632462">
        <ele>1459.68684</ele>
        <time>2021-07-09T13:02:13.000Z</time>
      </trkpt>
      <trkpt lat="45.442683" lon="7.632504">
        <ele>1460.44382</ele>
        <time>2021-07-09T13:02:19.000Z</time>
      </trkpt>
      <trkpt lat="45.442662" lon="7.63254">
        <ele>1461.25704</ele>
        <time>2021-07-09T13:02:25.000Z</time>
      </trkpt>
      <trkpt lat="45.442632" lon="7.6326">
        <ele>1462.38812</ele>
        <time>2021-07-09T13:02:31.000Z</time>
      </trkpt>
      <trkpt lat="45.442603" lon="7.632669">
        <ele>1463.44554</ele>
        <time>2021-07-09T13:02:37.000Z</time>
      </trkpt>
      <trkpt lat="45.442577" lon="7.632712">
        <ele>1464.0561</ele>
        <time>2021-07-09T13:02:43.000Z</time>
      </trkpt>
      <trkpt lat="45.442552" lon="7.632769">
        <ele>1464.83016</ele>
        <time>2021-07-09T13:02:49.000Z</time>
      </trkpt>
      <trkpt lat="45.44253" lon="7.632833">
        <ele>1465.72037</ele>
        <time>2021-07-09T13:02:55.000Z</time>
      </trkpt>
      <trkpt lat="45.442519" lon="7.632892">
        <ele>1466.62406</ele>
        <time>2021-07-09T13:03:00.000Z</time>
      </trkpt>
      <trkpt lat="45.442495" lon="7.63295">
        <ele>1467.42901</ele>
        <time>2021-07-09T13:03:06.000Z</time>
      </trkpt>
      <trkpt lat="45.442477" lon="7.633">
        <ele>1468.18801</ele>
        <time>2021-07-09T13:03:11.000Z</time>
      </trkpt>
      <trkpt lat="45.442462" lon="7.633046">
        <ele>1468.93058</ele>
        <time>2021-07-09T13:03:16.000Z</time>
      </trkpt>
      <trkpt lat="45.442441" lon="7.633092">
        <ele>1469.63569</ele>
        <time>2021-07-09T13:03:21.000Z</time>
      </trkpt>
      <trkpt lat="45.442423" lon="7.633152">
        <ele>1470.56165</ele>
        <time>2021-07-09T13:03:27.000Z</time>
      </trkpt>
      <trkpt lat="45.442404" lon="7.633202">
        <ele>1471.18052</ele>
        <time>2021-07-09T13:03:32.000Z</time>
      </trkpt>
      <trkpt lat="45.442383" lon="7.633267">
        <ele>1471.81263</ele>
        <time>2021-07-09T13:03:38.000Z</time>
      </trkpt>
      <trkpt lat="45.442385" lon="7.633326">
        <ele>1472.52654</ele>
        <time>2021-07-09T13:03:43.000Z</time>
      </trkpt>
      <trkpt lat="45.44242" lon="7.633367">
        <ele>1473.42588</ele>
        <time>2021-07-09T13:03:49.000Z</time>
      </trkpt>
      <trkpt lat="45.442463" lon="7.633383">
        <ele>1474.13046</ele>
        <time>2021-07-09T13:03:55.000Z</time>
      </trkpt>
      <trkpt lat="45.442504" lon="7.633398">
        <ele>1474.83505</ele>
        <time>2021-07-09T13:04:00.000Z</time>
      </trkpt>
      <trkpt lat="45.442559" lon="7.633393">
        <ele>1475.50536</ele>
        <time>2021-07-09T13:04:06.000Z</time>
      </trkpt>
      <trkpt lat="45.442607" lon="7.633382">
        <ele>1476.03832</ele>
        <time>2021-07-09T13:04:12.000Z</time>
      </trkpt>
      <trkpt lat="45.442657" lon="7.633393">
        <ele>1477.01809</ele>
        <time>2021-07-09T13:04:18.000Z</time>
      </trkpt>
      <trkpt lat="45.442701" lon="7.633387">
        <ele>1477.58606</ele>
        <time>2021-07-09T13:04:24.000Z</time>
      </trkpt>
      <trkpt lat="45.442741" lon="7.633405">
        <ele>1478.54657</ele>
        <time>2021-07-09T13:04:30.000Z</time>
      </trkpt>
      <trkpt lat="45.44275" lon="7.633444">
        <ele>1479.46986</ele>
        <time>2021-07-09T13:04:36.000Z</time>
      </trkpt>
      <trkpt lat="45.442746" lon="7.633477">
        <ele>1480.04975</ele>
        <time>2021-07-09T13:04:42.000Z</time>
      </trkpt>
      <trkpt lat="45.442744" lon="7.633509">
        <ele>1480.62439</ele>
        <time>2021-07-09T13:04:48.000Z</time>
      </trkpt>
      <trkpt lat="45.442748" lon="7.633537">
        <ele>1481.21155</ele>
        <time>2021-07-09T13:04:54.000Z</time>
      </trkpt>
      <trkpt lat="45.44275" lon="7.633562">
        <ele>1481.70327</ele>
        <time>2021-07-09T13:04:59.000Z</time>
      </trkpt>
      <trkpt lat="45.442755" lon="7.633587">
        <ele>1482.2401</ele>
        <time>2021-07-09T13:05:05.000Z</time>
      </trkpt>
      <trkpt lat="45.442759" lon="7.633625">
        <ele>1482.9864</ele>
        <time>2021-07-09T13:05:11.000Z</time>
      </trkpt>
      <trkpt lat="45.44277" lon="7.633689">
        <ele>1484.29704</ele>
        <time>2021-07-09T13:05:17.000Z</time>
      </trkpt>
      <trkpt lat="45.442784" lon="7.633748">
        <ele>1485.53268</ele>
        <time>2021-07-09T13:05:23.000Z</time>
      </trkpt>
      <trkpt lat="45.442783" lon="7.633794">
        <ele>1486.26945</ele>
        <time>2021-07-09T13:05:28.000Z</time>
      </trkpt>
      <trkpt lat="45.442791" lon="7.633826">
        <ele>1486.91473</ele>
        <time>2021-07-09T13:05:33.000Z</time>
      </trkpt>
      <trkpt lat="45.4428" lon="7.633863">
        <ele>1487.6552</ele>
        <time>2021-07-09T13:05:39.000Z</time>
      </trkpt>
      <trkpt lat="45.442808" lon="7.633871">
        <ele>1487.9092</ele>
        <time>2021-07-09T13:05:45.000Z</time>
      </trkpt>
      <trkpt lat="45.442807" lon="7.63387">
        <ele>1487.87756</ele>
        <time>2021-07-09T13:06:03.000Z</time>
      </trkpt>
      <trkpt lat="45.442811" lon="7.63388">
        <ele>1488.10211</ele>
        <time>2021-07-09T13:06:45.000Z</time>
      </trkpt>
      <trkpt lat="45.442818" lon="7.633916">
        <ele>1488.80392</ele>
        <time>2021-07-09T13:06:51.000Z</time>
      </trkpt>
      <trkpt lat="45.442831" lon="7.633946">
        <ele>1489.5032</ele>
        <time>2021-07-09T13:06:57.000Z</time>
      </trkpt>
      <trkpt lat="45.442843" lon="7.633987">
        <ele>1490.38813</ele>
        <time>2021-07-09T13:07:03.000Z</time>
      </trkpt>
      <trkpt lat="45.442858" lon="7.634034">
        <ele>1491.42082</ele>
        <time>2021-07-09T13:07:09.000Z</time>
      </trkpt>
      <trkpt lat="45.442877" lon="7.63408">
        <ele>1492.4579</ele>
        <time>2021-07-09T13:07:15.000Z</time>
      </trkpt>
      <trkpt lat="45.442877" lon="7.634112">
        <ele>1493.02183</ele>
        <time>2021-07-09T13:07:20.000Z</time>
      </trkpt>
      <trkpt lat="45.442878" lon="7.634142">
        <ele>1493.55622</ele>
        <time>2021-07-09T13:07:26.000Z</time>
      </trkpt>
      <trkpt lat="45.442892" lon="7.634172">
        <ele>1494.20877</ele>
        <time>2021-07-09T13:07:31.000Z</time>
      </trkpt>
      <trkpt lat="45.442905" lon="7.634218">
        <ele>1495.10856</ele>
        <time>2021-07-09T13:07:36.000Z</time>
      </trkpt>
      <trkpt lat="45.442916" lon="7.634266">
        <ele>1496.01252</ele>
        <time>2021-07-09T13:07:42.000Z</time>
      </trkpt>
      <trkpt lat="45.442919" lon="7.63431">
        <ele>1496.76761</ele>
        <time>2021-07-09T13:07:48.000Z</time>
      </trkpt>
      <trkpt lat="45.442934" lon="7.634352">
        <ele>1497.63837</ele>
        <time>2021-07-09T13:07:54.000Z</time>
      </trkpt>
      <trkpt lat="45.442933" lon="7.634385">
        <ele>1498.18119</ele>
        <time>2021-07-09T13:07:59.000Z</time>
      </trkpt>
      <trkpt lat="45.442939" lon="7.634421">
        <ele>1498.87322</ele>
        <time>2021-07-09T13:08:05.000Z</time>
      </trkpt>
      <trkpt lat="45.442955" lon="7.634453">
        <ele>1499.65208</ele>
        <time>2021-07-09T13:08:10.000Z</time>
      </trkpt>
      <trkpt lat="45.442971" lon="7.634492">
        <ele>1500.58131</ele>
        <time>2021-07-09T13:08:15.000Z</time>
      </trkpt>
      <trkpt lat="45.442991" lon="7.634527">
        <ele>1501.515</ele>
        <time>2021-07-09T13:08:21.000Z</time>
      </trkpt>
      <trkpt lat="45.442998" lon="7.634562">
        <ele>1502.26914</ele>
        <time>2021-07-09T13:08:27.000Z</time>
      </trkpt>
      <trkpt lat="45.443005" lon="7.634573">
        <ele>1502.57754</ele>
        <time>2021-07-09T13:08:33.000Z</time>
      </trkpt>
      <trkpt lat="45.443012" lon="7.634595">
        <ele>1503.09359</ele>
        <time>2021-07-09T13:08:39.000Z</time>
      </trkpt>
      <trkpt lat="45.443024" lon="7.634647">
        <ele>1504.25785</ele>
        <time>2021-07-09T13:08:45.000Z</time>
      </trkpt>
      <trkpt lat="45.443031" lon="7.634696">
        <ele>1505.31351</ele>
        <time>2021-07-09T13:08:51.000Z</time>
      </trkpt>
      <trkpt lat="45.443041" lon="7.634748">
        <ele>1506.51794</ele>
        <time>2021-07-09T13:08:57.000Z</time>
      </trkpt>
      <trkpt lat="45.443064" lon="7.634789">
        <ele>1507.76992</ele>
        <time>2021-07-09T13:09:03.000Z</time>
      </trkpt>
      <trkpt lat="45.443101" lon="7.634822">
        <ele>1509.13593</ele>
        <time>2021-07-09T13:09:09.000Z</time>
      </trkpt>
      <trkpt lat="45.44312" lon="7.634847">
        <ele>1510.03737</ele>
        <time>2021-07-09T13:09:15.000Z</time>
      </trkpt>
      <trkpt lat="45.443124" lon="7.634848">
        <ele>1510.12738</ele>
        <time>2021-07-09T13:09:21.000Z</time>
      </trkpt>
      <trkpt lat="45.443129" lon="7.634875">
        <ele>1510.84597</ele>
        <time>2021-07-09T13:09:32.000Z</time>
      </trkpt>
      <trkpt lat="45.443133" lon="7.634923">
        <ele>1512.01981</ele>
        <time>2021-07-09T13:09:37.000Z</time>
      </trkpt>
      <trkpt lat="45.44314" lon="7.634966">
        <ele>1513.0837</ele>
        <time>2021-07-09T13:09:43.000Z</time>
      </trkpt>
      <trkpt lat="45.443145" lon="7.635012">
        <ele>1514.1228</ele>
        <time>2021-07-09T13:09:49.000Z</time>
      </trkpt>
      <trkpt lat="45.443161" lon="7.63506">
        <ele>1515.3623</ele>
        <time>2021-07-09T13:09:55.000Z</time>
      </trkpt>
      <trkpt lat="45.443177" lon="7.635088">
        <ele>1516.18379</ele>
        <time>2021-07-09T13:10:01.000Z</time>
      </trkpt>
      <trkpt lat="45.443181" lon="7.635092">
        <ele>1516.32937</ele>
        <time>2021-07-09T13:10:07.000Z</time>
      </trkpt>
      <trkpt lat="45.443195" lon="7.635131">
        <ele>1517.30651</ele>
        <time>2021-07-09T13:10:18.000Z</time>
      </trkpt>
      <trkpt lat="45.443202" lon="7.635175">
        <ele>1518.25224</ele>
        <time>2021-07-09T13:10:24.000Z</time>
      </trkpt>
      <trkpt lat="45.443206" lon="7.635209">
        <ele>1518.96407</ele>
        <time>2021-07-09T13:10:30.000Z</time>
      </trkpt>
      <trkpt lat="45.44322" lon="7.635242">
        <ele>1519.84083</ele>
        <time>2021-07-09T13:10:36.000Z</time>
      </trkpt>
      <trkpt lat="45.443244" lon="7.635277">
        <ele>1520.94578</ele>
        <time>2021-07-09T13:10:42.000Z</time>
      </trkpt>
      <trkpt lat="45.443269" lon="7.635315">
        <ele>1522.15037</ele>
        <time>2021-07-09T13:10:48.000Z</time>
      </trkpt>
      <trkpt lat="45.443295" lon="7.635344">
        <ele>1523.21832</ele>
        <time>2021-07-09T13:10:54.000Z</time>
      </trkpt>
      <trkpt lat="45.443309" lon="7.635367">
        <ele>1523.94936</ele>
        <time>2021-07-09T13:11:00.000Z</time>
      </trkpt>
      <trkpt lat="45.443307" lon="7.635371">
        <ele>1523.9896</ele>
        <time>2021-07-09T13:11:06.000Z</time>
      </trkpt>
      <trkpt lat="45.443307" lon="7.635369">
        <ele>1523.94993</ele>
        <time>2021-07-09T13:11:12.000Z</time>
      </trkpt>
      <trkpt lat="45.443336" lon="7.635407">
        <ele>1525.26461</ele>
        <time>2021-07-09T13:11:18.000Z</time>
      </trkpt>
      <trkpt lat="45.443362" lon="7.63543">
        <ele>1526.20612</ele>
        <time>2021-07-09T13:11:24.000Z</time>
      </trkpt>
      <trkpt lat="45.44338" lon="7.635451">
        <ele>1526.9365</ele>
        <time>2021-07-09T13:11:30.000Z</time>
      </trkpt>
      <trkpt lat="45.443382" lon="7.635494">
        <ele>1527.7498</ele>
        <time>2021-07-09T13:11:36.000Z</time>
      </trkpt>
      <trkpt lat="45.443378" lon="7.635532">
        <ele>1528.31749</ele>
        <time>2021-07-09T13:11:41.000Z</time>
      </trkpt>
      <trkpt lat="45.443374" lon="7.635573">
        <ele>1528.90656</ele>
        <time>2021-07-09T13:11:47.000Z</time>
      </trkpt>
      <trkpt lat="45.443369" lon="7.635617">
        <ele>1529.51665</ele>
        <time>2021-07-09T13:11:53.000Z</time>
      </trkpt>
      <trkpt lat="45.443365" lon="7.635648">
        <ele>1529.9447</ele>
        <time>2021-07-09T13:11:59.000Z</time>
      </trkpt>
      <trkpt lat="45.443367" lon="7.635646">
        <ele>1529.94713</ele>
        <time>2021-07-09T13:12:05.000Z</time>
      </trkpt>
      <trkpt lat="45.443383" lon="7.635661">
        <ele>1530.46688</ele>
        <time>2021-07-09T13:12:10.000Z</time>
      </trkpt>
      <trkpt lat="45.443424" lon="7.635698">
        <ele>1531.79392</ele>
        <time>2021-07-09T13:12:15.000Z</time>
      </trkpt>
      <trkpt lat="45.443424" lon="7.635727">
        <ele>1532.33351</ele>
        <time>2021-07-09T13:12:21.000Z</time>
      </trkpt>
      <trkpt lat="45.443405" lon="7.635773">
        <ele>1532.92026</ele>
        <time>2021-07-09T13:12:27.000Z</time>
      </trkpt>
      <trkpt lat="45.443406" lon="7.635806">
        <ele>1533.64492</ele>
        <time>2021-07-09T13:12:33.000Z</time>
      </trkpt>
      <trkpt lat="45.443403" lon="7.635852">
        <ele>1534.59491</ele>
        <time>2021-07-09T13:12:39.000Z</time>
      </trkpt>
      <trkpt lat="45.443402" lon="7.635879">
        <ele>1535.16692</ele>
        <time>2021-07-09T13:12:45.000Z</time>
      </trkpt>
      <trkpt lat="45.443395" lon="7.635877">
        <ele>1534.9636</ele>
        <time>2021-07-09T13:12:51.000Z</time>
      </trkpt>
      <trkpt lat="45.443393" lon="7.635877">
        <ele>1534.91803</ele>
        <time>2021-07-09T13:12:57.000Z</time>
      </trkpt>
      <trkpt lat="45.443383" lon="7.635908">
        <ele>1535.33683</ele>
        <time>2021-07-09T13:13:03.000Z</time>
      </trkpt>
      <trkpt lat="45.443391" lon="7.635953">
        <ele>1536.44473</ele>
        <time>2021-07-09T13:13:09.000Z</time>
      </trkpt>
      <trkpt lat="45.443394" lon="7.635989">
        <ele>1537.20593</ele>
        <time>2021-07-09T13:13:15.000Z</time>
      </trkpt>
      <trkpt lat="45.443384" lon="7.636038">
        <ele>1537.81955</ele>
        <time>2021-07-09T13:13:21.000Z</time>
      </trkpt>
      <trkpt lat="45.443395" lon="7.636075">
        <ele>1538.80227</ele>
        <time>2021-07-09T13:13:27.000Z</time>
      </trkpt>
      <trkpt lat="45.443404" lon="7.636097">
        <ele>1539.46036</ele>
        <time>2021-07-09T13:13:33.000Z</time>
      </trkpt>
      <trkpt lat="45.443424" lon="7.636134">
        <ele>1540.71445</ele>
        <time>2021-07-09T13:13:39.000Z</time>
      </trkpt>
      <trkpt lat="45.443459" lon="7.636165">
        <ele>1542.33897</ele>
        <time>2021-07-09T13:13:45.000Z</time>
      </trkpt>
      <trkpt lat="45.443467" lon="7.636169">
        <ele>1542.65997</ele>
        <time>2021-07-09T13:13:51.000Z</time>
      </trkpt>
      <trkpt lat="45.443483" lon="7.636204">
        <ele>1543.75117</ele>
        <time>2021-07-09T13:14:09.000Z</time>
      </trkpt>
      <trkpt lat="45.443491" lon="7.636202">
        <ele>1543.97806</ele>
        <time>2021-07-09T13:14:15.000Z</time>
      </trkpt>
      <trkpt lat="45.443509" lon="7.636226">
        <ele>1544.95253</ele>
        <time>2021-07-09T13:14:21.000Z</time>
      </trkpt>
      <trkpt lat="45.443539" lon="7.636232">
        <ele>1546.03772</ele>
        <time>2021-07-09T13:14:27.000Z</time>
      </trkpt>
      <trkpt lat="45.443566" lon="7.63626">
        <ele>1547.37158</ele>
        <time>2021-07-09T13:14:33.000Z</time>
      </trkpt>
      <trkpt lat="45.443593" lon="7.636285">
        <ele>1548.63971</ele>
        <time>2021-07-09T13:14:39.000Z</time>
      </trkpt>
      <trkpt lat="45.443614" lon="7.636294">
        <ele>1549.44626</ele>
        <time>2021-07-09T13:14:45.000Z</time>
      </trkpt>
      <trkpt lat="45.443621" lon="7.6363">
        <ele>1549.75716</ele>
        <time>2021-07-09T13:14:51.000Z</time>
      </trkpt>
      <trkpt lat="45.443621" lon="7.636299">
        <ele>1549.74186</ele>
        <time>2021-07-09T13:14:57.000Z</time>
      </trkpt>
      <trkpt lat="45.443629" lon="7.636291">
        <ele>1549.86488</ele>
        <time>2021-07-09T13:15:15.000Z</time>
      </trkpt>
      <trkpt lat="45.443654" lon="7.636328">
        <ele>1551.18427</ele>
        <time>2021-07-09T13:15:21.000Z</time>
      </trkpt>
      <trkpt lat="45.443678" lon="7.636366">
        <ele>1552.43729</ele>
        <time>2021-07-09T13:15:27.000Z</time>
      </trkpt>
      <trkpt lat="45.443687" lon="7.636411">
        <ele>1553.30274</ele>
        <time>2021-07-09T13:15:33.000Z</time>
      </trkpt>
      <trkpt lat="45.443699" lon="7.636454">
        <ele>1554.18441</ele>
        <time>2021-07-09T13:15:39.000Z</time>
      </trkpt>
      <trkpt lat="45.443715" lon="7.636479">
        <ele>1554.94483</ele>
        <time>2021-07-09T13:15:45.000Z</time>
      </trkpt>
      <trkpt lat="45.443736" lon="7.636515">
        <ele>1555.98379</ele>
        <time>2021-07-09T13:15:51.000Z</time>
      </trkpt>
      <trkpt lat="45.443748" lon="7.63656">
        <ele>1556.87866</ele>
        <time>2021-07-09T13:15:57.000Z</time>
      </trkpt>
      <trkpt lat="45.443758" lon="7.636592">
        <ele>1557.57799</ele>
        <time>2021-07-09T13:16:03.000Z</time>
      </trkpt>
      <trkpt lat="45.443779" lon="7.636619">
        <ele>1558.63464</ele>
        <time>2021-07-09T13:16:09.000Z</time>
      </trkpt>
      <trkpt lat="45.443794" lon="7.636642">
        <ele>1559.47124</ele>
        <time>2021-07-09T13:16:15.000Z</time>
      </trkpt>
      <trkpt lat="45.443794" lon="7.636647">
        <ele>1559.53483</ele>
        <time>2021-07-09T13:16:21.000Z</time>
      </trkpt>
      <trkpt lat="45.443793" lon="7.636646">
        <ele>1559.48478</ele>
        <time>2021-07-09T13:16:33.000Z</time>
      </trkpt>
      <trkpt lat="45.443834" lon="7.636682">
        <ele>1561.51522</ele>
        <time>2021-07-09T13:16:39.000Z</time>
      </trkpt>
      <trkpt lat="45.443858" lon="7.636712">
        <ele>1562.83325</ele>
        <time>2021-07-09T13:16:45.000Z</time>
      </trkpt>
      <trkpt lat="45.443885" lon="7.636723">
        <ele>1563.99243</ele>
        <time>2021-07-09T13:16:51.000Z</time>
      </trkpt>
      <trkpt lat="45.443905" lon="7.636742">
        <ele>1564.9851</ele>
        <time>2021-07-09T13:16:57.000Z</time>
      </trkpt>
      <trkpt lat="45.443921" lon="7.636756">
        <ele>1565.75251</ele>
        <time>2021-07-09T13:17:03.000Z</time>
      </trkpt>
      <trkpt lat="45.443945" lon="7.63677">
        <ele>1566.80383</ele>
        <time>2021-07-09T13:17:09.000Z</time>
      </trkpt>
      <trkpt lat="45.443966" lon="7.636769">
        <ele>1567.53902</ele>
        <time>2021-07-09T13:17:15.000Z</time>
      </trkpt>
      <trkpt lat="45.443963" lon="7.636762">
        <ele>1567.3359</ele>
        <time>2021-07-09T13:17:21.000Z</time>
      </trkpt>
      <trkpt lat="45.443982" lon="7.636766">
        <ele>1568.0559</ele>
        <time>2021-07-09T13:17:39.000Z</time>
      </trkpt>
      <trkpt lat="45.444008" lon="7.636781">
        <ele>1569.17411</ele>
        <time>2021-07-09T13:17:45.000Z</time>
      </trkpt>
      <trkpt lat="45.444042" lon="7.636781">
        <ele>1570.32356</ele>
        <time>2021-07-09T13:17:51.000Z</time>
      </trkpt>
      <trkpt lat="45.444082" lon="7.636762">
        <ele>1571.28334</ele>
        <time>2021-07-09T13:17:57.000Z</time>
      </trkpt>
      <trkpt lat="45.444113" lon="7.636778">
        <ele>1572.50151</ele>
        <time>2021-07-09T13:18:03.000Z</time>
      </trkpt>
      <trkpt lat="45.444134" lon="7.636787">
        <ele>1573.28847</ele>
        <time>2021-07-09T13:18:09.000Z</time>
      </trkpt>
      <trkpt lat="45.444164" lon="7.636804">
        <ele>1574.48397</ele>
        <time>2021-07-09T13:18:15.000Z</time>
      </trkpt>
      <trkpt lat="45.444198" lon="7.636808">
        <ele>1575.56118</ele>
        <time>2021-07-09T13:18:21.000Z</time>
      </trkpt>
      <trkpt lat="45.444231" lon="7.636799">
        <ele>1576.37586</ele>
        <time>2021-07-09T13:18:27.000Z</time>
      </trkpt>
      <trkpt lat="45.444263" lon="7.636808">
        <ele>1577.50157</ele>
        <time>2021-07-09T13:18:33.000Z</time>
      </trkpt>
      <trkpt lat="45.444291" lon="7.636809">
        <ele>1578.35119</ele>
        <time>2021-07-09T13:18:39.000Z</time>
      </trkpt>
      <trkpt lat="45.444319" lon="7.636801">
        <ele>1579.02113</ele>
        <time>2021-07-09T13:18:45.000Z</time>
      </trkpt>
      <trkpt lat="45.444354" lon="7.636785">
        <ele>1579.72018</ele>
        <time>2021-07-09T13:18:51.000Z</time>
      </trkpt>
      <trkpt lat="45.444371" lon="7.636762">
        <ele>1579.78908</ele>
        <time>2021-07-09T13:18:57.000Z</time>
      </trkpt>
      <trkpt lat="45.444366" lon="7.63677">
        <ele>1579.78961</ele>
        <time>2021-07-09T13:19:03.000Z</time>
      </trkpt>
      <trkpt lat="45.444372" lon="7.636767">
        <ele>1579.89752</ele>
        <time>2021-07-09T13:19:09.000Z</time>
      </trkpt>
      <trkpt lat="45.444407" lon="7.636772">
        <ele>1580.84286</ele>
        <time>2021-07-09T13:19:27.000Z</time>
      </trkpt>
      <trkpt lat="45.444447" lon="7.636766">
        <ele>1581.63396</ele>
        <time>2021-07-09T13:19:33.000Z</time>
      </trkpt>
      <trkpt lat="45.44447" lon="7.636771">
        <ele>1582.18594</ele>
        <time>2021-07-09T13:19:39.000Z</time>
      </trkpt>
      <trkpt lat="45.444503" lon="7.636794">
        <ele>1583.19018</ele>
        <time>2021-07-09T13:19:45.000Z</time>
      </trkpt>
      <trkpt lat="45.444531" lon="7.63682">
        <ele>1584.1223</ele>
        <time>2021-07-09T13:19:51.000Z</time>
      </trkpt>
      <trkpt lat="45.444562" lon="7.636837">
        <ele>1584.952</ele>
        <time>2021-07-09T13:19:57.000Z</time>
      </trkpt>
      <trkpt lat="45.444594" lon="7.636857">
        <ele>1585.84237</ele>
        <time>2021-07-09T13:20:03.000Z</time>
      </trkpt>
      <trkpt lat="45.444628" lon="7.636874">
        <ele>1586.69666</ele>
        <time>2021-07-09T13:20:09.000Z</time>
      </trkpt>
      <trkpt lat="45.444643" lon="7.636891">
        <ele>1587.2316</ele>
        <time>2021-07-09T13:20:15.000Z</time>
      </trkpt>
      <trkpt lat="45.444656" lon="7.636905">
        <ele>1587.68286</ele>
        <time>2021-07-09T13:20:21.000Z</time>
      </trkpt>
      <trkpt lat="45.444656" lon="7.636907">
        <ele>1587.71838</ele>
        <time>2021-07-09T13:20:27.000Z</time>
      </trkpt>
      <trkpt lat="45.444673" lon="7.636931">
        <ele>1588.41196</ele>
        <time>2021-07-09T13:20:39.000Z</time>
      </trkpt>
      <trkpt lat="45.444706" lon="7.636965">
        <ele>1589.52188</ele>
        <time>2021-07-09T13:20:45.000Z</time>
      </trkpt>
      <trkpt lat="45.444723" lon="7.637009">
        <ele>1590.59183</ele>
        <time>2021-07-09T13:20:51.000Z</time>
      </trkpt>
      <trkpt lat="45.444724" lon="7.637056">
        <ele>1591.53848</ele>
        <time>2021-07-09T13:20:57.000Z</time>
      </trkpt>
      <trkpt lat="45.444732" lon="7.637089">
        <ele>1592.30546</ele>
        <time>2021-07-09T13:21:03.000Z</time>
      </trkpt>
      <trkpt lat="45.44474" lon="7.637142">
        <ele>1593.49605</ele>
        <time>2021-07-09T13:21:09.000Z</time>
      </trkpt>
      <trkpt lat="45.444746" lon="7.637188">
        <ele>1594.53725</ele>
        <time>2021-07-09T13:21:15.000Z</time>
      </trkpt>
      <trkpt lat="45.444744" lon="7.637221">
        <ele>1595.23452</ele>
        <time>2021-07-09T13:21:21.000Z</time>
      </trkpt>
      <trkpt lat="45.444749" lon="7.637261">
        <ele>1596.17599</ele>
        <time>2021-07-09T13:21:27.000Z</time>
      </trkpt>
      <trkpt lat="45.444753" lon="7.637303">
        <ele>1597.19467</ele>
        <time>2021-07-09T13:21:33.000Z</time>
      </trkpt>
      <trkpt lat="45.444749" lon="7.637344">
        <ele>1598.12378</ele>
        <time>2021-07-09T13:21:39.000Z</time>
      </trkpt>
      <trkpt lat="45.444743" lon="7.637371">
        <ele>1598.69956</ele>
        <time>2021-07-09T13:21:45.000Z</time>
      </trkpt>
      <trkpt lat="45.444749" lon="7.637364">
        <ele>1598.6035</ele>
        <time>2021-07-09T13:21:51.000Z</time>
      </trkpt>
      <trkpt lat="45.444749" lon="7.637368">
        <ele>1598.69961</ele>
        <time>2021-07-09T13:21:57.000Z</time>
      </trkpt>
      <trkpt lat="45.444746" lon="7.637413">
        <ele>1599.74035</ele>
        <time>2021-07-09T13:22:03.000Z</time>
      </trkpt>
      <trkpt lat="45.444756" lon="7.63746">
        <ele>1601.00051</ele>
        <time>2021-07-09T13:22:09.000Z</time>
      </trkpt>
      <trkpt lat="45.444763" lon="7.637508">
        <ele>1602.2334</ele>
        <time>2021-07-09T13:22:15.000Z</time>
      </trkpt>
      <trkpt lat="45.444795" lon="7.637546">
        <ele>1603.74717</ele>
        <time>2021-07-09T13:22:21.000Z</time>
      </trkpt>
      <trkpt lat="45.444817" lon="7.637574">
        <ele>1604.93315</ele>
        <time>2021-07-09T13:22:27.000Z</time>
      </trkpt>
      <trkpt lat="45.444846" lon="7.637584">
        <ele>1605.9365</ele>
        <time>2021-07-09T13:22:33.000Z</time>
      </trkpt>
      <trkpt lat="45.44485" lon="7.637574">
        <ele>1605.78734</ele>
        <time>2021-07-09T13:22:39.000Z</time>
      </trkpt>
      <trkpt lat="45.444878" lon="7.637569">
        <ele>1606.40493</ele>
        <time>2021-07-09T13:22:45.000Z</time>
      </trkpt>
      <trkpt lat="45.444912" lon="7.63757">
        <ele>1607.33</ele>
        <time>2021-07-09T13:22:51.000Z</time>
      </trkpt>
      <trkpt lat="45.444949" lon="7.637577">
        <ele>1608.43112</ele>
        <time>2021-07-09T13:22:57.000Z</time>
      </trkpt>
      <trkpt lat="45.444982" lon="7.637572">
        <ele>1609.12959</ele>
        <time>2021-07-09T13:23:03.000Z</time>
      </trkpt>
      <trkpt lat="45.445015" lon="7.637572">
        <ele>1609.97937</ele>
        <time>2021-07-09T13:23:09.000Z</time>
      </trkpt>
      <trkpt lat="45.445045" lon="7.637578">
        <ele>1610.82091</ele>
        <time>2021-07-09T13:23:15.000Z</time>
      </trkpt>
      <trkpt lat="45.445066" lon="7.6376">
        <ele>1611.61444</ele>
        <time>2021-07-09T13:23:21.000Z</time>
      </trkpt>
      <trkpt lat="45.445084" lon="7.637631">
        <ele>1612.33774</ele>
        <time>2021-07-09T13:23:27.000Z</time>
      </trkpt>
      <trkpt lat="45.445092" lon="7.637671">
        <ele>1612.95378</ele>
        <time>2021-07-09T13:23:33.000Z</time>
      </trkpt>
      <trkpt lat="45.445092" lon="7.637712">
        <ele>1613.50913</ele>
        <time>2021-07-09T13:23:39.000Z</time>
      </trkpt>
      <trkpt lat="45.445083" lon="7.637771">
        <ele>1614.32477</ele>
        <time>2021-07-09T13:23:45.000Z</time>
      </trkpt>
      <trkpt lat="45.445079" lon="7.637803">
        <ele>1614.77702</ele>
        <time>2021-07-09T13:23:51.000Z</time>
      </trkpt>
      <trkpt lat="45.445083" lon="7.637794">
        <ele>1614.66563</ele>
        <time>2021-07-09T13:23:57.000Z</time>
      </trkpt>
      <trkpt lat="45.445076" lon="7.637813">
        <ele>1614.90968</ele>
        <time>2021-07-09T13:24:03.000Z</time>
      </trkpt>
      <trkpt lat="45.445065" lon="7.637873">
        <ele>1615.7547</ele>
        <time>2021-07-09T13:24:09.000Z</time>
      </trkpt>
      <trkpt lat="45.445058" lon="7.637925">
        <ele>1616.52416</ele>
        <time>2021-07-09T13:24:15.000Z</time>
      </trkpt>
      <trkpt lat="45.445065" lon="7.637972">
        <ele>1617.31481</ele>
        <time>2021-07-09T13:24:21.000Z</time>
      </trkpt>
      <trkpt lat="45.445072" lon="7.638013">
        <ele>1618.06003</ele>
        <time>2021-07-09T13:24:27.000Z</time>
      </trkpt>
      <trkpt lat="45.445079" lon="7.638056">
        <ele>1618.88624</ele>
        <time>2021-07-09T13:24:33.000Z</time>
      </trkpt>
      <trkpt lat="45.445087" lon="7.63811">
        <ele>1619.99275</ele>
        <time>2021-07-09T13:24:39.000Z</time>
      </trkpt>
      <trkpt lat="45.445096" lon="7.638154">
        <ele>1620.98828</ele>
        <time>2021-07-09T13:24:45.000Z</time>
      </trkpt>
      <trkpt lat="45.445096" lon="7.638162">
        <ele>1621.15294</ele>
        <time>2021-07-09T13:24:51.000Z</time>
      </trkpt>
      <trkpt lat="45.445091" lon="7.638159">
        <ele>1621.02297</ele>
        <time>2021-07-09T13:24:57.000Z</time>
      </trkpt>
      <trkpt lat="45.445108" lon="7.638182">
        <ele>1621.75054</ele>
        <time>2021-07-09T13:25:15.000Z</time>
      </trkpt>
      <trkpt lat="45.445116" lon="7.63822">
        <ele>1622.69796</ele>
        <time>2021-07-09T13:25:21.000Z</time>
      </trkpt>
      <trkpt lat="45.445126" lon="7.638256">
        <ele>1623.66073</ele>
        <time>2021-07-09T13:25:27.000Z</time>
      </trkpt>
      <trkpt lat="45.445134" lon="7.638295">
        <ele>1624.67881</ele>
        <time>2021-07-09T13:25:33.000Z</time>
      </trkpt>
      <trkpt lat="45.445144" lon="7.638328">
        <ele>1625.62922</ele>
        <time>2021-07-09T13:25:39.000Z</time>
      </trkpt>
      <trkpt lat="45.445151" lon="7.63837">
        <ele>1626.73355</ele>
        <time>2021-07-09T13:25:45.000Z</time>
      </trkpt>
      <trkpt lat="45.445165" lon="7.638411">
        <ele>1627.98832</ele>
        <time>2021-07-09T13:25:51.000Z</time>
      </trkpt>
      <trkpt lat="45.445179" lon="7.638442">
        <ele>1629.02755</ele>
        <time>2021-07-09T13:25:57.000Z</time>
      </trkpt>
      <trkpt lat="45.445182" lon="7.638444">
        <ele>1629.14609</ele>
        <time>2021-07-09T13:26:03.000Z</time>
      </trkpt>
      <trkpt lat="45.445182" lon="7.638442">
        <ele>1629.10087</ele>
        <time>2021-07-09T13:26:15.000Z</time>
      </trkpt>
      <trkpt lat="45.445191" lon="7.638486">
        <ele>1630.31363</ele>
        <time>2021-07-09T13:26:21.000Z</time>
      </trkpt>
      <trkpt lat="45.44521" lon="7.638529">
        <ele>1631.74708</ele>
        <time>2021-07-09T13:26:27.000Z</time>
      </trkpt>
      <trkpt lat="45.445223" lon="7.638555">
        <ele>1632.64922</ele>
        <time>2021-07-09T13:26:33.000Z</time>
      </trkpt>
      <trkpt lat="45.445243" lon="7.638586">
        <ele>1633.82232</ele>
        <time>2021-07-09T13:26:39.000Z</time>
      </trkpt>
      <trkpt lat="45.445266" lon="7.638624">
        <ele>1635.17914</ele>
        <time>2021-07-09T13:26:45.000Z</time>
      </trkpt>
      <trkpt lat="45.445282" lon="7.63865">
        <ele>1636.07075</ele>
        <time>2021-07-09T13:26:51.000Z</time>
      </trkpt>
      <trkpt lat="45.44529" lon="7.638672">
        <ele>1636.67177</ele>
        <time>2021-07-09T13:26:57.000Z</time>
      </trkpt>
      <trkpt lat="45.445312" lon="7.638708">
        <ele>1637.77357</ele>
        <time>2021-07-09T13:27:03.000Z</time>
      </trkpt>
      <trkpt lat="45.445324" lon="7.638704">
        <ele>1637.93787</ele>
        <time>2021-07-09T13:27:09.000Z</time>
      </trkpt>
      <trkpt lat="45.445337" lon="7.638714">
        <ele>1638.34859</ele>
        <time>2021-07-09T13:27:15.000Z</time>
        <extensions>
          <oa:locType>calcWayPoint</oa:locType>
        </extensions>
      </trkpt>
      <trkpt lat="45.445368" lon="7.638746">
        <ele>1639.36674</ele>
        <time>2021-07-09T13:27:21.000Z</time>
      </trkpt>
      <trkpt lat="45.445398" lon="7.638781">
        <ele>1640.28767</ele>
        <time>2021-07-09T13:27:27.000Z</time>
      </trkpt>
      <trkpt lat="45.445422" lon="7.638807">
        <ele>1640.92705</ele>
        <time>2021-07-09T13:27:33.000Z</time>
      </trkpt>
      <trkpt lat="45.445449" lon="7.638842">
        <ele>1641.63945</ele>
        <time>2021-07-09T13:27:39.000Z</time>
      </trkpt>
      <trkpt lat="45.445485" lon="7.638866">
        <ele>1642.32118</ele>
        <time>2021-07-09T13:27:45.000Z</time>
      </trkpt>
      <trkpt lat="45.445524" lon="7.638879">
        <ele>1642.97952</ele>
        <time>2021-07-09T13:27:51.000Z</time>
      </trkpt>
      <trkpt lat="45.445552" lon="7.638904">
        <ele>1643.57094</ele>
        <time>2021-07-09T13:27:57.000Z</time>
      </trkpt>
      <trkpt lat="45.445568" lon="7.638934">
        <ele>1643.99305</ele>
        <time>2021-07-09T13:28:03.000Z</time>
      </trkpt>
      <trkpt lat="45.445598" lon="7.638965">
        <ele>1644.63182</ele>
        <time>2021-07-09T13:28:09.000Z</time>
      </trkpt>
      <trkpt lat="45.445622" lon="7.639002">
        <ele>1645.17708</ele>
        <time>2021-07-09T13:28:15.000Z</time>
      </trkpt>
      <trkpt lat="45.445637" lon="7.639049">
        <ele>1645.5548</ele>
        <time>2021-07-09T13:28:21.000Z</time>
      </trkpt>
      <trkpt lat="45.445663" lon="7.6391">
        <ele>1646.07517</ele>
        <time>2021-07-09T13:28:27.000Z</time>
      </trkpt>
      <trkpt lat="45.445697" lon="7.639133">
        <ele>1646.70332</ele>
        <time>2021-07-09T13:28:32.000Z</time>
      </trkpt>
      <trkpt lat="45.445735" lon="7.639146">
        <ele>1647.46269</ele>
        <time>2021-07-09T13:28:38.000Z</time>
      </trkpt>
      <trkpt lat="45.445769" lon="7.639153">
        <ele>1648.18579</ele>
        <time>2021-07-09T13:28:43.000Z</time>
      </trkpt>
      <trkpt lat="45.445811" lon="7.639162">
        <ele>1649.10114</ele>
        <time>2021-07-09T13:28:49.000Z</time>
      </trkpt>
      <trkpt lat="45.445854" lon="7.639162">
        <ele>1650.06548</ele>
        <time>2021-07-09T13:28:55.000Z</time>
      </trkpt>
      <trkpt lat="45.445897" lon="7.639168">
        <ele>1650.99105</ele>
        <time>2021-07-09T13:29:01.000Z</time>
      </trkpt>
      <trkpt lat="45.445933" lon="7.639165">
        <ele>1651.79812</ele>
        <time>2021-07-09T13:29:06.000Z</time>
      </trkpt>
      <trkpt lat="45.445978" lon="7.639173">
        <ele>1652.77483</ele>
        <time>2021-07-09T13:29:12.000Z</time>
      </trkpt>
      <trkpt lat="45.446012" lon="7.639168">
        <ele>1653.59294</ele>
        <time>2021-07-09T13:29:18.000Z</time>
      </trkpt>
      <trkpt lat="45.446041" lon="7.639165">
        <ele>1654.31242</ele>
        <time>2021-07-09T13:29:24.000Z</time>
      </trkpt>
      <trkpt lat="45.446074" lon="7.63917">
        <ele>1655.1371</ele>
        <time>2021-07-09T13:29:30.000Z</time>
      </trkpt>
      <trkpt lat="45.44611" lon="7.639176">
        <ele>1656.08457</ele>
        <time>2021-07-09T13:29:36.000Z</time>
      </trkpt>
      <trkpt lat="45.446141" lon="7.63918">
        <ele>1656.92517</ele>
        <time>2021-07-09T13:29:42.000Z</time>
      </trkpt>
      <trkpt lat="45.446159" lon="7.63917">
        <ele>1657.47617</ele>
        <time>2021-07-09T13:29:48.000Z</time>
      </trkpt>
      <trkpt lat="45.446147" lon="7.639177">
        <ele>1657.10841</ele>
        <time>2021-07-09T13:29:54.000Z</time>
      </trkpt>
      <trkpt lat="45.446164" lon="7.639154">
        <ele>1657.68079</ele>
        <time>2021-07-09T13:30:00.000Z</time>
      </trkpt>
      <trkpt lat="45.446199" lon="7.639152">
        <ele>1658.63079</ele>
        <time>2021-07-09T13:30:06.000Z</time>
      </trkpt>
      <trkpt lat="45.446234" lon="7.639152">
        <ele>1659.5225</ele>
        <time>2021-07-09T13:30:11.000Z</time>
      </trkpt>
      <trkpt lat="45.446277" lon="7.639142">
        <ele>1660.59284</ele>
        <time>2021-07-09T13:30:17.000Z</time>
      </trkpt>
      <trkpt lat="45.446306" lon="7.639135">
        <ele>1661.29724</ele>
        <time>2021-07-09T13:30:22.000Z</time>
      </trkpt>
      <trkpt lat="45.446338" lon="7.639117">
        <ele>1662.10988</ele>
        <time>2021-07-09T13:30:27.000Z</time>
      </trkpt>
      <trkpt lat="45.446373" lon="7.639103">
        <ele>1663.00491</ele>
        <time>2021-07-09T13:30:33.000Z</time>
      </trkpt>
      <trkpt lat="45.446404" lon="7.639111">
        <ele>1663.75153</ele>
        <time>2021-07-09T13:30:39.000Z</time>
      </trkpt>
      <trkpt lat="45.446436" lon="7.63911">
        <ele>1664.59834</ele>
        <time>2021-07-09T13:30:45.000Z</time>
      </trkpt>
      <trkpt lat="45.446442" lon="7.639118">
        <ele>1664.70742</ele>
        <time>2021-07-09T13:30:51.000Z</time>
      </trkpt>
      <trkpt lat="45.446438" lon="7.639128">
        <ele>1664.53246</ele>
        <time>2021-07-09T13:30:57.000Z</time>
      </trkpt>
      <trkpt lat="45.446461" lon="7.639122">
        <ele>1665.18597</ele>
        <time>2021-07-09T13:31:03.000Z</time>
      </trkpt>
      <trkpt lat="45.446512" lon="7.639112">
        <ele>1666.64617</ele>
        <time>2021-07-09T13:31:09.000Z</time>
      </trkpt>
      <trkpt lat="45.446551" lon="7.639096">
        <ele>1667.84592</ele>
        <time>2021-07-09T13:31:15.000Z</time>
      </trkpt>
      <trkpt lat="45.446577" lon="7.63907">
        <ele>1668.80664</ele>
        <time>2021-07-09T13:31:21.000Z</time>
      </trkpt>
      <trkpt lat="45.446612" lon="7.639049">
        <ele>1669.90798</ele>
        <time>2021-07-09T13:31:27.000Z</time>
      </trkpt>
      <trkpt lat="45.446644" lon="7.639033">
        <ele>1670.86254</ele>
        <time>2021-07-09T13:31:33.000Z</time>
      </trkpt>
      <trkpt lat="45.446677" lon="7.639013">
        <ele>1671.89217</ele>
        <time>2021-07-09T13:31:39.000Z</time>
      </trkpt>
      <trkpt lat="45.446704" lon="7.638987">
        <ele>1672.85599</ele>
        <time>2021-07-09T13:31:45.000Z</time>
      </trkpt>
      <trkpt lat="45.446727" lon="7.63897">
        <ele>1673.61269</ele>
        <time>2021-07-09T13:31:51.000Z</time>
      </trkpt>
      <trkpt lat="45.446743" lon="7.638935">
        <ele>1674.39579</ele>
        <time>2021-07-09T13:31:57.000Z</time>
      </trkpt>
      <trkpt lat="45.446756" lon="7.638913">
        <ele>1674.9761</ele>
        <time>2021-07-09T13:32:03.000Z</time>
      </trkpt>
      <trkpt lat="45.446753" lon="7.63892">
        <ele>1674.82092</ele>
        <time>2021-07-09T13:32:09.000Z</time>
      </trkpt>
      <trkpt lat="45.446769" lon="7.638902">
        <ele>1675.43902</ele>
        <time>2021-07-09T13:32:15.000Z</time>
      </trkpt>
      <trkpt lat="45.446801" lon="7.638866">
        <ele>1676.65138</ele>
        <time>2021-07-09T13:32:21.000Z</time>
      </trkpt>
      <trkpt lat="45.44682" lon="7.63885">
        <ele>1677.30734</ele>
        <time>2021-07-09T13:32:26.000Z</time>
      </trkpt>
      <trkpt lat="45.446841" lon="7.638829">
        <ele>1678.07193</ele>
        <time>2021-07-09T13:32:31.000Z</time>
      </trkpt>
      <trkpt lat="45.446875" lon="7.638818">
        <ele>1679.0831</ele>
        <time>2021-07-09T13:32:37.000Z</time>
      </trkpt>
      <trkpt lat="45.446914" lon="7.638806">
        <ele>1680.29232</ele>
        <time>2021-07-09T13:32:43.000Z</time>
      </trkpt>
      <trkpt lat="45.446956" lon="7.638793">
        <ele>1681.68925</ele>
        <time>2021-07-09T13:32:49.000Z</time>
      </trkpt>
      <trkpt lat="45.446986" lon="7.638781">
        <ele>1682.72391</ele>
        <time>2021-07-09T13:32:54.000Z</time>
      </trkpt>
      <trkpt lat="45.447015" lon="7.638765">
        <ele>1683.76307</ele>
        <time>2021-07-09T13:32:59.000Z</time>
      </trkpt>
      <trkpt lat="45.447032" lon="7.638732">
        <ele>1684.57513</ele>
        <time>2021-07-09T13:33:05.000Z</time>
      </trkpt>
      <trkpt lat="45.447045" lon="7.638696">
        <ele>1685.21328</ele>
        <time>2021-07-09T13:33:10.000Z</time>
      </trkpt>
      <trkpt lat="45.447056" lon="7.638666">
        <ele>1685.74298</ele>
        <time>2021-07-09T13:33:15.000Z</time>
      </trkpt>
      <trkpt lat="45.44707" lon="7.638649">
        <ele>1686.31926</ele>
        <time>2021-07-09T13:33:21.000Z</time>
      </trkpt>
      <trkpt lat="45.447076" lon="7.638612">
        <ele>1686.74505</ele>
        <time>2021-07-09T13:33:27.000Z</time>
      </trkpt>
      <trkpt lat="45.447089" lon="7.638576">
        <ele>1687.40808</ele>
        <time>2021-07-09T13:33:33.000Z</time>
      </trkpt>
      <trkpt lat="45.447118" lon="7.638547">
        <ele>1688.6495</ele>
        <time>2021-07-09T13:33:39.000Z</time>
      </trkpt>
      <trkpt lat="45.447147" lon="7.638527">
        <ele>1689.80618</ele>
        <time>2021-07-09T13:33:45.000Z</time>
      </trkpt>
      <trkpt lat="45.447178" lon="7.638533">
        <ele>1690.93232</ele>
        <time>2021-07-09T13:33:51.000Z</time>
      </trkpt>
      <trkpt lat="45.447199" lon="7.638545">
        <ele>1691.66894</ele>
        <time>2021-07-09T13:33:57.000Z</time>
      </trkpt>
      <trkpt lat="45.447224" lon="7.638559">
        <ele>1692.5457</ele>
        <time>2021-07-09T13:34:03.000Z</time>
      </trkpt>
      <trkpt lat="45.447249" lon="7.638586">
        <ele>1693.40869</ele>
        <time>2021-07-09T13:34:09.000Z</time>
      </trkpt>
      <trkpt lat="45.447254" lon="7.638599">
        <ele>1693.56433</ele>
        <time>2021-07-09T13:34:15.000Z</time>
      </trkpt>
      <trkpt lat="45.44725" lon="7.638592">
        <ele>1693.43353</ele>
        <time>2021-07-09T13:34:21.000Z</time>
      </trkpt>
      <trkpt lat="45.447267" lon="7.63862">
        <ele>1693.98319</ele>
        <time>2021-07-09T13:34:45.000Z</time>
      </trkpt>
      <trkpt lat="45.4473" lon="7.638625">
        <ele>1695.12539</ele>
        <time>2021-07-09T13:34:51.000Z</time>
      </trkpt>
      <trkpt lat="45.447333" lon="7.638628">
        <ele>1696.18719</ele>
        <time>2021-07-09T13:34:57.000Z</time>
      </trkpt>
      <trkpt lat="45.447365" lon="7.638639">
        <ele>1697.10774</ele>
        <time>2021-07-09T13:35:03.000Z</time>
      </trkpt>
      <trkpt lat="45.447399" lon="7.638639">
        <ele>1698.08184</ele>
        <time>2021-07-09T13:35:09.000Z</time>
      </trkpt>
      <trkpt lat="45.447433" lon="7.63862">
        <ele>1699.17001</ele>
        <time>2021-07-09T13:35:15.000Z</time>
      </trkpt>
      <trkpt lat="45.447471" lon="7.638592">
        <ele>1700.4658</ele>
        <time>2021-07-09T13:35:21.000Z</time>
      </trkpt>
      <trkpt lat="45.4475" lon="7.638569">
        <ele>1701.44925</ele>
        <time>2021-07-09T13:35:27.000Z</time>
      </trkpt>
      <trkpt lat="45.447525" lon="7.638548">
        <ele>1702.26467</ele>
        <time>2021-07-09T13:35:33.000Z</time>
      </trkpt>
      <trkpt lat="45.44755" lon="7.638531">
        <ele>1703.02954</ele>
        <time>2021-07-09T13:35:39.000Z</time>
      </trkpt>
      <trkpt lat="45.447567" lon="7.638506">
        <ele>1703.6446</ele>
        <time>2021-07-09T13:35:45.000Z</time>
      </trkpt>
      <trkpt lat="45.447587" lon="7.638469">
        <ele>1704.41443</ele>
        <time>2021-07-09T13:35:51.000Z</time>
      </trkpt>
      <trkpt lat="45.447609" lon="7.638435">
        <ele>1705.21766</ele>
        <time>2021-07-09T13:35:57.000Z</time>
      </trkpt>
      <trkpt lat="45.447627" lon="7.638422">
        <ele>1705.80455</ele>
        <time>2021-07-09T13:36:03.000Z</time>
      </trkpt>
      <trkpt lat="45.447622" lon="7.638424">
        <ele>1705.65109</ele>
        <time>2021-07-09T13:36:09.000Z</time>
      </trkpt>
      <trkpt lat="45.447622" lon="7.638425">
        <ele>1705.64355</ele>
        <time>2021-07-09T13:36:20.000Z</time>
      </trkpt>
      <trkpt lat="45.447627" lon="7.638434">
        <ele>1705.71683</ele>
        <time>2021-07-09T13:36:48.000Z</time>
      </trkpt>
      <trkpt lat="45.447631" lon="7.638437">
        <ele>1705.80674</ele>
        <time>2021-07-09T13:36:53.000Z</time>
      </trkpt>
      <trkpt lat="45.447617" lon="7.638446">
        <ele>1705.36594</ele>
        <time>2021-07-09T13:37:03.000Z</time>
      </trkpt>
      <trkpt lat="45.447614" lon="7.638435">
        <ele>1705.35435</ele>
        <time>2021-07-09T13:37:09.000Z</time>
      </trkpt>
      <trkpt lat="45.447605" lon="7.638411">
        <ele>1705.27953</ele>
        <time>2021-07-09T13:37:15.000Z</time>
      </trkpt>
      <trkpt lat="45.447615" lon="7.638401">
        <ele>1705.64722</ele>
        <time>2021-07-09T13:37:21.000Z</time>
      </trkpt>
      <trkpt lat="45.44761" lon="7.63839">
        <ele>1705.60386</ele>
        <time>2021-07-09T13:37:27.000Z</time>
      </trkpt>
      <trkpt lat="45.44759" lon="7.638349">
        <ele>1705.35625</ele>
        <time>2021-07-09T13:37:33.000Z</time>
      </trkpt>
      <trkpt lat="45.447584" lon="7.638351">
        <ele>1705.14285</ele>
        <time>2021-07-09T13:37:39.000Z</time>
      </trkpt>
      <trkpt lat="45.447585" lon="7.638357">
        <ele>1705.12854</ele>
        <time>2021-07-09T13:37:45.000Z</time>
      </trkpt>
      <trkpt lat="45.447614" lon="7.638411">
        <ele>1705.53257</ele>
        <time>2021-07-09T13:38:33.000Z</time>
      </trkpt>
      <trkpt lat="45.447625" lon="7.63842">
        <ele>1705.76509</ele>
        <time>2021-07-09T13:38:39.000Z</time>
      </trkpt>
      <trkpt lat="45.447627" lon="7.638418">
        <ele>1705.83662</ele>
        <time>2021-07-09T13:38:45.000Z</time>
      </trkpt>
      <trkpt lat="45.447627" lon="7.638402">
        <ele>1705.97675</ele>
        <time>2021-07-09T13:38:57.000Z</time>
      </trkpt>
      <trkpt lat="45.447668" lon="7.638379">
        <ele>1707.33591</ele>
        <time>2021-07-09T13:39:03.000Z</time>
      </trkpt>
      <trkpt lat="45.4477" lon="7.638376">
        <ele>1708.15392</ele>
        <time>2021-07-09T13:39:09.000Z</time>
      </trkpt>
      <trkpt lat="45.44773" lon="7.63838">
        <ele>1708.80807</ele>
        <time>2021-07-09T13:39:15.000Z</time>
      </trkpt>
      <trkpt lat="45.447769" lon="7.638376">
        <ele>1709.70409</ele>
        <time>2021-07-09T13:39:21.000Z</time>
      </trkpt>
      <trkpt lat="45.447806" lon="7.638371">
        <ele>1710.56734</ele>
        <time>2021-07-09T13:39:27.000Z</time>
      </trkpt>
      <trkpt lat="45.44784" lon="7.638371">
        <ele>1711.41895</ele>
        <time>2021-07-09T13:39:33.000Z</time>
      </trkpt>
      <trkpt lat="45.447874" lon="7.638397">
        <ele>1712.41169</ele>
        <time>2021-07-09T13:39:39.000Z</time>
      </trkpt>
      <trkpt lat="45.447892" lon="7.638399">
        <ele>1712.94153</ele>
        <time>2021-07-09T13:39:45.000Z</time>
      </trkpt>
      <trkpt lat="45.447913" lon="7.638406">
        <ele>1713.61302</ele>
        <time>2021-07-09T13:39:51.000Z</time>
      </trkpt>
      <trkpt lat="45.447948" lon="7.638426">
        <ele>1714.90087</ele>
        <time>2021-07-09T13:39:57.000Z</time>
      </trkpt>
      <trkpt lat="45.447971" lon="7.638435">
        <ele>1715.77609</ele>
        <time>2021-07-09T13:40:03.000Z</time>
      </trkpt>
      <trkpt lat="45.44798" lon="7.638448">
        <ele>1716.25451</ele>
        <time>2021-07-09T13:40:09.000Z</time>
      </trkpt>
      <trkpt lat="45.447994" lon="7.638468">
        <ele>1717.03895</ele>
        <time>2021-07-09T13:40:15.000Z</time>
      </trkpt>
      <trkpt lat="45.448002" lon="7.638468">
        <ele>1717.33327</ele>
        <time>2021-07-09T13:40:21.000Z</time>
      </trkpt>
      <trkpt lat="45.448013" lon="7.638474">
        <ele>1717.8334</ele>
        <time>2021-07-09T13:40:27.000Z</time>
      </trkpt>
      <trkpt lat="45.448037" lon="7.638496">
        <ele>1719.11845</ele>
        <time>2021-07-09T13:40:33.000Z</time>
      </trkpt>
      <trkpt lat="45.448057" lon="7.638518">
        <ele>1720.30998</ele>
        <time>2021-07-09T13:40:39.000Z</time>
      </trkpt>
      <trkpt lat="45.448065" lon="7.638533">
        <ele>1720.91251</ele>
        <time>2021-07-09T13:40:45.000Z</time>
      </trkpt>
      <trkpt lat="45.448065" lon="7.638535">
        <ele>1720.94945</ele>
        <time>2021-07-09T13:40:51.000Z</time>
      </trkpt>
      <trkpt lat="45.448082" lon="7.638557">
        <ele>1722.06692</ele>
        <time>2021-07-09T13:41:02.000Z</time>
      </trkpt>
      <trkpt lat="45.448099" lon="7.638607">
        <ele>1723.72056</ele>
        <time>2021-07-09T13:41:08.000Z</time>
      </trkpt>
      <trkpt lat="45.448097" lon="7.63864">
        <ele>1724.22412</ele>
        <time>2021-07-09T13:41:13.000Z</time>
      </trkpt>
      <trkpt lat="45.448094" lon="7.638676">
        <ele>1724.68158</ele>
        <time>2021-07-09T13:41:18.000Z</time>
      </trkpt>
      <trkpt lat="45.448111" lon="7.638701">
        <ele>1725.86292</ele>
        <time>2021-07-09T13:41:24.000Z</time>
      </trkpt>
      <trkpt lat="45.448137" lon="7.63869">
        <ele>1726.82349</ele>
        <time>2021-07-09T13:41:30.000Z</time>
      </trkpt>
      <trkpt lat="45.448168" lon="7.63867">
        <ele>1727.73409</ele>
        <time>2021-07-09T13:41:35.000Z</time>
      </trkpt>
      <trkpt lat="45.448191" lon="7.638653">
        <ele>1728.27473</ele>
        <time>2021-07-09T13:41:40.000Z</time>
      </trkpt>
      <trkpt lat="45.448198" lon="7.638653">
        <ele>1728.52131</ele>
        <time>2021-07-09T13:41:45.000Z</time>
      </trkpt>
      <trkpt lat="45.448198" lon="7.638649">
        <ele>1728.44536</ele>
        <time>2021-07-09T13:41:51.000Z</time>
      </trkpt>
      <trkpt lat="45.448218" lon="7.638673">
        <ele>1729.55301</ele>
        <time>2021-07-09T13:41:57.000Z</time>
      </trkpt>
      <trkpt lat="45.448256" lon="7.638687">
        <ele>1730.88208</ele>
        <time>2021-07-09T13:42:03.000Z</time>
      </trkpt>
      <trkpt lat="45.448274" lon="7.63871">
        <ele>1731.73651</ele>
        <time>2021-07-09T13:42:09.000Z</time>
      </trkpt>
      <trkpt lat="45.448296" lon="7.63873">
        <ele>1732.5599</ele>
        <time>2021-07-09T13:42:15.000Z</time>
      </trkpt>
      <trkpt lat="45.448314" lon="7.638758">
        <ele>1733.35226</ele>
        <time>2021-07-09T13:42:21.000Z</time>
      </trkpt>
      <trkpt lat="45.448325" lon="7.63879">
        <ele>1733.99709</ele>
        <time>2021-07-09T13:42:27.000Z</time>
      </trkpt>
      <trkpt lat="45.448322" lon="7.638806">
        <ele>1734.16795</ele>
        <time>2021-07-09T13:42:33.000Z</time>
      </trkpt>
      <trkpt lat="45.44831" lon="7.638839">
        <ele>1734.44312</ele>
        <time>2021-07-09T13:42:39.000Z</time>
      </trkpt>
      <trkpt lat="45.44832" lon="7.638867">
        <ele>1734.82601</ele>
        <time>2021-07-09T13:42:45.000Z</time>
      </trkpt>
      <trkpt lat="45.448348" lon="7.638891">
        <ele>1735.29407</ele>
        <time>2021-07-09T13:42:51.000Z</time>
      </trkpt>
      <trkpt lat="45.448386" lon="7.63892">
        <ele>1736.17203</ele>
        <time>2021-07-09T13:42:57.000Z</time>
      </trkpt>
      <trkpt lat="45.44841" lon="7.63896">
        <ele>1736.93325</ele>
        <time>2021-07-09T13:43:03.000Z</time>
      </trkpt>
      <trkpt lat="45.448434" lon="7.638978">
        <ele>1737.76655</ele>
        <time>2021-07-09T13:43:09.000Z</time>
      </trkpt>
      <trkpt lat="45.44844" lon="7.638993">
        <ele>1738.05447</ele>
        <time>2021-07-09T13:43:15.000Z</time>
      </trkpt>
      <trkpt lat="45.448458" lon="7.638995">
        <ele>1738.75498</ele>
        <time>2021-07-09T13:43:21.000Z</time>
      </trkpt>
      <trkpt lat="45.448489" lon="7.638972">
        <ele>1739.80512</ele>
        <time>2021-07-09T13:43:27.000Z</time>
      </trkpt>
      <trkpt lat="45.448501" lon="7.638969">
        <ele>1740.28402</ele>
        <time>2021-07-09T13:43:33.000Z</time>
      </trkpt>
      <trkpt lat="45.448509" lon="7.638956">
        <ele>1740.48107</ele>
        <time>2021-07-09T13:43:39.000Z</time>
      </trkpt>
      <trkpt lat="45.448537" lon="7.638936">
        <ele>1741.53573</ele>
        <time>2021-07-09T13:43:45.000Z</time>
      </trkpt>
      <trkpt lat="45.448572" lon="7.638925">
        <ele>1743.2842</ele>
        <time>2021-07-09T13:43:51.000Z</time>
      </trkpt>
      <trkpt lat="45.448586" lon="7.638894">
        <ele>1743.76244</ele>
        <time>2021-07-09T13:43:57.000Z</time>
      </trkpt>
      <trkpt lat="45.44859" lon="7.638885">
        <ele>1743.89855</ele>
        <time>2021-07-09T13:44:03.000Z</time>
      </trkpt>
      <trkpt lat="45.448595" lon="7.638892">
        <ele>1744.3354</ele>
        <time>2021-07-09T13:44:09.000Z</time>
      </trkpt>
      <trkpt lat="45.448613" lon="7.638893">
        <ele>1745.62352</ele>
        <time>2021-07-09T13:44:15.000Z</time>
      </trkpt>
      <trkpt lat="45.448617" lon="7.63889">
        <ele>1745.87528</ele>
        <time>2021-07-09T13:44:21.000Z</time>
      </trkpt>
      <trkpt lat="45.448653" lon="7.638869">
        <ele>1748.32181</ele>
        <time>2021-07-09T13:44:27.000Z</time>
      </trkpt>
      <trkpt lat="45.44866" lon="7.63887">
        <ele>1748.89027</ele>
        <time>2021-07-09T13:44:33.000Z</time>
      </trkpt>
      <trkpt lat="45.448651" lon="7.63893">
        <ele>1748.95638</ele>
        <time>2021-07-09T13:44:45.000Z</time>
      </trkpt>
      <trkpt lat="45.448647" lon="7.638928">
        <ele>1748.62611</ele>
        <time>2021-07-09T13:44:51.000Z</time>
      </trkpt>
      <trkpt lat="45.448639" lon="7.638939">
        <ele>1748.1267</ele>
        <time>2021-07-09T13:45:09.000Z</time>
      </trkpt>
      <trkpt lat="45.448635" lon="7.638942">
        <ele>1747.85577</ele>
        <time>2021-07-09T13:45:15.000Z</time>
      </trkpt>
      <trkpt lat="45.448654" lon="7.638958">
        <ele>1749.46493</ele>
        <time>2021-07-09T13:45:33.000Z</time>
      </trkpt>
      <trkpt lat="45.448702" lon="7.638983">
        <ele>1753.1775</ele>
        <time>2021-07-09T13:45:39.000Z</time>
      </trkpt>
      <trkpt lat="45.448721" lon="7.638982">
        <ele>1754.47339</ele>
        <time>2021-07-09T13:45:45.000Z</time>
      </trkpt>
      <trkpt lat="45.448746" lon="7.638972">
        <ele>1756.07097</ele>
        <time>2021-07-09T13:45:51.000Z</time>
      </trkpt>
      <trkpt lat="45.448757" lon="7.638978">
        <ele>1756.75669</ele>
        <time>2021-07-09T13:45:57.000Z</time>
      </trkpt>
      <trkpt lat="45.448758" lon="7.638988">
        <ele>1756.78508</ele>
        <time>2021-07-09T13:46:03.000Z</time>
      </trkpt>
      <trkpt lat="45.448773" lon="7.638938">
        <ele>1757.83107</ele>
        <time>2021-07-09T13:46:45.000Z</time>
      </trkpt>
      <trkpt lat="45.448782" lon="7.638941">
        <ele>1758.44459</ele>
        <time>2021-07-09T13:46:51.000Z</time>
      </trkpt>
      <trkpt lat="45.448792" lon="7.638959">
        <ele>1759.07502</ele>
        <time>2021-07-09T13:46:57.000Z</time>
      </trkpt>
      <trkpt lat="45.448793" lon="7.638962">
        <ele>1759.12594</ele>
        <time>2021-07-09T13:47:03.000Z</time>
      </trkpt>
      <trkpt lat="45.448839" lon="7.638937">
        <ele>1762.19839</ele>
        <time>2021-07-09T13:47:27.000Z</time>
      </trkpt>
      <trkpt lat="45.448845" lon="7.638935">
        <ele>1762.57688</ele>
        <time>2021-07-09T13:47:33.000Z</time>
      </trkpt>
      <trkpt lat="45.44888" lon="7.638926">
        <ele>1764.61746</ele>
        <time>2021-07-09T13:47:51.000Z</time>
      </trkpt>
      <trkpt lat="45.448909" lon="7.638927">
        <ele>1765.99643</ele>
        <time>2021-07-09T13:47:57.000Z</time>
      </trkpt>
      <trkpt lat="45.448904" lon="7.638928">
        <ele>1765.77478</ele>
        <time>2021-07-09T13:48:03.000Z</time>
      </trkpt>
      <trkpt lat="45.448915" lon="7.638965">
        <ele>1765.72377</ele>
        <time>2021-07-09T13:48:15.000Z</time>
      </trkpt>
      <trkpt lat="45.448917" lon="7.63897">
        <ele>1765.68949</ele>
        <time>2021-07-09T13:48:21.000Z</time>
      </trkpt>
      <trkpt lat="45.448933" lon="7.638963">
        <ele>1766.37332</ele>
        <time>2021-07-09T13:48:33.000Z</time>
      </trkpt>
      <trkpt lat="45.448943" lon="7.638954">
        <ele>1766.82202</ele>
        <time>2021-07-09T13:48:39.000Z</time>
      </trkpt>
      <trkpt lat="45.448959" lon="7.638951">
        <ele>1767.23105</ele>
        <time>2021-07-09T13:48:51.000Z</time>
      </trkpt>
      <trkpt lat="45.448999" lon="7.638926">
        <ele>1768.08851</ele>
        <time>2021-07-09T13:48:57.000Z</time>
      </trkpt>
      <trkpt lat="45.449035" lon="7.638901">
        <ele>1768.4849</ele>
        <time>2021-07-09T13:49:03.000Z</time>
      </trkpt>
      <trkpt lat="45.449073" lon="7.638899">
        <ele>1768.94621</ele>
        <time>2021-07-09T13:49:09.000Z</time>
      </trkpt>
      <trkpt lat="45.4491" lon="7.638875">
        <ele>1769.49222</ele>
        <time>2021-07-09T13:49:15.000Z</time>
      </trkpt>
      <trkpt lat="45.449124" lon="7.638852">
        <ele>1770.08668</ele>
        <time>2021-07-09T13:49:21.000Z</time>
      </trkpt>
      <trkpt lat="45.449156" lon="7.638869">
        <ele>1771.1213</ele>
        <time>2021-07-09T13:49:27.000Z</time>
      </trkpt>
      <trkpt lat="45.449189" lon="7.638888">
        <ele>1772.11169</ele>
        <time>2021-07-09T13:49:33.000Z</time>
      </trkpt>
      <trkpt lat="45.449221" lon="7.6389">
        <ele>1773.08277</ele>
        <time>2021-07-09T13:49:39.000Z</time>
      </trkpt>
      <trkpt lat="45.44925" lon="7.638913">
        <ele>1773.94493</ele>
        <time>2021-07-09T13:49:45.000Z</time>
      </trkpt>
      <trkpt lat="45.449271" lon="7.638923">
        <ele>1774.56449</ele>
        <time>2021-07-09T13:49:51.000Z</time>
      </trkpt>
      <trkpt lat="45.449286" lon="7.638887">
        <ele>1775.75363</ele>
        <time>2021-07-09T13:49:57.000Z</time>
      </trkpt>
      <trkpt lat="45.449289" lon="7.638864">
        <ele>1776.17221</ele>
        <time>2021-07-09T13:50:03.000Z</time>
      </trkpt>
      <trkpt lat="45.449282" lon="7.638847">
        <ele>1776.02185</ele>
        <time>2021-07-09T13:50:09.000Z</time>
      </trkpt>
      <trkpt lat="45.4493" lon="7.638822">
        <ele>1777.06741</ele>
        <time>2021-07-09T13:50:21.000Z</time>
      </trkpt>
      <trkpt lat="45.449305" lon="7.638805">
        <ele>1777.4206</ele>
        <time>2021-07-09T13:50:27.000Z</time>
      </trkpt>
      <trkpt lat="45.449311" lon="7.638791">
        <ele>1777.79665</ele>
        <time>2021-07-09T13:50:45.000Z</time>
      </trkpt>
      <trkpt lat="45.449347" lon="7.638779">
        <ele>1779.82072</ele>
        <time>2021-07-09T13:50:51.000Z</time>
      </trkpt>
      <trkpt lat="45.44937" lon="7.638761">
        <ele>1781.1693</ele>
        <time>2021-07-09T13:50:57.000Z</time>
      </trkpt>
      <trkpt lat="45.449387" lon="7.638742">
        <ele>1782.14793</ele>
        <time>2021-07-09T13:51:03.000Z</time>
      </trkpt>
      <trkpt lat="45.449402" lon="7.638725">
        <ele>1782.97402</ele>
        <time>2021-07-09T13:51:09.000Z</time>
      </trkpt>
      <trkpt lat="45.44941" lon="7.6387">
        <ele>1783.37428</ele>
        <time>2021-07-09T13:51:15.000Z</time>
      </trkpt>
      <trkpt lat="45.449423" lon="7.638698">
        <ele>1784.05732</ele>
        <time>2021-07-09T13:51:21.000Z</time>
      </trkpt>
      <trkpt lat="45.449442" lon="7.638722">
        <ele>1785.03408</ele>
        <time>2021-07-09T13:51:27.000Z</time>
      </trkpt>
      <trkpt lat="45.44946" lon="7.638724">
        <ele>1785.866</ele>
        <time>2021-07-09T13:51:33.000Z</time>
      </trkpt>
      <trkpt lat="45.449469" lon="7.638742">
        <ele>1786.23284</ele>
        <time>2021-07-09T13:51:39.000Z</time>
      </trkpt>
      <trkpt lat="45.449491" lon="7.638772">
        <ele>1787.00113</ele>
        <time>2021-07-09T13:51:45.000Z</time>
      </trkpt>
      <trkpt lat="45.449494" lon="7.638778">
        <ele>1787.07514</ele>
        <time>2021-07-09T13:51:51.000Z</time>
      </trkpt>
      <trkpt lat="45.449539" lon="7.638725">
        <ele>1789.07608</ele>
        <time>2021-07-09T13:52:03.000Z</time>
      </trkpt>
      <trkpt lat="45.449557" lon="7.638684">
        <ele>1789.87848</ele>
        <time>2021-07-09T13:52:09.000Z</time>
      </trkpt>
      <trkpt lat="45.449574" lon="7.638653">
        <ele>1790.49471</ele>
        <time>2021-07-09T13:52:15.000Z</time>
      </trkpt>
      <trkpt lat="45.449583" lon="7.638672">
        <ele>1790.81867</ele>
        <time>2021-07-09T13:52:21.000Z</time>
      </trkpt>
      <trkpt lat="45.4496" lon="7.638686">
        <ele>1791.35291</ele>
        <time>2021-07-09T13:52:33.000Z</time>
      </trkpt>
      <trkpt lat="45.449626" lon="7.638704">
        <ele>1792.05528</ele>
        <time>2021-07-09T13:52:39.000Z</time>
      </trkpt>
      <trkpt lat="45.449666" lon="7.638699">
        <ele>1793.09723</ele>
        <time>2021-07-09T13:52:45.000Z</time>
      </trkpt>
      <trkpt lat="45.449714" lon="7.638673">
        <ele>1794.02062</ele>
        <time>2021-07-09T13:52:51.000Z</time>
      </trkpt>
      <trkpt lat="45.449755" lon="7.638674">
        <ele>1794.60148</ele>
        <time>2021-07-09T13:52:57.000Z</time>
      </trkpt>
      <trkpt lat="45.449795" lon="7.638678">
        <ele>1795.19647</ele>
        <time>2021-07-09T13:53:03.000Z</time>
      </trkpt>
      <trkpt lat="45.449826" lon="7.638685">
        <ele>1795.76247</ele>
        <time>2021-07-09T13:53:09.000Z</time>
      </trkpt>
      <trkpt lat="45.449862" lon="7.63869">
        <ele>1796.43742</ele>
        <time>2021-07-09T13:53:15.000Z</time>
      </trkpt>
      <trkpt lat="45.449896" lon="7.638697">
        <ele>1797.10015</ele>
        <time>2021-07-09T13:53:21.000Z</time>
      </trkpt>
      <trkpt lat="45.449929" lon="7.638698">
        <ele>1797.73053</ele>
        <time>2021-07-09T13:53:27.000Z</time>
      </trkpt>
      <trkpt lat="45.449961" lon="7.638686">
        <ele>1798.2688</ele>
        <time>2021-07-09T13:53:33.000Z</time>
      </trkpt>
      <trkpt lat="45.450004" lon="7.638686">
        <ele>1799.15187</ele>
        <time>2021-07-09T13:53:39.000Z</time>
      </trkpt>
      <trkpt lat="45.45004" lon="7.638693">
        <ele>1799.95353</ele>
        <time>2021-07-09T13:53:45.000Z</time>
      </trkpt>
      <trkpt lat="45.45008" lon="7.638704">
        <ele>1800.83355</ele>
        <time>2021-07-09T13:53:51.000Z</time>
      </trkpt>
      <trkpt lat="45.450099" lon="7.638701">
        <ele>1801.23403</ele>
        <time>2021-07-09T13:53:57.000Z</time>
      </trkpt>
      <trkpt lat="45.450095" lon="7.638699">
        <ele>1801.14534</ele>
        <time>2021-07-09T13:54:03.000Z</time>
      </trkpt>
      <trkpt lat="45.450094" lon="7.638698">
        <ele>1801.12241</ele>
        <time>2021-07-09T13:54:09.000Z</time>
      </trkpt>
      <trkpt lat="45.450124" lon="7.638672">
        <ele>1801.80582</ele>
        <time>2021-07-09T13:59:03.000Z</time>
      </trkpt>
      <trkpt lat="45.450158" lon="7.63868">
        <ele>1802.65392</ele>
        <time>2021-07-09T13:59:09.000Z</time>
      </trkpt>
      <trkpt lat="45.450182" lon="7.638673">
        <ele>1803.31302</ele>
        <time>2021-07-09T13:59:15.000Z</time>
      </trkpt>
      <trkpt lat="45.45021" lon="7.638709">
        <ele>1803.89209</ele>
        <time>2021-07-09T13:59:21.000Z</time>
      </trkpt>
      <trkpt lat="45.450238" lon="7.638713">
        <ele>1804.63272</ele>
        <time>2021-07-09T13:59:27.000Z</time>
      </trkpt>
      <trkpt lat="45.45026" lon="7.638727">
        <ele>1805.12057</ele>
        <time>2021-07-09T13:59:33.000Z</time>
      </trkpt>
      <trkpt lat="45.450294" lon="7.638723">
        <ele>1806.16263</ele>
        <time>2021-07-09T13:59:39.000Z</time>
      </trkpt>
      <trkpt lat="45.450327" lon="7.638744">
        <ele>1806.89486</ele>
        <time>2021-07-09T13:59:45.000Z</time>
      </trkpt>
      <trkpt lat="45.450349" lon="7.638755">
        <ele>1807.41777</ele>
        <time>2021-07-09T13:59:51.000Z</time>
      </trkpt>
      <trkpt lat="45.450372" lon="7.638756">
        <ele>1808.15324</ele>
        <time>2021-07-09T13:59:57.000Z</time>
      </trkpt>
      <trkpt lat="45.450406" lon="7.638739">
        <ele>1809.60898</ele>
        <time>2021-07-09T14:00:03.000Z</time>
      </trkpt>
      <trkpt lat="45.450436" lon="7.638731">
        <ele>1810.82854</ele>
        <time>2021-07-09T14:00:09.000Z</time>
      </trkpt>
      <trkpt lat="45.450459" lon="7.638716">
        <ele>1811.89465</ele>
        <time>2021-07-09T14:00:14.000Z</time>
      </trkpt>
      <trkpt lat="45.450495" lon="7.638716">
        <ele>1813.26745</ele>
        <time>2021-07-09T14:00:20.000Z</time>
      </trkpt>
      <trkpt lat="45.450512" lon="7.638726">
        <ele>1813.79845</ele>
        <time>2021-07-09T14:00:25.000Z</time>
      </trkpt>
      <trkpt lat="45.450524" lon="7.638703">
        <ele>1814.51812</ele>
        <time>2021-07-09T14:00:30.000Z</time>
      </trkpt>
      <trkpt lat="45.450544" lon="7.638695">
        <ele>1815.35297</ele>
        <time>2021-07-09T14:00:36.000Z</time>
      </trkpt>
      <trkpt lat="45.450558" lon="7.638691">
        <ele>1815.9264</ele>
        <time>2021-07-09T14:00:42.000Z</time>
      </trkpt>
      <trkpt lat="45.450589" lon="7.638695">
        <ele>1817.1086</ele>
        <time>2021-07-09T14:00:48.000Z</time>
      </trkpt>
      <trkpt lat="45.450608" lon="7.638688">
        <ele>1817.91483</ele>
        <time>2021-07-09T14:00:53.000Z</time>
      </trkpt>
      <trkpt lat="45.450629" lon="7.638694">
        <ele>1818.70746</ele>
        <time>2021-07-09T14:00:59.000Z</time>
      </trkpt>
      <trkpt lat="45.45064" lon="7.638709">
        <ele>1819.0473</ele>
        <time>2021-07-09T14:01:05.000Z</time>
      </trkpt>
      <trkpt lat="45.450642" lon="7.638713">
        <ele>1819.10047</ele>
        <time>2021-07-09T14:01:10.000Z</time>
      </trkpt>
      <trkpt lat="45.450679" lon="7.638759">
        <ele>1820.24635</ele>
        <time>2021-07-09T14:01:22.000Z</time>
      </trkpt>
      <trkpt lat="45.450701" lon="7.638771">
        <ele>1820.99209</ele>
        <time>2021-07-09T14:01:27.000Z</time>
      </trkpt>
      <trkpt lat="45.45073" lon="7.638765">
        <ele>1822.04321</ele>
        <time>2021-07-09T14:01:33.000Z</time>
      </trkpt>
      <trkpt lat="45.450743" lon="7.638735">
        <ele>1822.65127</ele>
        <time>2021-07-09T14:01:39.000Z</time>
      </trkpt>
      <trkpt lat="45.450769" lon="7.638735">
        <ele>1823.39529</ele>
        <time>2021-07-09T14:01:44.000Z</time>
      </trkpt>
      <trkpt lat="45.450771" lon="7.638733">
        <ele>1823.46397</ele>
        <time>2021-07-09T14:01:50.000Z</time>
      </trkpt>
      <trkpt lat="45.450807" lon="7.638738">
        <ele>1824.3707</ele>
        <time>2021-07-09T14:01:55.000Z</time>
      </trkpt>
      <trkpt lat="45.450843" lon="7.638729">
        <ele>1825.41526</ele>
        <time>2021-07-09T14:02:00.000Z</time>
      </trkpt>
      <trkpt lat="45.450866" lon="7.638732">
        <ele>1826.04831</ele>
        <time>2021-07-09T14:02:06.000Z</time>
      </trkpt>
      <trkpt lat="45.450885" lon="7.638718">
        <ele>1826.81987</ele>
        <time>2021-07-09T14:02:12.000Z</time>
      </trkpt>
      <trkpt lat="45.450907" lon="7.638695">
        <ele>1827.88104</ele>
        <time>2021-07-09T14:02:18.000Z</time>
      </trkpt>
      <trkpt lat="45.450921" lon="7.638686">
        <ele>1828.52697</ele>
        <time>2021-07-09T14:02:24.000Z</time>
      </trkpt>
      <trkpt lat="45.45094" lon="7.638683">
        <ele>1829.32644</ele>
        <time>2021-07-09T14:02:30.000Z</time>
      </trkpt>
      <trkpt lat="45.450969" lon="7.63868">
        <ele>1830.58028</ele>
        <time>2021-07-09T14:02:36.000Z</time>
      </trkpt>
      <trkpt lat="45.451007" lon="7.63869">
        <ele>1832.11313</ele>
        <time>2021-07-09T14:02:42.000Z</time>
      </trkpt>
      <trkpt lat="45.451034" lon="7.638678">
        <ele>1833.41799</ele>
        <time>2021-07-09T14:02:48.000Z</time>
      </trkpt>
      <trkpt lat="45.451059" lon="7.638667">
        <ele>1834.58877</ele>
        <time>2021-07-09T14:02:54.000Z</time>
      </trkpt>
      <trkpt lat="45.451061" lon="7.638674">
        <ele>1834.60005</ele>
        <time>2021-07-09T14:03:00.000Z</time>
      </trkpt>
      <trkpt lat="45.45108" lon="7.638683">
        <ele>1835.28136</ele>
        <time>2021-07-09T14:03:06.000Z</time>
      </trkpt>
      <trkpt lat="45.4511" lon="7.6387">
        <ele>1835.89261</ele>
        <time>2021-07-09T14:03:11.000Z</time>
      </trkpt>
      <trkpt lat="45.451125" lon="7.638722">
        <ele>1836.61918</ele>
        <time>2021-07-09T14:03:16.000Z</time>
      </trkpt>
      <trkpt lat="45.451158" lon="7.638737">
        <ele>1837.7099</ele>
        <time>2021-07-09T14:03:22.000Z</time>
      </trkpt>
      <trkpt lat="45.451178" lon="7.638758">
        <ele>1838.25886</ele>
        <time>2021-07-09T14:03:27.000Z</time>
      </trkpt>
      <trkpt lat="45.4512" lon="7.638787">
        <ele>1838.81418</ele>
        <time>2021-07-09T14:03:33.000Z</time>
      </trkpt>
      <trkpt lat="45.451231" lon="7.638785">
        <ele>1840.14482</ele>
        <time>2021-07-09T14:03:39.000Z</time>
      </trkpt>
      <trkpt lat="45.451252" lon="7.638782">
        <ele>1841.11725</ele>
        <time>2021-07-09T14:03:45.000Z</time>
      </trkpt>
      <trkpt lat="45.451259" lon="7.638766">
        <ele>1841.60161</ele>
        <time>2021-07-09T14:03:51.000Z</time>
      </trkpt>
      <trkpt lat="45.451278" lon="7.638769">
        <ele>1842.48961</ele>
        <time>2021-07-09T14:03:57.000Z</time>
      </trkpt>
      <trkpt lat="45.451285" lon="7.638768">
        <ele>1842.84876</ele>
        <time>2021-07-09T14:04:03.000Z</time>
      </trkpt>
      <trkpt lat="45.451317" lon="7.638794">
        <ele>1844.25325</ele>
        <time>2021-07-09T14:04:09.000Z</time>
      </trkpt>
      <trkpt lat="45.451326" lon="7.638808">
        <ele>1844.58365</ele>
        <time>2021-07-09T14:04:15.000Z</time>
      </trkpt>
      <trkpt lat="45.451358" lon="7.638828">
        <ele>1846.09088</ele>
        <time>2021-07-09T14:04:21.000Z</time>
      </trkpt>
      <trkpt lat="45.451371" lon="7.638871">
        <ele>1846.2263</ele>
        <time>2021-07-09T14:04:27.000Z</time>
      </trkpt>
      <trkpt lat="45.451376" lon="7.63889">
        <ele>1846.20204</ele>
        <time>2021-07-09T14:04:33.000Z</time>
      </trkpt>
      <trkpt lat="45.451379" lon="7.63889">
        <ele>1846.3665</ele>
        <time>2021-07-09T14:04:39.000Z</time>
      </trkpt>
      <trkpt lat="45.451414" lon="7.638891">
        <ele>1848.24632</ele>
        <time>2021-07-09T14:04:44.000Z</time>
      </trkpt>
      <trkpt lat="45.451426" lon="7.63892">
        <ele>1848.38112</ele>
        <time>2021-07-09T14:04:50.000Z</time>
      </trkpt>
      <trkpt lat="45.451439" lon="7.638934">
        <ele>1848.8018</ele>
        <time>2021-07-09T14:04:56.000Z</time>
      </trkpt>
      <trkpt lat="45.451443" lon="7.638935">
        <ele>1848.99063</ele>
        <time>2021-07-09T14:05:02.000Z</time>
      </trkpt>
      <trkpt lat="45.451479" lon="7.638953">
        <ele>1850.52014</ele>
        <time>2021-07-09T14:05:19.000Z</time>
      </trkpt>
      <trkpt lat="45.4515" lon="7.638936">
        <ele>1851.93315</ele>
        <time>2021-07-09T14:05:25.000Z</time>
      </trkpt>
      <trkpt lat="45.451504" lon="7.63889">
        <ele>1852.93026</ele>
        <time>2021-07-09T14:05:31.000Z</time>
      </trkpt>
      <trkpt lat="45.451504" lon="7.638889">
        <ele>1852.94577</ele>
        <time>2021-07-09T14:05:37.000Z</time>
      </trkpt>
      <trkpt lat="45.451505" lon="7.63889">
        <ele>1852.9816</ele>
        <time>2021-07-09T14:05:43.000Z</time>
      </trkpt>
      <trkpt lat="45.451524" lon="7.638886">
        <ele>1854.01246</ele>
        <time>2021-07-09T14:06:15.000Z</time>
      </trkpt>
      <trkpt lat="45.45155" lon="7.63891">
        <ele>1854.93686</ele>
        <time>2021-07-09T14:06:21.000Z</time>
      </trkpt>
      <trkpt lat="45.451568" lon="7.638863">
        <ele>1856.50558</ele>
        <time>2021-07-09T14:06:27.000Z</time>
      </trkpt>
      <trkpt lat="45.451591" lon="7.638886">
        <ele>1857.28917</ele>
        <time>2021-07-09T14:06:33.000Z</time>
      </trkpt>
      <trkpt lat="45.451615" lon="7.638909">
        <ele>1858.0496</ele>
        <time>2021-07-09T14:06:39.000Z</time>
      </trkpt>
      <trkpt lat="45.45164" lon="7.638931">
        <ele>1858.80282</ele>
        <time>2021-07-09T14:06:45.000Z</time>
      </trkpt>
      <trkpt lat="45.451665" lon="7.638958">
        <ele>1859.4335</ele>
        <time>2021-07-09T14:06:51.000Z</time>
      </trkpt>
      <trkpt lat="45.451684" lon="7.63899">
        <ele>1859.74535</ele>
        <time>2021-07-09T14:06:57.000Z</time>
      </trkpt>
      <trkpt lat="45.451706" lon="7.639036">
        <ele>1860.05329</ele>
        <time>2021-07-09T14:07:03.000Z</time>
      </trkpt>
      <trkpt lat="45.451729" lon="7.639051">
        <ele>1860.93247</ele>
        <time>2021-07-09T14:07:09.000Z</time>
      </trkpt>
      <trkpt lat="45.451756" lon="7.639082">
        <ele>1861.90671</ele>
        <time>2021-07-09T14:07:15.000Z</time>
      </trkpt>
      <trkpt lat="45.451773" lon="7.63908">
        <ele>1862.76827</ele>
        <time>2021-07-09T14:07:21.000Z</time>
      </trkpt>
      <trkpt lat="45.451795" lon="7.639084">
        <ele>1863.84001</ele>
        <time>2021-07-09T14:07:27.000Z</time>
      </trkpt>
      <trkpt lat="45.45182" lon="7.639085">
        <ele>1865.09409</ele>
        <time>2021-07-09T14:07:33.000Z</time>
      </trkpt>
      <trkpt lat="45.451841" lon="7.639089">
        <ele>1866.11851</ele>
        <time>2021-07-09T14:07:38.000Z</time>
      </trkpt>
      <trkpt lat="45.45185" lon="7.6391">
        <ele>1866.51217</ele>
        <time>2021-07-09T14:07:44.000Z</time>
      </trkpt>
      <trkpt lat="45.45187" lon="7.639118">
        <ele>1867.44324</ele>
        <time>2021-07-09T14:07:50.000Z</time>
      </trkpt>
      <trkpt lat="45.451883" lon="7.639149">
        <ele>1867.9984</ele>
        <time>2021-07-09T14:07:56.000Z</time>
      </trkpt>
      <trkpt lat="45.451876" lon="7.63918">
        <ele>1867.52222</ele>
        <time>2021-07-09T14:08:01.000Z</time>
      </trkpt>
      <trkpt lat="45.451881" lon="7.639218">
        <ele>1867.68223</ele>
        <time>2021-07-09T14:08:07.000Z</time>
      </trkpt>
      <trkpt lat="45.4519" lon="7.639259">
        <ele>1868.70791</ele>
        <time>2021-07-09T14:08:13.000Z</time>
      </trkpt>
      <trkpt lat="45.451912" lon="7.639299">
        <ele>1869.43302</ele>
        <time>2021-07-09T14:08:18.000Z</time>
      </trkpt>
      <trkpt lat="45.451931" lon="7.639338">
        <ele>1870.67204</ele>
        <time>2021-07-09T14:08:24.000Z</time>
      </trkpt>
      <trkpt lat="45.451939" lon="7.639392">
        <ele>1871.36964</ele>
        <time>2021-07-09T14:08:30.000Z</time>
      </trkpt>
      <trkpt lat="45.451947" lon="7.63943">
        <ele>1872.10805</ele>
        <time>2021-07-09T14:08:35.000Z</time>
      </trkpt>
      <trkpt lat="45.451956" lon="7.639464">
        <ele>1872.90645</ele>
        <time>2021-07-09T14:08:41.000Z</time>
      </trkpt>
      <trkpt lat="45.451956" lon="7.639499">
        <ele>1873.15136</ele>
        <time>2021-07-09T14:08:47.000Z</time>
      </trkpt>
      <trkpt lat="45.451954" lon="7.639544">
        <ele>1873.29641</ele>
        <time>2021-07-09T14:08:53.000Z</time>
      </trkpt>
      <trkpt lat="45.45194" lon="7.639608">
        <ele>1872.60813</ele>
        <time>2021-07-09T14:08:59.000Z</time>
      </trkpt>
      <trkpt lat="45.451943" lon="7.639675">
        <ele>1872.57768</ele>
        <time>2021-07-09T14:09:04.000Z</time>
      </trkpt>
      <trkpt lat="45.451954" lon="7.639732">
        <ele>1872.9267</ele>
        <time>2021-07-09T14:09:09.000Z</time>
      </trkpt>
      <trkpt lat="45.451956" lon="7.639749">
        <ele>1872.93258</ele>
        <time>2021-07-09T14:09:15.000Z</time>
      </trkpt>
      <trkpt lat="45.451969" lon="7.639764">
        <ele>1873.68786</ele>
        <time>2021-07-09T14:09:20.000Z</time>
      </trkpt>
      <trkpt lat="45.45197" lon="7.63977">
        <ele>1873.70907</ele>
        <time>2021-07-09T14:09:26.000Z</time>
      </trkpt>
      <trkpt lat="45.451978" lon="7.639769">
        <ele>1874.24016</ele>
        <time>2021-07-09T14:10:45.000Z</time>
      </trkpt>
      <trkpt lat="45.451987" lon="7.63976">
        <ele>1874.87346</ele>
        <time>2021-07-09T14:10:51.000Z</time>
      </trkpt>
      <trkpt lat="45.451994" lon="7.639752">
        <ele>1875.35371</ele>
        <time>2021-07-09T14:10:57.000Z</time>
      </trkpt>
      <trkpt lat="45.452005" lon="7.639695">
        <ele>1876.2711</ele>
        <time>2021-07-09T14:11:03.000Z</time>
      </trkpt>
      <trkpt lat="45.452028" lon="7.639684">
        <ele>1877.55723</ele>
        <time>2021-07-09T14:11:09.000Z</time>
      </trkpt>
      <trkpt lat="45.452031" lon="7.639706">
        <ele>1877.63982</ele>
        <time>2021-07-09T14:11:15.000Z</time>
      </trkpt>
      <trkpt lat="45.452033" lon="7.639719">
        <ele>1877.69245</ele>
        <time>2021-07-09T14:11:21.000Z</time>
      </trkpt>
      <trkpt lat="45.452051" lon="7.639708">
        <ele>1878.64842</ele>
        <time>2021-07-09T14:11:27.000Z</time>
      </trkpt>
      <trkpt lat="45.45207" lon="7.639663">
        <ele>1879.72297</ele>
        <time>2021-07-09T14:11:33.000Z</time>
      </trkpt>
      <trkpt lat="45.452097" lon="7.639624">
        <ele>1881.13086</ele>
        <time>2021-07-09T14:11:39.000Z</time>
      </trkpt>
      <trkpt lat="45.452113" lon="7.639604">
        <ele>1881.9641</ele>
        <time>2021-07-09T14:11:45.000Z</time>
      </trkpt>
      <trkpt lat="45.45212" lon="7.6396">
        <ele>1882.32125</ele>
        <time>2021-07-09T14:11:51.000Z</time>
      </trkpt>
      <trkpt lat="45.452148" lon="7.639594">
        <ele>1883.75487</ele>
        <time>2021-07-09T14:11:57.000Z</time>
      </trkpt>
      <trkpt lat="45.452161" lon="7.639601">
        <ele>1884.41155</ele>
        <time>2021-07-09T14:12:03.000Z</time>
      </trkpt>
      <trkpt lat="45.452194" lon="7.63961">
        <ele>1886.14965</ele>
        <time>2021-07-09T14:12:09.000Z</time>
      </trkpt>
      <trkpt lat="45.452197" lon="7.63962">
        <ele>1886.27603</ele>
        <time>2021-07-09T14:12:15.000Z</time>
      </trkpt>
      <trkpt lat="45.452217" lon="7.639639">
        <ele>1887.29268</ele>
        <time>2021-07-09T14:12:27.000Z</time>
      </trkpt>
      <trkpt lat="45.452235" lon="7.639649">
        <ele>1888.24098</ele>
        <time>2021-07-09T14:12:33.000Z</time>
      </trkpt>
      <trkpt lat="45.452243" lon="7.639636">
        <ele>1888.73506</ele>
        <time>2021-07-09T14:12:39.000Z</time>
      </trkpt>
      <trkpt lat="45.452242" lon="7.639635">
        <ele>1888.68371</ele>
        <time>2021-07-09T14:12:45.000Z</time>
      </trkpt>
      <trkpt lat="45.452302" lon="7.63968">
        <ele>1891.83457</ele>
        <time>2021-07-09T14:12:57.000Z</time>
      </trkpt>
      <trkpt lat="45.452306" lon="7.639711">
        <ele>1891.91413</ele>
        <time>2021-07-09T14:13:02.000Z</time>
      </trkpt>
      <trkpt lat="45.452319" lon="7.639744">
        <ele>1892.48264</ele>
        <time>2021-07-09T14:13:08.000Z</time>
      </trkpt>
      <trkpt lat="45.452337" lon="7.639715">
        <ele>1893.63909</ele>
        <time>2021-07-09T14:13:13.000Z</time>
      </trkpt>
      <trkpt lat="45.452363" lon="7.639708">
        <ele>1895.13109</ele>
        <time>2021-07-09T14:13:18.000Z</time>
      </trkpt>
      <trkpt lat="45.452367" lon="7.639719">
        <ele>1895.30848</ele>
        <time>2021-07-09T14:13:24.000Z</time>
      </trkpt>
      <trkpt lat="45.452362" lon="7.63972">
        <ele>1895.02361</ele>
        <time>2021-07-09T14:13:29.000Z</time>
      </trkpt>
      <trkpt lat="45.452376" lon="7.639763">
        <ele>1895.62704</ele>
        <time>2021-07-09T14:13:45.000Z</time>
      </trkpt>
      <trkpt lat="45.452396" lon="7.639782">
        <ele>1896.69203</ele>
        <time>2021-07-09T14:13:51.000Z</time>
      </trkpt>
      <trkpt lat="45.452397" lon="7.639792">
        <ele>1896.71114</ele>
        <time>2021-07-09T14:13:57.000Z</time>
      </trkpt>
      <trkpt lat="45.452413" lon="7.639802">
        <ele>1897.60224</ele>
        <time>2021-07-09T14:14:02.000Z</time>
      </trkpt>
      <trkpt lat="45.452439" lon="7.639786">
        <ele>1899.16991</ele>
        <time>2021-07-09T14:14:08.000Z</time>
      </trkpt>
      <trkpt lat="45.452449" lon="7.639765">
        <ele>1899.81125</ele>
        <time>2021-07-09T14:14:13.000Z</time>
      </trkpt>
      <trkpt lat="45.452476" lon="7.63975">
        <ele>1901.42973</ele>
        <time>2021-07-09T14:14:19.000Z</time>
      </trkpt>
      <trkpt lat="45.452495" lon="7.63978">
        <ele>1902.51901</ele>
        <time>2021-07-09T14:14:25.000Z</time>
      </trkpt>
      <trkpt lat="45.452506" lon="7.639791">
        <ele>1903.17722</ele>
        <time>2021-07-09T14:14:30.000Z</time>
      </trkpt>
      <trkpt lat="45.452518" lon="7.639821">
        <ele>1903.88812</ele>
        <time>2021-07-09T14:14:36.000Z</time>
      </trkpt>
      <trkpt lat="45.452513" lon="7.639853">
        <ele>1903.53702</ele>
        <time>2021-07-09T14:14:42.000Z</time>
      </trkpt>
      <trkpt lat="45.452512" lon="7.639884">
        <ele>1903.44228</ele>
        <time>2021-07-09T14:14:47.000Z</time>
      </trkpt>
      <trkpt lat="45.452517" lon="7.639891">
        <ele>1903.75328</ele>
        <time>2021-07-09T14:14:52.000Z</time>
      </trkpt>
      <trkpt lat="45.452516" lon="7.63989">
        <ele>1903.69059</ele>
        <time>2021-07-09T14:14:57.000Z</time>
      </trkpt>
      <trkpt lat="45.452524" lon="7.639922">
        <ele>1904.17497</ele>
        <time>2021-07-09T14:15:15.000Z</time>
      </trkpt>
      <trkpt lat="45.452548" lon="7.639967">
        <ele>1905.68197</ele>
        <time>2021-07-09T14:15:21.000Z</time>
      </trkpt>
      <trkpt lat="45.452561" lon="7.640009">
        <ele>1906.46636</ele>
        <time>2021-07-09T14:15:27.000Z</time>
      </trkpt>
      <trkpt lat="45.452581" lon="7.64004">
        <ele>1907.69392</ele>
        <time>2021-07-09T14:15:33.000Z</time>
      </trkpt>
      <trkpt lat="45.452592" lon="7.640065">
        <ele>1908.33192</ele>
        <time>2021-07-09T14:15:39.000Z</time>
      </trkpt>
      <trkpt lat="45.4526" lon="7.640078">
        <ele>1908.80179</ele>
        <time>2021-07-09T14:15:45.000Z</time>
      </trkpt>
      <trkpt lat="45.452609" lon="7.6401">
        <ele>1909.29374</ele>
        <time>2021-07-09T14:15:51.000Z</time>
      </trkpt>
      <trkpt lat="45.452618" lon="7.640153">
        <ele>1909.6571</ele>
        <time>2021-07-09T14:15:56.000Z</time>
      </trkpt>
      <trkpt lat="45.452633" lon="7.640189">
        <ele>1910.45257</ele>
        <time>2021-07-09T14:16:02.000Z</time>
      </trkpt>
      <trkpt lat="45.452637" lon="7.640192">
        <ele>1910.68776</ele>
        <time>2021-07-09T14:16:08.000Z</time>
      </trkpt>
      <trkpt lat="45.452651" lon="7.640209">
        <ele>1911.47365</ele>
        <time>2021-07-09T14:16:14.000Z</time>
      </trkpt>
      <trkpt lat="45.452676" lon="7.640238">
        <ele>1912.84727</ele>
        <time>2021-07-09T14:16:19.000Z</time>
      </trkpt>
      <trkpt lat="45.45268" lon="7.640263">
        <ele>1912.91516</ele>
        <time>2021-07-09T14:16:24.000Z</time>
      </trkpt>
      <trkpt lat="45.452699" lon="7.640292">
        <ele>1913.83545</ele>
        <time>2021-07-09T14:16:30.000Z</time>
      </trkpt>
      <trkpt lat="45.45272" lon="7.640289">
        <ele>1915.17587</ele>
        <time>2021-07-09T14:16:35.000Z</time>
      </trkpt>
      <trkpt lat="45.452734" lon="7.640249">
        <ele>1916.42819</ele>
        <time>2021-07-09T14:16:41.000Z</time>
      </trkpt>
      <trkpt lat="45.452732" lon="7.640202">
        <ele>1916.66475</ele>
        <time>2021-07-09T14:16:46.000Z</time>
      </trkpt>
      <trkpt lat="45.452745" lon="7.640176">
        <ele>1917.71206</ele>
        <time>2021-07-09T14:16:51.000Z</time>
      </trkpt>
      <trkpt lat="45.452752" lon="7.640175">
        <ele>1918.1891</ele>
        <time>2021-07-09T14:16:57.000Z</time>
      </trkpt>
      <trkpt lat="45.452761" lon="7.640139">
        <ele>1919.05642</ele>
        <time>2021-07-09T14:17:03.000Z</time>
      </trkpt>
      <trkpt lat="45.452759" lon="7.6401">
        <ele>1919.17875</ele>
        <time>2021-07-09T14:17:09.000Z</time>
      </trkpt>
      <trkpt lat="45.452765" lon="7.640074">
        <ele>1919.75463</ele>
        <time>2021-07-09T14:17:15.000Z</time>
      </trkpt>
      <trkpt lat="45.452768" lon="7.640047">
        <ele>1920.11199</ele>
        <time>2021-07-09T14:17:21.000Z</time>
      </trkpt>
      <trkpt lat="45.452793" lon="7.640017">
        <ele>1922.00666</ele>
        <time>2021-07-09T14:17:27.000Z</time>
      </trkpt>
      <trkpt lat="45.452823" lon="7.64">
        <ele>1924.18512</ele>
        <time>2021-07-09T14:17:33.000Z</time>
      </trkpt>
      <trkpt lat="45.452831" lon="7.639977">
        <ele>1924.82523</ele>
        <time>2021-07-09T14:17:39.000Z</time>
      </trkpt>
      <trkpt lat="45.452845" lon="7.639929">
        <ele>1925.93489</ele>
        <time>2021-07-09T14:17:45.000Z</time>
      </trkpt>
      <trkpt lat="45.452854" lon="7.639936">
        <ele>1926.55248</ele>
        <time>2021-07-09T14:17:51.000Z</time>
      </trkpt>
      <trkpt lat="45.452856" lon="7.639914">
        <ele>1926.74277</ele>
        <time>2021-07-09T14:17:57.000Z</time>
      </trkpt>
      <trkpt lat="45.452853" lon="7.639912">
        <ele>1926.53544</ele>
        <time>2021-07-09T14:18:03.000Z</time>
      </trkpt>
      <trkpt lat="45.452853" lon="7.639878">
        <ele>1926.60621</ele>
        <time>2021-07-09T14:18:15.000Z</time>
      </trkpt>
      <trkpt lat="45.452852" lon="7.639795">
        <ele>1926.75721</ele>
        <time>2021-07-09T14:18:21.000Z</time>
      </trkpt>
      <trkpt lat="45.452853" lon="7.639743">
        <ele>1927.01105</ele>
        <time>2021-07-09T14:18:27.000Z</time>
      </trkpt>
      <trkpt lat="45.452869" lon="7.639749">
        <ele>1928.15746</ele>
        <time>2021-07-09T14:18:33.000Z</time>
      </trkpt>
      <trkpt lat="45.452887" lon="7.639722">
        <ele>1929.56049</ele>
        <time>2021-07-09T14:18:39.000Z</time>
      </trkpt>
      <trkpt lat="45.452905" lon="7.639667">
        <ele>1930.97106</ele>
        <time>2021-07-09T14:18:45.000Z</time>
      </trkpt>
      <trkpt lat="45.452918" lon="7.639643">
        <ele>1931.89183</ele>
        <time>2021-07-09T14:18:51.000Z</time>
      </trkpt>
      <trkpt lat="45.45292" lon="7.63965">
        <ele>1932.04885</ele>
        <time>2021-07-09T14:18:57.000Z</time>
      </trkpt>
      <trkpt lat="45.452919" lon="7.639652">
        <ele>1931.9792</ele>
        <time>2021-07-09T14:19:03.000Z</time>
      </trkpt>
      <trkpt lat="45.452949" lon="7.639625">
        <ele>1934.059</ele>
        <time>2021-07-09T14:19:09.000Z</time>
      </trkpt>
      <trkpt lat="45.452944" lon="7.639579">
        <ele>1933.396</ele>
        <time>2021-07-09T14:19:15.000Z</time>
      </trkpt>
      <trkpt lat="45.452961" lon="7.639524">
        <ele>1933.92413</ele>
        <time>2021-07-09T14:19:21.000Z</time>
      </trkpt>
      <trkpt lat="45.452986" lon="7.639483">
        <ele>1934.99673</ele>
        <time>2021-07-09T14:19:27.000Z</time>
      </trkpt>
      <trkpt lat="45.453008" lon="7.639465">
        <ele>1936.18007</ele>
        <time>2021-07-09T14:19:33.000Z</time>
      </trkpt>
      <trkpt lat="45.453033" lon="7.639468">
        <ele>1937.9019</ele>
        <time>2021-07-09T14:19:39.000Z</time>
      </trkpt>
      <trkpt lat="45.453037" lon="7.639486">
        <ele>1938.47107</ele>
        <time>2021-07-09T14:19:45.000Z</time>
      </trkpt>
      <trkpt lat="45.453033" lon="7.639485">
        <ele>1938.1919</ele>
        <time>2021-07-09T14:19:51.000Z</time>
      </trkpt>
      <trkpt lat="45.453034" lon="7.639515">
        <ele>1938.73246</ele>
        <time>2021-07-09T14:20:15.000Z</time>
      </trkpt>
      <trkpt lat="45.453047" lon="7.639543">
        <ele>1939.97099</ele>
        <time>2021-07-09T14:20:21.000Z</time>
      </trkpt>
      <trkpt lat="45.453043" lon="7.639568">
        <ele>1940.01467</ele>
        <time>2021-07-09T14:20:27.000Z</time>
      </trkpt>
      <trkpt lat="45.453047" lon="7.639613">
        <ele>1940.69613</ele>
        <time>2021-07-09T14:20:33.000Z</time>
      </trkpt>
      <trkpt lat="45.453033" lon="7.63965">
        <ele>1940.01671</ele>
        <time>2021-07-09T14:20:39.000Z</time>
      </trkpt>
      <trkpt lat="45.453035" lon="7.639698">
        <ele>1940.33865</ele>
        <time>2021-07-09T14:20:45.000Z</time>
      </trkpt>
      <trkpt lat="45.453053" lon="7.639737">
        <ele>1941.61946</ele>
        <time>2021-07-09T14:20:51.000Z</time>
      </trkpt>
      <trkpt lat="45.45308" lon="7.639775">
        <ele>1943.35309</ele>
        <time>2021-07-09T14:20:57.000Z</time>
      </trkpt>
      <trkpt lat="45.453098" lon="7.639824">
        <ele>1944.35595</ele>
        <time>2021-07-09T14:21:03.000Z</time>
      </trkpt>
      <trkpt lat="45.453113" lon="7.639845">
        <ele>1945.15423</ele>
        <time>2021-07-09T14:21:09.000Z</time>
      </trkpt>
      <trkpt lat="45.453123" lon="7.639871">
        <ele>1945.6124</ele>
        <time>2021-07-09T14:21:15.000Z</time>
      </trkpt>
      <trkpt lat="45.453136" lon="7.639878">
        <ele>1946.28785</ele>
        <time>2021-07-09T14:21:20.000Z</time>
      </trkpt>
      <trkpt lat="45.453144" lon="7.639884">
        <ele>1946.69023</ele>
        <time>2021-07-09T14:21:25.000Z</time>
      </trkpt>
      <trkpt lat="45.453143" lon="7.639885">
        <ele>1946.63278</ele>
        <time>2021-07-09T14:21:31.000Z</time>
      </trkpt>
      <trkpt lat="45.453168" lon="7.639932">
        <ele>1947.7628</ele>
        <time>2021-07-09T14:21:42.000Z</time>
      </trkpt>
      <trkpt lat="45.45317" lon="7.639935">
        <ele>1947.85784</ele>
        <time>2021-07-09T14:21:48.000Z</time>
      </trkpt>
      <trkpt lat="45.453207" lon="7.639999">
        <ele>1949.65482</ele>
        <time>2021-07-09T14:22:04.000Z</time>
      </trkpt>
      <trkpt lat="45.453214" lon="7.640022">
        <ele>1949.96732</ele>
        <time>2021-07-09T14:22:10.000Z</time>
      </trkpt>
      <trkpt lat="45.453225" lon="7.640032">
        <ele>1950.56505</ele>
        <time>2021-07-09T14:22:15.000Z</time>
      </trkpt>
      <trkpt lat="45.453243" lon="7.64004">
        <ele>1951.57274</ele>
        <time>2021-07-09T14:22:21.000Z</time>
      </trkpt>
      <trkpt lat="45.453257" lon="7.640048">
        <ele>1952.34183</ele>
        <time>2021-07-09T14:22:45.000Z</time>
      </trkpt>
      <trkpt lat="45.453283" lon="7.640033">
        <ele>1953.80651</ele>
        <time>2021-07-09T14:22:51.000Z</time>
      </trkpt>
      <trkpt lat="45.453305" lon="7.640022">
        <ele>1954.97994</ele>
        <time>2021-07-09T14:22:57.000Z</time>
      </trkpt>
      <trkpt lat="45.453311" lon="7.640009">
        <ele>1955.31043</ele>
        <time>2021-07-09T14:23:03.000Z</time>
      </trkpt>
      <trkpt lat="45.453319" lon="7.640038">
        <ele>1955.66281</ele>
        <time>2021-07-09T14:23:09.000Z</time>
      </trkpt>
      <trkpt lat="45.453341" lon="7.640048">
        <ele>1956.75381</ele>
        <time>2021-07-09T14:23:15.000Z</time>
      </trkpt>
      <trkpt lat="45.453363" lon="7.640035">
        <ele>1957.89483</ele>
        <time>2021-07-09T14:23:21.000Z</time>
      </trkpt>
      <trkpt lat="45.453379" lon="7.639992">
        <ele>1958.79011</ele>
        <time>2021-07-09T14:23:27.000Z</time>
      </trkpt>
      <trkpt lat="45.453398" lon="7.639951">
        <ele>1959.84625</ele>
        <time>2021-07-09T14:23:33.000Z</time>
      </trkpt>
      <trkpt lat="45.453422" lon="7.639929">
        <ele>1961.16998</ele>
        <time>2021-07-09T14:23:39.000Z</time>
      </trkpt>
      <trkpt lat="45.453425" lon="7.639912">
        <ele>1961.35941</ele>
        <time>2021-07-09T14:23:45.000Z</time>
      </trkpt>
      <trkpt lat="45.453426" lon="7.639903">
        <ele>1961.42685</ele>
        <time>2021-07-09T14:23:51.000Z</time>
      </trkpt>
      <trkpt lat="45.453464" lon="7.639866">
        <ele>1963.5904</ele>
        <time>2021-07-09T14:24:15.000Z</time>
      </trkpt>
      <trkpt lat="45.453467" lon="7.639858">
        <ele>1963.76607</ele>
        <time>2021-07-09T14:24:21.000Z</time>
      </trkpt>
      <trkpt lat="45.453474" lon="7.639822">
        <ele>1964.17973</ele>
        <time>2021-07-09T14:24:27.000Z</time>
      </trkpt>
      <trkpt lat="45.453487" lon="7.639806">
        <ele>1964.93519</ele>
        <time>2021-07-09T14:24:33.000Z</time>
      </trkpt>
      <trkpt lat="45.453505" lon="7.639783">
        <ele>1966.00119</ele>
        <time>2021-07-09T14:24:38.000Z</time>
      </trkpt>
      <trkpt lat="45.453523" lon="7.639737">
        <ele>1967.13366</ele>
        <time>2021-07-09T14:24:44.000Z</time>
      </trkpt>
      <trkpt lat="45.453529" lon="7.639707">
        <ele>1967.53348</ele>
        <time>2021-07-09T14:24:49.000Z</time>
      </trkpt>
      <trkpt lat="45.453542" lon="7.639682">
        <ele>1968.27437</ele>
        <time>2021-07-09T14:24:55.000Z</time>
      </trkpt>
      <trkpt lat="45.453537" lon="7.639642">
        <ele>1967.96102</ele>
        <time>2021-07-09T14:25:01.000Z</time>
      </trkpt>
      <trkpt lat="45.453538" lon="7.639612">
        <ele>1967.8879</ele>
        <time>2021-07-09T14:25:06.000Z</time>
      </trkpt>
      <trkpt lat="45.453544" lon="7.63959">
        <ele>1968.04518</ele>
        <time>2021-07-09T14:25:12.000Z</time>
      </trkpt>
      <trkpt lat="45.45355" lon="7.639593">
        <ele>1968.38683</ele>
        <time>2021-07-09T14:25:18.000Z</time>
      </trkpt>
      <trkpt lat="45.453592" lon="7.639573">
        <ele>1970.26344</ele>
        <time>2021-07-09T14:25:24.000Z</time>
      </trkpt>
      <trkpt lat="45.453622" lon="7.639563">
        <ele>1971.43968</ele>
        <time>2021-07-09T14:25:30.000Z</time>
      </trkpt>
      <trkpt lat="45.45364" lon="7.639541">
        <ele>1971.80891</ele>
        <time>2021-07-09T14:25:36.000Z</time>
      </trkpt>
      <trkpt lat="45.453661" lon="7.639544">
        <ele>1972.63202</ele>
        <time>2021-07-09T14:25:41.000Z</time>
      </trkpt>
      <trkpt lat="45.45368" lon="7.639552">
        <ele>1973.4405</ele>
        <time>2021-07-09T14:25:46.000Z</time>
      </trkpt>
      <trkpt lat="45.453702" lon="7.639545">
        <ele>1974.03144</ele>
        <time>2021-07-09T14:25:52.000Z</time>
      </trkpt>
      <trkpt lat="45.453729" lon="7.639541">
        <ele>1974.77953</ele>
        <time>2021-07-09T14:25:58.000Z</time>
      </trkpt>
      <trkpt lat="45.453758" lon="7.639539">
        <ele>1975.58012</ele>
        <time>2021-07-09T14:26:03.000Z</time>
      </trkpt>
      <trkpt lat="45.453763" lon="7.639551">
        <ele>1976.01732</ele>
        <time>2021-07-09T14:26:09.000Z</time>
      </trkpt>
      <trkpt lat="45.453762" lon="7.639553">
        <ele>1976.03611</ele>
        <time>2021-07-09T14:26:15.000Z</time>
      </trkpt>
      <trkpt lat="45.453757" lon="7.639569">
        <ele>1976.25807</ele>
        <time>2021-07-09T14:26:21.000Z</time>
      </trkpt>
      <trkpt lat="45.453759" lon="7.639592">
        <ele>1976.82154</ele>
        <time>2021-07-09T14:26:27.000Z</time>
      </trkpt>
      <trkpt lat="45.453792" lon="7.639589">
        <ele>1977.78193</ele>
        <time>2021-07-09T14:26:33.000Z</time>
      </trkpt>
      <trkpt lat="45.453794" lon="7.639594">
        <ele>1977.95855</ele>
        <time>2021-07-09T14:26:39.000Z</time>
      </trkpt>
      <trkpt lat="45.453787" lon="7.639597">
        <ele>1977.81241</ele>
        <time>2021-07-09T14:26:45.000Z</time>
      </trkpt>
      <trkpt lat="45.453794" lon="7.639603">
        <ele>1978.16451</ele>
        <time>2021-07-09T14:26:51.000Z</time>
      </trkpt>
      <trkpt lat="45.453825" lon="7.639609">
        <ele>1979.22742</ele>
        <time>2021-07-09T14:26:57.000Z</time>
      </trkpt>
      <trkpt lat="45.453846" lon="7.639638">
        <ele>1980.52039</ele>
        <time>2021-07-09T14:27:03.000Z</time>
      </trkpt>
      <trkpt lat="45.453859" lon="7.639675">
        <ele>1981.74668</ele>
        <time>2021-07-09T14:27:09.000Z</time>
      </trkpt>
      <trkpt lat="45.453876" lon="7.639694">
        <ele>1982.66366</ele>
        <time>2021-07-09T14:27:15.000Z</time>
      </trkpt>
      <trkpt lat="45.453887" lon="7.63972">
        <ele>1983.54385</ele>
        <time>2021-07-09T14:27:20.000Z</time>
      </trkpt>
      <trkpt lat="45.453914" lon="7.639728">
        <ele>1984.47409</ele>
        <time>2021-07-09T14:27:26.000Z</time>
      </trkpt>
      <trkpt lat="45.453929" lon="7.639752">
        <ele>1985.39168</ele>
        <time>2021-07-09T14:27:31.000Z</time>
      </trkpt>
      <trkpt lat="45.453938" lon="7.639778">
        <ele>1986.16579</ele>
        <time>2021-07-09T14:27:36.000Z</time>
      </trkpt>
      <trkpt lat="45.453941" lon="7.639807">
        <ele>1986.80552</ele>
        <time>2021-07-09T14:27:42.000Z</time>
      </trkpt>
      <trkpt lat="45.45394" lon="7.6398">
        <ele>1986.64689</ele>
        <time>2021-07-09T14:27:48.000Z</time>
      </trkpt>
      <trkpt lat="45.453967" lon="7.639798">
        <ele>1987.33234</ele>
        <time>2021-07-09T14:28:00.000Z</time>
      </trkpt>
      <trkpt lat="45.453994" lon="7.639788">
        <ele>1987.75982</ele>
        <time>2021-07-09T14:28:06.000Z</time>
      </trkpt>
      <trkpt lat="45.454004" lon="7.639805">
        <ele>1988.32259</ele>
        <time>2021-07-09T14:28:11.000Z</time>
      </trkpt>
      <trkpt lat="45.454008" lon="7.63985">
        <ele>1989.30064</ele>
        <time>2021-07-09T14:28:17.000Z</time>
      </trkpt>
      <trkpt lat="45.454025" lon="7.639879">
        <ele>1990.19576</ele>
        <time>2021-07-09T14:28:22.000Z</time>
      </trkpt>
      <trkpt lat="45.454034" lon="7.639908">
        <ele>1990.91349</ele>
        <time>2021-07-09T14:28:27.000Z</time>
      </trkpt>
      <trkpt lat="45.45404" lon="7.639942">
        <ele>1991.64671</ele>
        <time>2021-07-09T14:28:33.000Z</time>
      </trkpt>
      <trkpt lat="45.454054" lon="7.639967">
        <ele>1992.43399</ele>
        <time>2021-07-09T14:28:38.000Z</time>
      </trkpt>
      <trkpt lat="45.454055" lon="7.639977">
        <ele>1992.63517</ele>
        <time>2021-07-09T14:28:44.000Z</time>
      </trkpt>
      <trkpt lat="45.454064" lon="7.63999">
        <ele>1993.11104</ele>
        <time>2021-07-09T14:28:49.000Z</time>
      </trkpt>
      <trkpt lat="45.454089" lon="7.640018">
        <ele>1994.36489</ele>
        <time>2021-07-09T14:28:55.000Z</time>
      </trkpt>
      <trkpt lat="45.454121" lon="7.640024">
        <ele>1995.52255</ele>
        <time>2021-07-09T14:29:01.000Z</time>
      </trkpt>
      <trkpt lat="45.454141" lon="7.640038">
        <ele>1996.54256</ele>
        <time>2021-07-09T14:29:07.000Z</time>
      </trkpt>
      <trkpt lat="45.454141" lon="7.640068">
        <ele>1997.19566</ele>
        <time>2021-07-09T14:29:13.000Z</time>
      </trkpt>
      <trkpt lat="45.454142" lon="7.640069">
        <ele>1997.25602</ele>
        <time>2021-07-09T14:29:19.000Z</time>
      </trkpt>
      <trkpt lat="45.454159" lon="7.640074">
        <ele>1998.05445</ele>
        <time>2021-07-09T14:29:24.000Z</time>
      </trkpt>
      <trkpt lat="45.454192" lon="7.640079">
        <ele>1999.6387</ele>
        <time>2021-07-09T14:29:30.000Z</time>
      </trkpt>
      <trkpt lat="45.454193" lon="7.64008">
        <ele>1999.70859</ele>
        <time>2021-07-09T14:29:36.000Z</time>
      </trkpt>
      <trkpt lat="45.454192" lon="7.640088">
        <ele>1999.84537</ele>
        <time>2021-07-09T14:29:59.000Z</time>
      </trkpt>
      <trkpt lat="45.454207" lon="7.640101">
        <ele>2000.86002</ele>
        <time>2021-07-09T14:30:04.000Z</time>
      </trkpt>
      <trkpt lat="45.45423" lon="7.640092">
        <ele>2001.77583</ele>
        <time>2021-07-09T14:30:09.000Z</time>
      </trkpt>
      <trkpt lat="45.454253" lon="7.640082">
        <ele>2002.65077</ele>
        <time>2021-07-09T14:30:15.000Z</time>
      </trkpt>
      <trkpt lat="45.454285" lon="7.640056">
        <ele>2003.44086</ele>
        <time>2021-07-09T14:30:21.000Z</time>
      </trkpt>
      <trkpt lat="45.454308" lon="7.640045">
        <ele>2004.09808</ele>
        <time>2021-07-09T14:30:27.000Z</time>
      </trkpt>
      <trkpt lat="45.454316" lon="7.640042">
        <ele>2004.3261</ele>
        <time>2021-07-09T14:30:33.000Z</time>
      </trkpt>
      <trkpt lat="45.454346" lon="7.64003">
        <ele>2005.02388</ele>
        <time>2021-07-09T14:30:39.000Z</time>
      </trkpt>
      <trkpt lat="45.454348" lon="7.64003">
        <ele>2005.09155</ele>
        <time>2021-07-09T14:30:45.000Z</time>
      </trkpt>
      <trkpt lat="45.454368" lon="7.640036">
        <ele>2005.95091</ele>
        <time>2021-07-09T14:30:57.000Z</time>
      </trkpt>
      <trkpt lat="45.454397" lon="7.640041">
        <ele>2006.99525</ele>
        <time>2021-07-09T14:31:03.000Z</time>
      </trkpt>
      <trkpt lat="45.454415" lon="7.64005">
        <ele>2007.81704</ele>
        <time>2021-07-09T14:31:09.000Z</time>
      </trkpt>
      <trkpt lat="45.454399" lon="7.640074">
        <ele>2008.1471</ele>
        <time>2021-07-09T14:31:15.000Z</time>
      </trkpt>
      <trkpt lat="45.45439" lon="7.640107">
        <ele>2008.85802</ele>
        <time>2021-07-09T14:31:21.000Z</time>
      </trkpt>
      <trkpt lat="45.454401" lon="7.64014">
        <ele>2010.10727</ele>
        <time>2021-07-09T14:31:27.000Z</time>
      </trkpt>
      <trkpt lat="45.454398" lon="7.640163">
        <ele>2010.59787</ele>
        <time>2021-07-09T14:31:33.000Z</time>
      </trkpt>
      <trkpt lat="45.454415" lon="7.640189">
        <ele>2011.79174</ele>
        <time>2021-07-09T14:31:51.000Z</time>
      </trkpt>
      <trkpt lat="45.454453" lon="7.640212">
        <ele>2013.59919</ele>
        <time>2021-07-09T14:31:57.000Z</time>
      </trkpt>
      <trkpt lat="45.454468" lon="7.640226">
        <ele>2014.44485</ele>
        <time>2021-07-09T14:32:03.000Z</time>
      </trkpt>
      <trkpt lat="45.454472" lon="7.640255">
        <ele>2015.2915</ele>
        <time>2021-07-09T14:32:09.000Z</time>
      </trkpt>
      <trkpt lat="45.454492" lon="7.640275">
        <ele>2016.48851</ele>
        <time>2021-07-09T14:32:15.000Z</time>
      </trkpt>
      <trkpt lat="45.454501" lon="7.640257">
        <ele>2016.36336</ele>
        <time>2021-07-09T14:32:21.000Z</time>
      </trkpt>
      <trkpt lat="45.454514" lon="7.640272">
        <ele>2017.21539</ele>
        <time>2021-07-09T14:32:27.000Z</time>
      </trkpt>
      <trkpt lat="45.45451" lon="7.640299">
        <ele>2017.74376</ele>
        <time>2021-07-09T14:32:33.000Z</time>
      </trkpt>
      <trkpt lat="45.45451" lon="7.640326">
        <ele>2018.40345</ele>
        <time>2021-07-09T14:32:39.000Z</time>
      </trkpt>
      <trkpt lat="45.454527" lon="7.640329">
        <ele>2019.13929</ele>
        <time>2021-07-09T14:32:45.000Z</time>
      </trkpt>
      <trkpt lat="45.454528" lon="7.640328">
        <ele>2019.15307</ele>
        <time>2021-07-09T14:32:51.000Z</time>
      </trkpt>
      <trkpt lat="45.454552" lon="7.640367">
        <ele>2021.0785</ele>
        <time>2021-07-09T14:33:33.000Z</time>
      </trkpt>
      <trkpt lat="45.454588" lon="7.640387">
        <ele>2023.02943</ele>
        <time>2021-07-09T14:33:39.000Z</time>
      </trkpt>
      <trkpt lat="45.454601" lon="7.640401">
        <ele>2023.92174</ele>
        <time>2021-07-09T14:33:45.000Z</time>
      </trkpt>
      <trkpt lat="45.454606" lon="7.640408">
        <ele>2024.30973</ele>
        <time>2021-07-09T14:33:51.000Z</time>
      </trkpt>
      <trkpt lat="45.454634" lon="7.640385">
        <ele>2024.79796</ele>
        <time>2021-07-09T14:33:57.000Z</time>
      </trkpt>
      <trkpt lat="45.454654" lon="7.640376">
        <ele>2025.32735</ele>
        <time>2021-07-09T14:34:03.000Z</time>
      </trkpt>
      <trkpt lat="45.454652" lon="7.64041">
        <ele>2026.22756</ele>
        <time>2021-07-09T14:34:09.000Z</time>
      </trkpt>
      <trkpt lat="45.454663" lon="7.640455">
        <ele>2027.93004</ele>
        <time>2021-07-09T14:34:15.000Z</time>
      </trkpt>
      <trkpt lat="45.454691" lon="7.640449">
        <ele>2028.9579</ele>
        <time>2021-07-09T14:34:21.000Z</time>
      </trkpt>
      <trkpt lat="45.454703" lon="7.640458">
        <ele>2029.73102</ele>
        <time>2021-07-09T14:34:27.000Z</time>
      </trkpt>
      <trkpt lat="45.45471" lon="7.640456">
        <ele>2029.97876</ele>
        <time>2021-07-09T14:34:33.000Z</time>
      </trkpt>
      <trkpt lat="45.454734" lon="7.64046">
        <ele>2031.14997</ele>
        <time>2021-07-09T14:34:39.000Z</time>
      </trkpt>
      <trkpt lat="45.454746" lon="7.640472">
        <ele>2032.0386</ele>
        <time>2021-07-09T14:34:45.000Z</time>
      </trkpt>
      <trkpt lat="45.454745" lon="7.640501">
        <ele>2032.82422</ele>
        <time>2021-07-09T14:34:51.000Z</time>
      </trkpt>
      <trkpt lat="45.454744" lon="7.640538">
        <ele>2033.76044</ele>
        <time>2021-07-09T14:34:57.000Z</time>
      </trkpt>
      <trkpt lat="45.454721" lon="7.64055">
        <ele>2032.95881</ele>
        <time>2021-07-09T14:35:03.000Z</time>
      </trkpt>
      <trkpt lat="45.454721" lon="7.640563">
        <ele>2033.25722</ele>
        <time>2021-07-09T14:35:09.000Z</time>
      </trkpt>
      <trkpt lat="45.454743" lon="7.64058">
        <ele>2034.70624</ele>
        <time>2021-07-09T14:35:33.000Z</time>
      </trkpt>
      <trkpt lat="45.454773" lon="7.640587">
        <ele>2036.33971</ele>
        <time>2021-07-09T14:35:39.000Z</time>
      </trkpt>
      <trkpt lat="45.454784" lon="7.640606">
        <ele>2037.32163</ele>
        <time>2021-07-09T14:35:45.000Z</time>
      </trkpt>
      <trkpt lat="45.454795" lon="7.640612">
        <ele>2038.00464</ele>
        <time>2021-07-09T14:35:51.000Z</time>
      </trkpt>
      <trkpt lat="45.454819" lon="7.640597">
        <ele>2038.82032</ele>
        <time>2021-07-09T14:35:57.000Z</time>
      </trkpt>
      <trkpt lat="45.454841" lon="7.640573">
        <ele>2039.25186</ele>
        <time>2021-07-09T14:36:03.000Z</time>
      </trkpt>
      <trkpt lat="45.454873" lon="7.64056">
        <ele>2040.34526</ele>
        <time>2021-07-09T14:36:09.000Z</time>
      </trkpt>
      <trkpt lat="45.454898" lon="7.640556">
        <ele>2041.29386</ele>
        <time>2021-07-09T14:36:15.000Z</time>
      </trkpt>
      <trkpt lat="45.454921" lon="7.640551">
        <ele>2042.06882</ele>
        <time>2021-07-09T14:36:21.000Z</time>
      </trkpt>
      <trkpt lat="45.454946" lon="7.640561">
        <ele>2043.32597</ele>
        <time>2021-07-09T14:36:27.000Z</time>
      </trkpt>
      <trkpt lat="45.454968" lon="7.640571">
        <ele>2044.45346</ele>
        <time>2021-07-09T14:36:33.000Z</time>
      </trkpt>
      <trkpt lat="45.454983" lon="7.640568">
        <ele>2044.93356</ele>
        <time>2021-07-09T14:36:39.000Z</time>
      </trkpt>
      <trkpt lat="45.454987" lon="7.640573">
        <ele>2045.23473</ele>
        <time>2021-07-09T14:36:45.000Z</time>
      </trkpt>
      <trkpt lat="45.454972" lon="7.640625">
        <ele>2046.16008</ele>
        <time>2021-07-09T14:37:09.000Z</time>
      </trkpt>
      <trkpt lat="45.454975" lon="7.64064">
        <ele>2046.69287</ele>
        <time>2021-07-09T14:37:14.000Z</time>
      </trkpt>
      <trkpt lat="45.454972" lon="7.64068">
        <ele>2047.62469</ele>
        <time>2021-07-09T14:37:20.000Z</time>
      </trkpt>
      <trkpt lat="45.454972" lon="7.640704">
        <ele>2048.20993</ele>
        <time>2021-07-09T14:37:25.000Z</time>
      </trkpt>
      <trkpt lat="45.45498" lon="7.640731">
        <ele>2049.1588</ele>
        <time>2021-07-09T14:37:30.000Z</time>
      </trkpt>
      <trkpt lat="45.454996" lon="7.640764">
        <ele>2050.53353</ele>
        <time>2021-07-09T14:37:36.000Z</time>
      </trkpt>
      <trkpt lat="45.454996" lon="7.640785">
        <ele>2050.92164</ele>
        <time>2021-07-09T14:37:41.000Z</time>
      </trkpt>
      <trkpt lat="45.455007" lon="7.640796">
        <ele>2051.60825</ele>
        <time>2021-07-09T14:37:46.000Z</time>
      </trkpt>
      <trkpt lat="45.455015" lon="7.640818">
        <ele>2052.32328</ele>
        <time>2021-07-09T14:37:51.000Z</time>
      </trkpt>
      <trkpt lat="45.45501" lon="7.64084">
        <ele>2052.38134</ele>
        <time>2021-07-09T14:37:57.000Z</time>
      </trkpt>
      <trkpt lat="45.455004" lon="7.640851">
        <ele>2052.22578</ele>
        <time>2021-07-09T14:38:03.000Z</time>
      </trkpt>
      <trkpt lat="45.455002" lon="7.64089">
        <ele>2052.49673</ele>
        <time>2021-07-09T14:38:09.000Z</time>
      </trkpt>
      <trkpt lat="45.455011" lon="7.64093">
        <ele>2053.19258</ele>
        <time>2021-07-09T14:38:15.000Z</time>
      </trkpt>
      <trkpt lat="45.45503" lon="7.640977">
        <ele>2054.32674</ele>
        <time>2021-07-09T14:38:21.000Z</time>
      </trkpt>
      <trkpt lat="45.455032" lon="7.640976">
        <ele>2054.42877</ele>
        <time>2021-07-09T14:38:27.000Z</time>
      </trkpt>
      <trkpt lat="45.455054" lon="7.640971">
        <ele>2055.56945</ele>
        <time>2021-07-09T14:38:33.000Z</time>
      </trkpt>
      <trkpt lat="45.455085" lon="7.640985">
        <ele>2057.25658</ele>
        <time>2021-07-09T14:38:39.000Z</time>
      </trkpt>
      <trkpt lat="45.455094" lon="7.641004">
        <ele>2057.75393</ele>
        <time>2021-07-09T14:38:45.000Z</time>
      </trkpt>
      <trkpt lat="45.455109" lon="7.64103">
        <ele>2058.5267</ele>
        <time>2021-07-09T14:38:51.000Z</time>
      </trkpt>
      <trkpt lat="45.455115" lon="7.641045">
        <ele>2058.80707</ele>
        <time>2021-07-09T14:38:57.000Z</time>
      </trkpt>
      <trkpt lat="45.455139" lon="7.641067">
        <ele>2059.96551</ele>
        <time>2021-07-09T14:39:03.000Z</time>
      </trkpt>
      <trkpt lat="45.455164" lon="7.641086">
        <ele>2061.12489</ele>
        <time>2021-07-09T14:39:09.000Z</time>
      </trkpt>
      <trkpt lat="45.455181" lon="7.641106">
        <ele>2061.8226</ele>
        <time>2021-07-09T14:39:15.000Z</time>
      </trkpt>
      <trkpt lat="45.455189" lon="7.641114">
        <ele>2062.14499</ele>
        <time>2021-07-09T14:39:21.000Z</time>
      </trkpt>
      <trkpt lat="45.455193" lon="7.641113">
        <ele>2062.34559</ele>
        <time>2021-07-09T14:39:27.000Z</time>
      </trkpt>
      <trkpt lat="45.455216" lon="7.641104">
        <ele>2063.52746</ele>
        <time>2021-07-09T14:39:33.000Z</time>
      </trkpt>
      <trkpt lat="45.455231" lon="7.641086">
        <ele>2064.3994</ele>
        <time>2021-07-09T14:39:39.000Z</time>
      </trkpt>
      <trkpt lat="45.455243" lon="7.641104">
        <ele>2064.82623</ele>
        <time>2021-07-09T14:39:45.000Z</time>
      </trkpt>
      <trkpt lat="45.455257" lon="7.641125">
        <ele>2065.28768</ele>
        <time>2021-07-09T14:39:51.000Z</time>
      </trkpt>
      <trkpt lat="45.455279" lon="7.641164">
        <ele>2065.84727</ele>
        <time>2021-07-09T14:39:57.000Z</time>
      </trkpt>
      <trkpt lat="45.4553" lon="7.641191">
        <ele>2066.41674</ele>
        <time>2021-07-09T14:40:03.000Z</time>
      </trkpt>
      <trkpt lat="45.455304" lon="7.641195">
        <ele>2066.53496</ele>
        <time>2021-07-09T14:40:09.000Z</time>
      </trkpt>
      <trkpt lat="45.455346" lon="7.641226">
        <ele>2067.88813</ele>
        <time>2021-07-09T14:40:33.000Z</time>
      </trkpt>
      <trkpt lat="45.455349" lon="7.641187">
        <ele>2068.66978</ele>
        <time>2021-07-09T14:40:39.000Z</time>
      </trkpt>
      <trkpt lat="45.455331" lon="7.641133">
        <ele>2068.63134</ele>
        <time>2021-07-09T14:40:45.000Z</time>
      </trkpt>
      <trkpt lat="45.455323" lon="7.641097">
        <ele>2068.67441</ele>
        <time>2021-07-09T14:40:51.000Z</time>
      </trkpt>
      <trkpt lat="45.455342" lon="7.641069">
        <ele>2069.81957</ele>
        <time>2021-07-09T14:40:57.000Z</time>
      </trkpt>
      <trkpt lat="45.455357" lon="7.641066">
        <ele>2070.54337</ele>
        <time>2021-07-09T14:41:02.000Z</time>
      </trkpt>
      <trkpt lat="45.455362" lon="7.641037">
        <ele>2071.00897</ele>
        <time>2021-07-09T14:41:07.000Z</time>
      </trkpt>
      <trkpt lat="45.455367" lon="7.641028">
        <ele>2071.31305</ele>
        <time>2021-07-09T14:41:12.000Z</time>
      </trkpt>
      <trkpt lat="45.455379" lon="7.640977">
        <ele>2072.2285</ele>
        <time>2021-07-09T14:41:18.000Z</time>
      </trkpt>
      <trkpt lat="45.455394" lon="7.640927">
        <ele>2073.10116</ele>
        <time>2021-07-09T14:41:24.000Z</time>
      </trkpt>
      <trkpt lat="45.455417" lon="7.640894">
        <ele>2074.08937</ele>
        <time>2021-07-09T14:41:29.000Z</time>
      </trkpt>
      <trkpt lat="45.455434" lon="7.640882">
        <ele>2074.75347</ele>
        <time>2021-07-09T14:41:35.000Z</time>
      </trkpt>
      <trkpt lat="45.455447" lon="7.640902">
        <ele>2075.32991</ele>
        <time>2021-07-09T14:41:41.000Z</time>
      </trkpt>
      <trkpt lat="45.455464" lon="7.640897">
        <ele>2075.95371</ele>
        <time>2021-07-09T14:41:46.000Z</time>
      </trkpt>
      <trkpt lat="45.455481" lon="7.64088">
        <ele>2076.47529</ele>
        <time>2021-07-09T14:41:51.000Z</time>
      </trkpt>
      <trkpt lat="45.455491" lon="7.640846">
        <ele>2076.51957</ele>
        <time>2021-07-09T14:41:57.000Z</time>
      </trkpt>
      <trkpt lat="45.455511" lon="7.640813">
        <ele>2076.70804</ele>
        <time>2021-07-09T14:42:03.000Z</time>
      </trkpt>
      <trkpt lat="45.455531" lon="7.640778">
        <ele>2076.66036</ele>
        <time>2021-07-09T14:42:09.000Z</time>
      </trkpt>
      <trkpt lat="45.455564" lon="7.640765">
        <ele>2077.44694</ele>
        <time>2021-07-09T14:42:15.000Z</time>
      </trkpt>
      <trkpt lat="45.455571" lon="7.640785">
        <ele>2078.15341</ele>
        <time>2021-07-09T14:42:21.000Z</time>
      </trkpt>
      <trkpt lat="45.455572" lon="7.640795">
        <ele>2078.39922</ele>
        <time>2021-07-09T14:42:27.000Z</time>
      </trkpt>
      <trkpt lat="45.455572" lon="7.640794">
        <ele>2078.37888</ele>
        <time>2021-07-09T14:42:33.000Z</time>
      </trkpt>
      <trkpt lat="45.455607" lon="7.64081">
        <ele>2080.07875</ele>
        <time>2021-07-09T14:42:39.000Z</time>
      </trkpt>
      <trkpt lat="45.455632" lon="7.640833">
        <ele>2081.60862</ele>
        <time>2021-07-09T14:42:45.000Z</time>
      </trkpt>
      <trkpt lat="45.455651" lon="7.640839">
        <ele>2082.61199</ele>
        <time>2021-07-09T14:42:51.000Z</time>
      </trkpt>
      <trkpt lat="45.45566" lon="7.640837">
        <ele>2083.01678</ele>
        <time>2021-07-09T14:42:57.000Z</time>
      </trkpt>
      <trkpt lat="45.455665" lon="7.640905">
        <ele>2084.25996</ele>
        <time>2021-07-09T14:43:15.000Z</time>
      </trkpt>
      <trkpt lat="45.455674" lon="7.640932">
        <ele>2085.02899</ele>
        <time>2021-07-09T14:43:21.000Z</time>
      </trkpt>
      <trkpt lat="45.455693" lon="7.640976">
        <ele>2086.45168</ele>
        <time>2021-07-09T14:43:27.000Z</time>
      </trkpt>
      <trkpt lat="45.455702" lon="7.641013">
        <ele>2087.17425</ele>
        <time>2021-07-09T14:43:33.000Z</time>
      </trkpt>
      <trkpt lat="45.455698" lon="7.641014">
        <ele>2086.94718</ele>
        <time>2021-07-09T14:43:39.000Z</time>
      </trkpt>
      <trkpt lat="45.455709" lon="7.641045">
        <ele>2087.6706</ele>
        <time>2021-07-09T14:43:45.000Z</time>
      </trkpt>
      <trkpt lat="45.455726" lon="7.641072">
        <ele>2088.66654</ele>
        <time>2021-07-09T14:43:51.000Z</time>
      </trkpt>
      <trkpt lat="45.455756" lon="7.6411">
        <ele>2090.33193</ele>
        <time>2021-07-09T14:43:57.000Z</time>
      </trkpt>
      <trkpt lat="45.455774" lon="7.641117">
        <ele>2091.27997</ele>
        <time>2021-07-09T14:44:03.000Z</time>
      </trkpt>
      <trkpt lat="45.455785" lon="7.641095">
        <ele>2092.10911</ele>
        <time>2021-07-09T14:44:09.000Z</time>
      </trkpt>
      <trkpt lat="45.45579" lon="7.64106">
        <ele>2092.5361</ele>
        <time>2021-07-09T14:44:15.000Z</time>
      </trkpt>
      <trkpt lat="45.455793" lon="7.641052">
        <ele>2092.72058</ele>
        <time>2021-07-09T14:44:21.000Z</time>
      </trkpt>
      <trkpt lat="45.455805" lon="7.641039">
        <ele>2093.44894</ele>
        <time>2021-07-09T14:44:27.000Z</time>
      </trkpt>
      <trkpt lat="45.455826" lon="7.641021">
        <ele>2094.71755</ele>
        <time>2021-07-09T14:44:33.000Z</time>
      </trkpt>
      <trkpt lat="45.45584" lon="7.641056">
        <ele>2095.7359</ele>
        <time>2021-07-09T14:44:39.000Z</time>
      </trkpt>
      <trkpt lat="45.45586" lon="7.64108">
        <ele>2097.01022</ele>
        <time>2021-07-09T14:44:45.000Z</time>
      </trkpt>
      <trkpt lat="45.455875" lon="7.641103">
        <ele>2097.86105</ele>
        <time>2021-07-09T14:44:51.000Z</time>
      </trkpt>
      <trkpt lat="45.455878" lon="7.641142">
        <ele>2097.62091</ele>
        <time>2021-07-09T14:44:57.000Z</time>
      </trkpt>
      <trkpt lat="45.455898" lon="7.641181">
        <ele>2098.29613</ele>
        <time>2021-07-09T14:45:03.000Z</time>
      </trkpt>
      <trkpt lat="45.455912" lon="7.641198">
        <ele>2098.87315</ele>
        <time>2021-07-09T14:45:09.000Z</time>
      </trkpt>
      <trkpt lat="45.455921" lon="7.64124">
        <ele>2098.5658</ele>
        <time>2021-07-09T14:45:15.000Z</time>
      </trkpt>
      <trkpt lat="45.455934" lon="7.641287">
        <ele>2098.35179</ele>
        <time>2021-07-09T14:45:21.000Z</time>
      </trkpt>
      <trkpt lat="45.455964" lon="7.641334">
        <ele>2099.17685</ele>
        <time>2021-07-09T14:45:27.000Z</time>
      </trkpt>
      <trkpt lat="45.455994" lon="7.641361">
        <ele>2100.36448</ele>
        <time>2021-07-09T14:45:33.000Z</time>
      </trkpt>
      <trkpt lat="45.456007" lon="7.641393">
        <ele>2100.40514</ele>
        <time>2021-07-09T14:45:39.000Z</time>
      </trkpt>
      <trkpt lat="45.456008" lon="7.64139">
        <ele>2100.53832</ele>
        <time>2021-07-09T14:45:45.000Z</time>
      </trkpt>
      <trkpt lat="45.45601" lon="7.641387">
        <ele>2100.73259</ele>
        <time>2021-07-09T14:45:51.000Z</time>
      </trkpt>
      <trkpt lat="45.456072" lon="7.641439">
        <ele>2103.54694</ele>
        <time>2021-07-09T14:46:33.000Z</time>
      </trkpt>
      <trkpt lat="45.45608" lon="7.641442">
        <ele>2104.02364</ele>
        <time>2021-07-09T14:46:39.000Z</time>
      </trkpt>
      <trkpt lat="45.456152" lon="7.641441">
        <ele>2108.94654</ele>
        <time>2021-07-09T14:47:21.000Z</time>
      </trkpt>
      <trkpt lat="45.456167" lon="7.641406">
        <ele>2110.52721</ele>
        <time>2021-07-09T14:47:27.000Z</time>
      </trkpt>
      <trkpt lat="45.456168" lon="7.641403">
        <ele>2110.64088</ele>
        <time>2021-07-09T14:47:33.000Z</time>
      </trkpt>
      <trkpt lat="45.456183" lon="7.641385">
        <ele>2111.93057</ele>
        <time>2021-07-09T14:47:39.000Z</time>
      </trkpt>
      <trkpt lat="45.456179" lon="7.641336">
        <ele>2112.34432</ele>
        <time>2021-07-09T14:47:45.000Z</time>
      </trkpt>
      <trkpt lat="45.456191" lon="7.641336">
        <ele>2113.14746</ele>
        <time>2021-07-09T14:47:51.000Z</time>
      </trkpt>
      <trkpt lat="45.456197" lon="7.641338">
        <ele>2113.52548</ele>
        <time>2021-07-09T14:47:57.000Z</time>
      </trkpt>
      <trkpt lat="45.456248" lon="7.64134">
        <ele>2116.98898</ele>
        <time>2021-07-09T14:48:38.000Z</time>
      </trkpt>
      <trkpt lat="45.456288" lon="7.641351">
        <ele>2119.60301</ele>
        <time>2021-07-09T14:48:43.000Z</time>
      </trkpt>
      <trkpt lat="45.456303" lon="7.64138">
        <ele>2120.30563</ele>
        <time>2021-07-09T14:48:48.000Z</time>
      </trkpt>
      <trkpt lat="45.456305" lon="7.641417">
        <ele>2120.02429</ele>
        <time>2021-07-09T14:48:54.000Z</time>
      </trkpt>
      <trkpt lat="45.456311" lon="7.641449">
        <ele>2120.0264</ele>
        <time>2021-07-09T14:48:59.000Z</time>
      </trkpt>
      <trkpt lat="45.456322" lon="7.641458">
        <ele>2120.63061</ele>
        <time>2021-07-09T14:49:05.000Z</time>
      </trkpt>
      <trkpt lat="45.456323" lon="7.641451">
        <ele>2120.79177</ele>
        <time>2021-07-09T14:49:10.000Z</time>
      </trkpt>
      <trkpt lat="45.456343" lon="7.641447">
        <ele>2122.1296</ele>
        <time>2021-07-09T14:49:21.000Z</time>
      </trkpt>
      <trkpt lat="45.456347" lon="7.641442">
        <ele>2122.45047</ele>
        <time>2021-07-09T14:49:27.000Z</time>
      </trkpt>
      <trkpt lat="45.456391" lon="7.641447">
        <ele>2125.10248</ele>
        <time>2021-07-09T14:49:45.000Z</time>
      </trkpt>
      <trkpt lat="45.456416" lon="7.641457">
        <ele>2126.42343</ele>
        <time>2021-07-09T14:49:51.000Z</time>
      </trkpt>
      <trkpt lat="45.45643" lon="7.641452">
        <ele>2127.32017</ele>
        <time>2021-07-09T14:49:57.000Z</time>
      </trkpt>
      <trkpt lat="45.456433" lon="7.641461">
        <ele>2127.33155</ele>
        <time>2021-07-09T14:50:03.000Z</time>
      </trkpt>
      <trkpt lat="45.456431" lon="7.641484">
        <ele>2126.78809</ele>
        <time>2021-07-09T14:50:15.000Z</time>
      </trkpt>
      <trkpt lat="45.456437" lon="7.641486">
        <ele>2127.08334</ele>
        <time>2021-07-09T14:50:21.000Z</time>
      </trkpt>
      <trkpt lat="45.456465" lon="7.641469">
        <ele>2128.96201</ele>
        <time>2021-07-09T14:50:27.000Z</time>
      </trkpt>
      <trkpt lat="45.456495" lon="7.641483">
        <ele>2130.27679</ele>
        <time>2021-07-09T14:50:33.000Z</time>
      </trkpt>
      <trkpt lat="45.456509" lon="7.6415">
        <ele>2130.63238</ele>
        <time>2021-07-09T14:50:39.000Z</time>
      </trkpt>
      <trkpt lat="45.456514" lon="7.641528">
        <ele>2130.24977</ele>
        <time>2021-07-09T14:50:45.000Z</time>
      </trkpt>
      <trkpt lat="45.456544" lon="7.641526">
        <ele>2131.78604</ele>
        <time>2021-07-09T14:50:51.000Z</time>
      </trkpt>
      <trkpt lat="45.456557" lon="7.64154">
        <ele>2132.08412</ele>
        <time>2021-07-09T14:50:57.000Z</time>
      </trkpt>
      <trkpt lat="45.456555" lon="7.64152">
        <ele>2132.45183</ele>
        <time>2021-07-09T14:51:03.000Z</time>
      </trkpt>
      <trkpt lat="45.456555" lon="7.641512">
        <ele>2132.63678</ele>
        <time>2021-07-09T14:51:09.000Z</time>
      </trkpt>
      <trkpt lat="45.456578" lon="7.641488">
        <ele>2134.26882</ele>
        <time>2021-07-09T14:51:15.000Z</time>
      </trkpt>
      <trkpt lat="45.456582" lon="7.641462">
        <ele>2135.04665</ele>
        <time>2021-07-09T14:51:21.000Z</time>
      </trkpt>
      <trkpt lat="45.456579" lon="7.641465">
        <ele>2134.83947</ele>
        <time>2021-07-09T14:51:27.000Z</time>
      </trkpt>
      <trkpt lat="45.456581" lon="7.641441">
        <ele>2135.46503</ele>
        <time>2021-07-09T14:51:39.000Z</time>
      </trkpt>
      <trkpt lat="45.456595" lon="7.641435">
        <ele>2136.24715</ele>
        <time>2021-07-09T14:51:45.000Z</time>
      </trkpt>
      <trkpt lat="45.456619" lon="7.641445">
        <ele>2137.12755</ele>
        <time>2021-07-09T14:51:51.000Z</time>
      </trkpt>
      <trkpt lat="45.456646" lon="7.641456">
        <ele>2138.10959</ele>
        <time>2021-07-09T14:51:57.000Z</time>
      </trkpt>
      <trkpt lat="45.456666" lon="7.641501">
        <ele>2138.01996</ele>
        <time>2021-07-09T14:52:03.000Z</time>
      </trkpt>
      <trkpt lat="45.456688" lon="7.64152">
        <ele>2138.66946</ele>
        <time>2021-07-09T14:52:09.000Z</time>
      </trkpt>
      <trkpt lat="45.456707" lon="7.641543">
        <ele>2139.15869</ele>
        <time>2021-07-09T14:52:15.000Z</time>
      </trkpt>
      <trkpt lat="45.456717" lon="7.641557">
        <ele>2139.40106</ele>
        <time>2021-07-09T14:52:21.000Z</time>
      </trkpt>
      <trkpt lat="45.45674" lon="7.641579">
        <ele>2140.18817</ele>
        <time>2021-07-09T14:52:27.000Z</time>
      </trkpt>
      <trkpt lat="45.456761" lon="7.641604">
        <ele>2140.84278</ele>
        <time>2021-07-09T14:52:33.000Z</time>
      </trkpt>
      <trkpt lat="45.456776" lon="7.641622">
        <ele>2141.32356</ele>
        <time>2021-07-09T14:52:39.000Z</time>
      </trkpt>
      <trkpt lat="45.456787" lon="7.641636">
        <ele>2141.66673</ele>
        <time>2021-07-09T14:52:45.000Z</time>
      </trkpt>
      <trkpt lat="45.456813" lon="7.641658">
        <ele>2142.72306</ele>
        <time>2021-07-09T14:52:51.000Z</time>
      </trkpt>
      <trkpt lat="45.456844" lon="7.641671">
        <ele>2144.28203</ele>
        <time>2021-07-09T14:52:57.000Z</time>
      </trkpt>
      <trkpt lat="45.456851" lon="7.641682">
        <ele>2144.47488</ele>
        <time>2021-07-09T14:53:03.000Z</time>
      </trkpt>
      <trkpt lat="45.456892" lon="7.6417">
        <ele>2146.57845</ele>
        <time>2021-07-09T14:53:21.000Z</time>
      </trkpt>
      <trkpt lat="45.456918" lon="7.641709">
        <ele>2148.00352</ele>
        <time>2021-07-09T14:53:27.000Z</time>
      </trkpt>
      <trkpt lat="45.456926" lon="7.641695">
        <ele>2148.76162</ele>
        <time>2021-07-09T14:53:33.000Z</time>
      </trkpt>
      <trkpt lat="45.456927" lon="7.641693">
        <ele>2148.86017</ele>
        <time>2021-07-09T14:53:39.000Z</time>
      </trkpt>
      <trkpt lat="45.456944" lon="7.641697">
        <ele>2149.84211</ele>
        <time>2021-07-09T14:53:51.000Z</time>
      </trkpt>
      <trkpt lat="45.456967" lon="7.641692">
        <ele>2151.36362</ele>
        <time>2021-07-09T14:54:07.000Z</time>
      </trkpt>
      <trkpt lat="45.45699" lon="7.6417">
        <ele>2152.67479</ele>
        <time>2021-07-09T14:54:13.000Z</time>
      </trkpt>
      <trkpt lat="45.457" lon="7.641727">
        <ele>2152.86302</ele>
        <time>2021-07-09T14:54:18.000Z</time>
      </trkpt>
      <trkpt lat="45.45701" lon="7.641733">
        <ele>2153.40143</ele>
        <time>2021-07-09T14:54:23.000Z</time>
      </trkpt>
      <trkpt lat="45.457012" lon="7.641732">
        <ele>2153.54579</ele>
        <time>2021-07-09T14:54:28.000Z</time>
      </trkpt>
      <trkpt lat="45.457046" lon="7.641691">
        <ele>2156.33576</ele>
        <time>2021-07-09T14:54:45.000Z</time>
      </trkpt>
      <trkpt lat="45.457048" lon="7.641688">
        <ele>2156.50485</ele>
        <time>2021-07-09T14:54:51.000Z</time>
      </trkpt>
      <trkpt lat="45.457067" lon="7.641707">
        <ele>2157.41459</ele>
        <time>2021-07-09T14:54:57.000Z</time>
      </trkpt>
      <trkpt lat="45.457082" lon="7.641722">
        <ele>2158.12236</ele>
        <time>2021-07-09T14:55:03.000Z</time>
      </trkpt>
      <trkpt lat="45.457083" lon="7.641725">
        <ele>2158.13791</ele>
        <time>2021-07-09T14:55:09.000Z</time>
      </trkpt>
      <trkpt lat="45.45711" lon="7.641756">
        <ele>2159.31438</ele>
        <time>2021-07-09T14:55:27.000Z</time>
      </trkpt>
      <trkpt lat="45.457113" lon="7.64177">
        <ele>2159.2666</ele>
        <time>2021-07-09T14:55:33.000Z</time>
      </trkpt>
      <trkpt lat="45.457119" lon="7.641812">
        <ele>2158.89769</ele>
        <time>2021-07-09T14:55:39.000Z</time>
      </trkpt>
      <trkpt lat="45.457123" lon="7.641861">
        <ele>2158.09329</ele>
        <time>2021-07-09T14:55:45.000Z</time>
      </trkpt>
      <trkpt lat="45.457139" lon="7.641883">
        <ele>2158.56053</ele>
        <time>2021-07-09T14:55:51.000Z</time>
      </trkpt>
      <trkpt lat="45.457138" lon="7.641891">
        <ele>2158.30887</ele>
        <time>2021-07-09T14:55:57.000Z</time>
      </trkpt>
      <trkpt lat="45.457166" lon="7.641935">
        <ele>2158.99497</ele>
        <time>2021-07-09T14:56:15.000Z</time>
      </trkpt>
      <trkpt lat="45.457189" lon="7.641965">
        <ele>2159.77163</ele>
        <time>2021-07-09T14:56:20.000Z</time>
      </trkpt>
      <trkpt lat="45.457203" lon="7.641975">
        <ele>2160.45812</ele>
        <time>2021-07-09T14:56:26.000Z</time>
      </trkpt>
      <trkpt lat="45.457237" lon="7.641979">
        <ele>2162.5962</ele>
        <time>2021-07-09T14:56:31.000Z</time>
      </trkpt>
      <trkpt lat="45.457258" lon="7.641997">
        <ele>2163.68223</ele>
        <time>2021-07-09T14:56:37.000Z</time>
      </trkpt>
      <trkpt lat="45.45726" lon="7.642002">
        <ele>2163.73599</ele>
        <time>2021-07-09T14:56:42.000Z</time>
      </trkpt>
      <trkpt lat="45.457268" lon="7.64202">
        <ele>2164.01598</ele>
        <time>2021-07-09T14:56:48.000Z</time>
      </trkpt>
      <trkpt lat="45.457258" lon="7.64203">
        <ele>2163.20328</ele>
        <time>2021-07-09T14:56:59.000Z</time>
      </trkpt>
      <trkpt lat="45.45726" lon="7.642038">
        <ele>2163.24851</ele>
        <time>2021-07-09T14:57:04.000Z</time>
      </trkpt>
      <trkpt lat="45.457306" lon="7.642136">
        <ele>2165.93408</ele>
        <time>2021-07-09T14:57:33.000Z</time>
      </trkpt>
      <trkpt lat="45.457323" lon="7.642161">
        <ele>2167.16222</ele>
        <time>2021-07-09T14:57:39.000Z</time>
      </trkpt>
      <trkpt lat="45.45734" lon="7.642188">
        <ele>2168.45206</ele>
        <time>2021-07-09T14:57:45.000Z</time>
      </trkpt>
      <trkpt lat="45.457355" lon="7.642197">
        <ele>2169.57638</ele>
        <time>2021-07-09T14:57:51.000Z</time>
      </trkpt>
      <trkpt lat="45.457341" lon="7.642195">
        <ele>2168.54589</ele>
        <time>2021-07-09T14:57:57.000Z</time>
      </trkpt>
      <trkpt lat="45.457362" lon="7.64219">
        <ele>2170.06409</ele>
        <time>2021-07-09T14:58:03.000Z</time>
      </trkpt>
      <trkpt lat="45.457356" lon="7.642194">
        <ele>2169.63936</ele>
        <time>2021-07-09T14:58:09.000Z</time>
      </trkpt>
      <trkpt lat="45.457358" lon="7.642218">
        <ele>2169.87928</ele>
        <time>2021-07-09T14:58:15.000Z</time>
      </trkpt>
      <trkpt lat="45.457369" lon="7.642262">
        <ele>2170.92761</ele>
        <time>2021-07-09T14:58:21.000Z</time>
      </trkpt>
      <trkpt lat="45.457391" lon="7.642257">
        <ele>2172.49642</ele>
        <time>2021-07-09T14:58:27.000Z</time>
      </trkpt>
      <trkpt lat="45.457397" lon="7.642257">
        <ele>2172.9292</ele>
        <time>2021-07-09T14:58:33.000Z</time>
      </trkpt>
      <trkpt lat="45.457417" lon="7.642258">
        <ele>2174.36473</ele>
        <time>2021-07-09T14:58:45.000Z</time>
      </trkpt>
      <trkpt lat="45.457438" lon="7.642268">
        <ele>2175.90973</ele>
        <time>2021-07-09T14:58:51.000Z</time>
      </trkpt>
      <trkpt lat="45.457423" lon="7.642266">
        <ele>2174.84331</ele>
        <time>2021-07-09T14:59:03.000Z</time>
      </trkpt>
      <trkpt lat="45.457423" lon="7.642302">
        <ele>2175.12124</ele>
        <time>2021-07-09T14:59:09.000Z</time>
      </trkpt>
      <trkpt lat="45.457444" lon="7.642351">
        <ele>2177.17728</ele>
        <time>2021-07-09T14:59:15.000Z</time>
      </trkpt>
      <trkpt lat="45.457456" lon="7.642371">
        <ele>2178.33319</ele>
        <time>2021-07-09T14:59:21.000Z</time>
      </trkpt>
      <trkpt lat="45.457467" lon="7.642377">
        <ele>2179.21912</ele>
        <time>2021-07-09T14:59:27.000Z</time>
      </trkpt>
      <trkpt lat="45.457468" lon="7.642378">
        <ele>2179.30758</ele>
        <time>2021-07-09T14:59:33.000Z</time>
      </trkpt>
      <trkpt lat="45.45747" lon="7.642466">
        <ele>2181.08403</ele>
        <time>2021-07-09T14:59:57.000Z</time>
      </trkpt>
      <trkpt lat="45.45747" lon="7.642468">
        <ele>2181.12207</ele>
        <time>2021-07-09T15:00:03.000Z</time>
      </trkpt>
      <trkpt lat="45.457511" lon="7.642583">
        <ele>2186.31293</ele>
        <time>2021-07-09T15:00:39.000Z</time>
      </trkpt>
      <trkpt lat="45.457525" lon="7.642579">
        <ele>2187.37052</ele>
        <time>2021-07-09T15:00:45.000Z</time>
      </trkpt>
      <trkpt lat="45.457527" lon="7.642578">
        <ele>2187.51433</ele>
        <time>2021-07-09T15:00:51.000Z</time>
      </trkpt>
      <trkpt lat="45.45755" lon="7.642589">
        <ele>2189.48904</ele>
        <time>2021-07-09T15:01:27.000Z</time>
      </trkpt>
      <trkpt lat="45.457561" lon="7.64259">
        <ele>2190.35839</ele>
        <time>2021-07-09T15:01:33.000Z</time>
      </trkpt>
      <trkpt lat="45.45763" lon="7.642678">
        <ele>2196.8107</ele>
        <time>2021-07-09T15:02:39.000Z</time>
      </trkpt>
      <trkpt lat="45.457638" lon="7.64269">
        <ele>2197.57935</ele>
        <time>2021-07-09T15:02:45.000Z</time>
      </trkpt>
      <trkpt lat="45.457653" lon="7.642762">
        <ele>2199.84928</ele>
        <time>2021-07-09T15:02:57.000Z</time>
      </trkpt>
      <trkpt lat="45.457655" lon="7.642765">
        <ele>2200.05124</ele>
        <time>2021-07-09T15:03:03.000Z</time>
      </trkpt>
      <trkpt lat="45.457663" lon="7.642787">
        <ele>2201.04452</ele>
        <time>2021-07-09T15:03:09.000Z</time>
      </trkpt>
      <trkpt lat="45.457677" lon="7.642811">
        <ele>2202.55051</ele>
        <time>2021-07-09T15:03:15.000Z</time>
      </trkpt>
      <trkpt lat="45.457678" lon="7.642827">
        <ele>2202.933</ele>
        <time>2021-07-09T15:03:21.000Z</time>
      </trkpt>
      <trkpt lat="45.457678" lon="7.642828">
        <ele>2202.9523</ele>
        <time>2021-07-09T15:03:27.000Z</time>
      </trkpt>
      <trkpt lat="45.457678" lon="7.642875">
        <ele>2203.8718</ele>
        <time>2021-07-09T15:03:39.000Z</time>
      </trkpt>
      <trkpt lat="45.457677" lon="7.642882">
        <ele>2203.93573</ele>
        <time>2021-07-09T15:03:45.000Z</time>
      </trkpt>
      <trkpt lat="45.457687" lon="7.642919">
        <ele>2205.425</ele>
        <time>2021-07-09T15:03:51.000Z</time>
      </trkpt>
      <trkpt lat="45.45771" lon="7.642954">
        <ele>2207.82211</ele>
        <time>2021-07-09T15:03:57.000Z</time>
      </trkpt>
      <trkpt lat="45.457698" lon="7.642983">
        <ele>2207.54275</ele>
        <time>2021-07-09T15:04:03.000Z</time>
      </trkpt>
      <trkpt lat="45.457683" lon="7.642972">
        <ele>2206.21552</ele>
        <time>2021-07-09T15:04:09.000Z</time>
      </trkpt>
      <trkpt lat="45.45769" lon="7.643018">
        <ele>2207.69603</ele>
        <time>2021-07-09T15:04:21.000Z</time>
      </trkpt>
      <trkpt lat="45.457688" lon="7.643051">
        <ele>2208.25932</ele>
        <time>2021-07-09T15:04:27.000Z</time>
      </trkpt>
      <trkpt lat="45.457688" lon="7.643074">
        <ele>2208.7742</ele>
        <time>2021-07-09T15:04:33.000Z</time>
      </trkpt>
      <trkpt lat="45.457685" lon="7.64307">
        <ele>2208.46154</ele>
        <time>2021-07-09T15:04:39.000Z</time>
      </trkpt>
      <trkpt lat="45.457704" lon="7.643095">
        <ele>2210.44878</ele>
        <time>2021-07-09T15:04:45.000Z</time>
      </trkpt>
      <trkpt lat="45.457724" lon="7.643107">
        <ele>2212.19162</ele>
        <time>2021-07-09T15:04:51.000Z</time>
      </trkpt>
      <trkpt lat="45.457716" lon="7.643137">
        <ele>2212.40524</ele>
        <time>2021-07-09T15:04:57.000Z</time>
      </trkpt>
      <trkpt lat="45.457715" lon="7.643138">
        <ele>2212.35933</ele>
        <time>2021-07-09T15:05:03.000Z</time>
      </trkpt>
      <trkpt lat="45.457717" lon="7.643145">
        <ele>2212.69064</ele>
        <time>2021-07-09T15:05:27.000Z</time>
      </trkpt>
      <trkpt lat="45.457723" lon="7.643155">
        <ele>2213.39079</ele>
        <time>2021-07-09T15:05:33.000Z</time>
      </trkpt>
      <trkpt lat="45.457746" lon="7.643136">
        <ele>2214.49097</ele>
        <time>2021-07-09T15:05:45.000Z</time>
      </trkpt>
      <trkpt lat="45.45777" lon="7.643122">
        <ele>2215.71902</ele>
        <time>2021-07-09T15:05:51.000Z</time>
      </trkpt>
      <trkpt lat="45.457767" lon="7.643141">
        <ele>2216.01771</ele>
        <time>2021-07-09T15:05:57.000Z</time>
      </trkpt>
      <trkpt lat="45.457771" lon="7.643156">
        <ele>2216.66375</ele>
        <time>2021-07-09T15:06:03.000Z</time>
      </trkpt>
      <trkpt lat="45.457778" lon="7.643179">
        <ele>2217.68299</ele>
        <time>2021-07-09T15:06:09.000Z</time>
      </trkpt>
      <trkpt lat="45.457765" lon="7.643186">
        <ele>2217.06525</ele>
        <time>2021-07-09T15:08:21.000Z</time>
      </trkpt>
      <trkpt lat="45.457763" lon="7.64319">
        <ele>2217.04193</ele>
        <time>2021-07-09T15:08:27.000Z</time>
      </trkpt>
      <trkpt lat="45.457772" lon="7.643207">
        <ele>2218.02192</ele>
        <time>2021-07-09T15:09:21.000Z</time>
      </trkpt>
      <trkpt lat="45.457773" lon="7.643208">
        <ele>2218.10581</ele>
        <time>2021-07-09T15:09:27.000Z</time>
      </trkpt>
      <trkpt lat="45.457774" lon="7.643212">
        <ele>2218.26148</ele>
        <time>2021-07-09T15:10:45.000Z</time>
      </trkpt>
      <trkpt lat="45.457771" lon="7.643219">
        <ele>2218.25131</ele>
        <time>2021-07-09T15:10:51.000Z</time>
      </trkpt>
      <trkpt lat="45.457775" lon="7.643215">
        <ele>2218.39163</ele>
        <time>2021-07-09T15:10:57.000Z</time>
      </trkpt>
      <trkpt lat="45.457786" lon="7.6432">
        <ele>2218.65974</ele>
        <time>2021-07-09T15:12:03.000Z</time>
      </trkpt>
      <trkpt lat="45.457777" lon="7.643197">
        <ele>2218.07274</ele>
        <time>2021-07-09T15:12:09.000Z</time>
      </trkpt>
      <trkpt lat="45.457783" lon="7.6432">
        <ele>2218.49165</ele>
        <time>2021-07-09T15:12:15.000Z</time>
      </trkpt>
      <trkpt lat="45.457787" lon="7.6432">
        <ele>2218.71509</ele>
        <time>2021-07-09T15:12:21.000Z</time>
      </trkpt>
      <trkpt lat="45.457778" lon="7.643205">
        <ele>2218.32615</ele>
        <time>2021-07-09T15:13:09.000Z</time>
      </trkpt>
      <trkpt lat="45.457775" lon="7.643219">
        <ele>2218.48612</ele>
        <time>2021-07-09T15:13:15.000Z</time>
      </trkpt>
      <trkpt lat="45.457775" lon="7.64322">
        <ele>2218.50958</ele>
        <time>2021-07-09T15:13:21.000Z</time>
      </trkpt>
      <trkpt lat="45.457771" lon="7.643216">
        <ele>2218.17984</ele>
        <time>2021-07-09T15:13:27.000Z</time>
      </trkpt>
      <trkpt lat="45.457768" lon="7.643218">
        <ele>2218.04769</ele>
        <time>2021-07-09T15:13:32.000Z</time>
      </trkpt>
      <trkpt lat="45.457775" lon="7.643216">
        <ele>2218.41535</ele>
        <time>2021-07-09T15:13:49.000Z</time>
      </trkpt>
      <trkpt lat="45.457777" lon="7.643213">
        <ele>2218.46005</ele>
        <time>2021-07-09T15:13:54.000Z</time>
      </trkpt>
      <trkpt lat="45.457777" lon="7.643207">
        <ele>2218.31644</ele>
        <time>2021-07-09T15:14:05.000Z</time>
      </trkpt>
      <trkpt lat="45.457774" lon="7.643213">
        <ele>2218.28545</ele>
        <time>2021-07-09T15:14:27.000Z</time>
      </trkpt>
      <trkpt lat="45.457775" lon="7.643215">
        <ele>2218.39163</ele>
        <time>2021-07-09T15:14:33.000Z</time>
      </trkpt>
      <trkpt lat="45.457801" lon="7.643294">
        <ele>2221.23875</ele>
        <time>2021-07-09T15:15:03.000Z</time>
      </trkpt>
      <trkpt lat="45.457791" lon="7.643308">
        <ele>2220.97515</ele>
        <time>2021-07-09T15:15:09.000Z</time>
      </trkpt>
      <trkpt lat="45.457802" lon="7.643303">
        <ele>2221.40209</ele>
        <time>2021-07-09T15:15:15.000Z</time>
      </trkpt>
      <trkpt lat="45.457825" lon="7.643329">
        <ele>2222.62764</ele>
        <time>2021-07-09T15:15:21.000Z</time>
      </trkpt>
      <trkpt lat="45.457821" lon="7.643343">
        <ele>2222.58978</ele>
        <time>2021-07-09T15:15:27.000Z</time>
      </trkpt>
      <trkpt lat="45.457821" lon="7.643336">
        <ele>2222.5326</ele>
        <time>2021-07-09T15:15:45.000Z</time>
      </trkpt>
      <trkpt lat="45.457822" lon="7.643333">
        <ele>2222.54598</ele>
        <time>2021-07-09T15:15:51.000Z</time>
      </trkpt>
      <trkpt lat="45.457825" lon="7.643328">
        <ele>2222.61904</ele>
        <time>2021-07-09T15:15:57.000Z</time>
      </trkpt>
      <trkpt lat="45.457846" lon="7.643337">
        <ele>2223.43531</ele>
        <time>2021-07-09T15:16:03.000Z</time>
      </trkpt>
      <trkpt lat="45.457848" lon="7.643338">
        <ele>2223.50594</ele>
        <time>2021-07-09T15:16:09.000Z</time>
      </trkpt>
      <trkpt lat="45.457912" lon="7.643446">
        <ele>2224.87422</ele>
        <time>2021-07-09T15:16:39.000Z</time>
      </trkpt>
      <trkpt lat="45.457921" lon="7.643458">
        <ele>2224.84905</ele>
        <time>2021-07-09T15:16:45.000Z</time>
      </trkpt>
      <trkpt lat="45.457922" lon="7.643474">
        <ele>2224.83347</ele>
        <time>2021-07-09T15:16:51.000Z</time>
      </trkpt>
      <trkpt lat="45.457929" lon="7.643441">
        <ele>2224.78949</ele>
        <time>2021-07-09T15:17:03.000Z</time>
      </trkpt>
      <trkpt lat="45.457932" lon="7.643382">
        <ele>2224.74025</ele>
        <time>2021-07-09T15:17:09.000Z</time>
      </trkpt>
      <trkpt lat="45.45793" lon="7.643363">
        <ele>2224.75101</ele>
        <time>2021-07-09T15:17:15.000Z</time>
      </trkpt>
      <trkpt lat="45.457915" lon="7.643345">
        <ele>2224.7745</ele>
        <time>2021-07-09T15:17:21.000Z</time>
      </trkpt>
      <trkpt lat="45.457915" lon="7.643343">
        <ele>2224.77254</ele>
        <time>2021-07-09T15:17:27.000Z</time>
      </trkpt>
      <trkpt lat="45.45791" lon="7.643309">
        <ele>2224.71534</ele>
        <time>2021-07-09T15:17:39.000Z</time>
      </trkpt>
      <trkpt lat="45.457909" lon="7.64332">
        <ele>2224.7171</ele>
        <time>2021-07-09T15:18:09.000Z</time>
      </trkpt>
      <trkpt lat="45.457907" lon="7.643341">
        <ele>2224.73016</ele>
        <time>2021-07-09T15:18:15.000Z</time>
      </trkpt>
      <trkpt lat="45.457896" lon="7.643335">
        <ele>2224.60586</ele>
        <time>2021-07-09T15:18:33.000Z</time>
      </trkpt>
      <trkpt lat="45.457917" lon="7.643376">
        <ele>2224.81002</ele>
        <time>2021-07-09T15:18:39.000Z</time>
      </trkpt>
      <trkpt lat="45.457925" lon="7.643383">
        <ele>2224.79306</ele>
        <time>2021-07-09T15:18:45.000Z</time>
      </trkpt>
      <trkpt lat="45.457919" lon="7.643331">
        <ele>2224.77261</ele>
        <time>2021-07-09T15:18:57.000Z</time>
      </trkpt>
      <trkpt lat="45.457918" lon="7.643328">
        <ele>2224.76947</ele>
        <time>2021-07-09T15:19:03.000Z</time>
      </trkpt>
      <trkpt lat="45.457902" lon="7.643311">
        <ele>2224.63313</ele>
        <time>2021-07-09T15:20:04.000Z</time>
      </trkpt>
      <trkpt lat="45.457902" lon="7.643293">
        <ele>2224.60842</ele>
        <time>2021-07-09T15:20:09.000Z</time>
      </trkpt>
      <trkpt lat="45.457908" lon="7.643263">
        <ele>2224.69942</ele>
        <time>2021-07-09T15:20:15.000Z</time>
      </trkpt>
      <trkpt lat="45.457908" lon="7.643262">
        <ele>2224.70035</ele>
        <time>2021-07-09T15:20:21.000Z</time>
      </trkpt>
      <trkpt lat="45.457928" lon="7.643212">
        <ele>2225.16315</ele>
        <time>2021-07-09T15:21:03.000Z</time>
      </trkpt>
      <trkpt lat="45.457979" lon="7.643137">
        <ele>2225.49965</ele>
        <time>2021-07-09T15:21:09.000Z</time>
      </trkpt>
      <trkpt lat="45.458011" lon="7.643119">
        <ele>2224.24819</ele>
        <time>2021-07-09T15:21:15.000Z</time>
      </trkpt>
      <trkpt lat="45.45801" lon="7.643103">
        <ele>2224.43859</ele>
        <time>2021-07-09T15:21:21.000Z</time>
      </trkpt>
      <trkpt lat="45.458012" lon="7.643108">
        <ele>2224.28269</ele>
        <time>2021-07-09T15:21:27.000Z</time>
      </trkpt>
      <trkpt lat="45.458006" lon="7.643057">
        <ele>2224.91674</ele>
        <time>2021-07-09T15:21:33.000Z</time>
      </trkpt>
      <trkpt lat="45.45802" lon="7.643037">
        <ele>2224.25939</ele>
        <time>2021-07-09T15:21:39.000Z</time>
      </trkpt>
      <trkpt lat="45.458022" lon="7.643033">
        <ele>2224.16945</ele>
        <time>2021-07-09T15:21:45.000Z</time>
      </trkpt>
      <trkpt lat="45.458033" lon="7.643006">
        <ele>2223.77462</ele>
        <time>2021-07-09T15:21:51.000Z</time>
      </trkpt>
      <trkpt lat="45.458057" lon="7.64297">
        <ele>2223.03765</ele>
        <time>2021-07-09T15:21:57.000Z</time>
      </trkpt>
      <trkpt lat="45.458071" lon="7.642918">
        <ele>2223.87794</ele>
        <time>2021-07-09T15:22:03.000Z</time>
      </trkpt>
      <trkpt lat="45.458099" lon="7.642874">
        <ele>2224.57594</ele>
        <time>2021-07-09T15:22:09.000Z</time>
      </trkpt>
      <trkpt lat="45.45811" lon="7.64283">
        <ele>2225.95714</ele>
        <time>2021-07-09T15:22:15.000Z</time>
      </trkpt>
      <trkpt lat="45.458124" lon="7.642798">
        <ele>2226.5219</ele>
        <time>2021-07-09T15:22:20.000Z</time>
      </trkpt>
      <trkpt lat="45.458131" lon="7.642772">
        <ele>2226.771</ele>
        <time>2021-07-09T15:22:26.000Z</time>
      </trkpt>
      <trkpt lat="45.458135" lon="7.64277">
        <ele>2226.66834</ele>
        <time>2021-07-09T15:22:31.000Z</time>
      </trkpt>
      <trkpt lat="45.458166" lon="7.642751">
        <ele>2225.12309</ele>
        <time>2021-07-09T15:22:37.000Z</time>
      </trkpt>
      <trkpt lat="45.458186" lon="7.642707">
        <ele>2223.72942</ele>
        <time>2021-07-09T15:22:43.000Z</time>
      </trkpt>
      <trkpt lat="45.45818" lon="7.642654">
        <ele>2224.39079</ele>
        <time>2021-07-09T15:22:49.000Z</time>
      </trkpt>
      <trkpt lat="45.458175" lon="7.642603">
        <ele>2224.42044</ele>
        <time>2021-07-09T15:22:54.000Z</time>
      </trkpt>
      <trkpt lat="45.458197" lon="7.642591">
        <ele>2223.18214</ele>
        <time>2021-07-09T15:22:59.000Z</time>
      </trkpt>
      <trkpt lat="45.458194" lon="7.642574">
        <ele>2223.36621</ele>
        <time>2021-07-09T15:23:05.000Z</time>
      </trkpt>
      <trkpt lat="45.458199" lon="7.642558">
        <ele>2223.14173</ele>
        <time>2021-07-09T15:23:10.000Z</time>
      </trkpt>
      <trkpt lat="45.45821" lon="7.642547">
        <ele>2222.65898</ele>
        <time>2021-07-09T15:23:15.000Z</time>
      </trkpt>
      <trkpt lat="45.458246" lon="7.642472">
        <ele>2222.19289</ele>
        <time>2021-07-09T15:23:39.000Z</time>
      </trkpt>
      <trkpt lat="45.458264" lon="7.642434">
        <ele>2222.55003</ele>
        <time>2021-07-09T15:23:45.000Z</time>
      </trkpt>
      <trkpt lat="45.458273" lon="7.642414">
        <ele>2222.92001</ele>
        <time>2021-07-09T15:23:51.000Z</time>
      </trkpt>
      <trkpt lat="45.458277" lon="7.6424">
        <ele>2223.25825</ele>
        <time>2021-07-09T15:23:57.000Z</time>
      </trkpt>
      <trkpt lat="45.45829" lon="7.642339">
        <ele>2225.03266</ele>
        <time>2021-07-09T15:24:03.000Z</time>
      </trkpt>
      <trkpt lat="45.458314" lon="7.642313">
        <ele>2225.97527</ele>
        <time>2021-07-09T15:24:09.000Z</time>
      </trkpt>
      <trkpt lat="45.458319" lon="7.642292">
        <ele>2226.70084</ele>
        <time>2021-07-09T15:24:15.000Z</time>
      </trkpt>
      <trkpt lat="45.458317" lon="7.642259">
        <ele>2227.85186</ele>
        <time>2021-07-09T15:24:21.000Z</time>
      </trkpt>
      <trkpt lat="45.458333" lon="7.642236">
        <ele>2228.58031</ele>
        <time>2021-07-09T15:24:27.000Z</time>
      </trkpt>
      <trkpt lat="45.45834" lon="7.642234">
        <ele>2228.55926</ele>
        <time>2021-07-09T15:24:33.000Z</time>
      </trkpt>
      <trkpt lat="45.458356" lon="7.642214">
        <ele>2228.92099</ele>
        <time>2021-07-09T15:24:45.000Z</time>
      </trkpt>
      <trkpt lat="45.458348" lon="7.642171">
        <ele>2230.57341</ele>
        <time>2021-07-09T15:24:51.000Z</time>
      </trkpt>
      <trkpt lat="45.458359" lon="7.642146">
        <ele>2231.16371</ele>
        <time>2021-07-09T15:24:57.000Z</time>
      </trkpt>
      <trkpt lat="45.458363" lon="7.64214">
        <ele>2231.25855</ele>
        <time>2021-07-09T15:25:03.000Z</time>
      </trkpt>
      <trkpt lat="45.458389" lon="7.642131">
        <ele>2230.66647</ele>
        <time>2021-07-09T15:25:09.000Z</time>
      </trkpt>
      <trkpt lat="45.45839" lon="7.642127">
        <ele>2230.7645</ele>
        <time>2021-07-09T15:25:15.000Z</time>
      </trkpt>
      <trkpt lat="45.458389" lon="7.642081">
        <ele>2232.37507</ele>
        <time>2021-07-09T15:25:33.000Z</time>
      </trkpt>
      <trkpt lat="45.458393" lon="7.642045">
        <ele>2233.41948</ele>
        <time>2021-07-09T15:25:39.000Z</time>
      </trkpt>
      <trkpt lat="45.458402" lon="7.642002">
        <ele>2234.48784</ele>
        <time>2021-07-09T15:25:45.000Z</time>
      </trkpt>
      <trkpt lat="45.458396" lon="7.641952">
        <ele>2236.37225</ele>
        <time>2021-07-09T15:25:51.000Z</time>
      </trkpt>
      <trkpt lat="45.458403" lon="7.64191">
        <ele>2237.61267</ele>
        <time>2021-07-09T15:25:57.000Z</time>
      </trkpt>
      <trkpt lat="45.458402" lon="7.641882">
        <ele>2238.56334</ele>
        <time>2021-07-09T15:26:03.000Z</time>
      </trkpt>
      <trkpt lat="45.458404" lon="7.641837">
        <ele>2239.86991</ele>
        <time>2021-07-09T15:26:09.000Z</time>
      </trkpt>
      <trkpt lat="45.458408" lon="7.641797">
        <ele>2240.79239</ele>
        <time>2021-07-09T15:26:15.000Z</time>
      </trkpt>
      <trkpt lat="45.458419" lon="7.641744">
        <ele>2241.56298</ele>
        <time>2021-07-09T15:26:21.000Z</time>
      </trkpt>
      <trkpt lat="45.458419" lon="7.641692">
        <ele>2242.15139</ele>
        <time>2021-07-09T15:26:27.000Z</time>
      </trkpt>
      <trkpt lat="45.458418" lon="7.641659">
        <ele>2242.36946</ele>
        <time>2021-07-09T15:26:33.000Z</time>
      </trkpt>
      <trkpt lat="45.45843" lon="7.641629">
        <ele>2242.48267</ele>
        <time>2021-07-09T15:26:39.000Z</time>
      </trkpt>
      <trkpt lat="45.458443" lon="7.641593">
        <ele>2242.52196</ele>
        <time>2021-07-09T15:26:45.000Z</time>
      </trkpt>
      <trkpt lat="45.458464" lon="7.641582">
        <ele>2242.6112</ele>
        <time>2021-07-09T15:26:51.000Z</time>
      </trkpt>
      <trkpt lat="45.458491" lon="7.641575">
        <ele>2242.73948</ele>
        <time>2021-07-09T15:26:57.000Z</time>
      </trkpt>
      <trkpt lat="45.458523" lon="7.641569">
        <ele>2242.78747</ele>
        <time>2021-07-09T15:27:03.000Z</time>
      </trkpt>
      <trkpt lat="45.458556" lon="7.641524">
        <ele>2242.71666</ele>
        <time>2021-07-09T15:27:09.000Z</time>
      </trkpt>
      <trkpt lat="45.458591" lon="7.641473">
        <ele>2242.39182</ele>
        <time>2021-07-09T15:27:15.000Z</time>
      </trkpt>
      <trkpt lat="45.458625" lon="7.641442">
        <ele>2242.2654</ele>
        <time>2021-07-09T15:27:21.000Z</time>
      </trkpt>
      <trkpt lat="45.458659" lon="7.641413">
        <ele>2242.38898</ele>
        <time>2021-07-09T15:27:27.000Z</time>
      </trkpt>
      <trkpt lat="45.45869" lon="7.641388">
        <ele>2242.75543</ele>
        <time>2021-07-09T15:27:33.000Z</time>
      </trkpt>
      <trkpt lat="45.458717" lon="7.641365">
        <ele>2243.23246</ele>
        <time>2021-07-09T15:27:39.000Z</time>
      </trkpt>
      <trkpt lat="45.458751" lon="7.641361">
        <ele>2244.188</ele>
        <time>2021-07-09T15:27:45.000Z</time>
      </trkpt>
      <trkpt lat="45.458797" lon="7.64136">
        <ele>2245.46316</ele>
        <time>2021-07-09T15:27:51.000Z</time>
      </trkpt>
      <trkpt lat="45.458841" lon="7.641361">
        <ele>2246.47399</ele>
        <time>2021-07-09T15:27:57.000Z</time>
      </trkpt>
      <trkpt lat="45.458874" lon="7.641357">
        <ele>2247.04425</ele>
        <time>2021-07-09T15:28:03.000Z</time>
      </trkpt>
      <trkpt lat="45.458893" lon="7.641342">
        <ele>2247.39271</ele>
        <time>2021-07-09T15:28:09.000Z</time>
      </trkpt>
      <trkpt lat="45.458891" lon="7.641338">
        <ele>2247.39903</ele>
        <time>2021-07-09T15:28:15.000Z</time>
      </trkpt>
      <trkpt lat="45.45894" lon="7.641355">
        <ele>2247.62717</ele>
        <time>2021-07-09T15:28:33.000Z</time>
      </trkpt>
      <trkpt lat="45.458987" lon="7.641365">
        <ele>2247.82561</ele>
        <time>2021-07-09T15:28:39.000Z</time>
      </trkpt>
      <trkpt lat="45.459029" lon="7.641352">
        <ele>2248.68355</ele>
        <time>2021-07-09T15:28:45.000Z</time>
      </trkpt>
      <trkpt lat="45.459073" lon="7.641355">
        <ele>2249.6916</ele>
        <time>2021-07-09T15:28:51.000Z</time>
      </trkpt>
      <trkpt lat="45.459094" lon="7.641319">
        <ele>2251.01296</ele>
        <time>2021-07-09T15:28:57.000Z</time>
      </trkpt>
      <trkpt lat="45.459136" lon="7.641292">
        <ele>2252.85896</ele>
        <time>2021-07-09T15:29:03.000Z</time>
      </trkpt>
      <trkpt lat="45.459165" lon="7.64128">
        <ele>2254.07911</ele>
        <time>2021-07-09T15:29:09.000Z</time>
      </trkpt>
      <trkpt lat="45.45919" lon="7.641292">
        <ele>2254.82221</ele>
        <time>2021-07-09T15:29:15.000Z</time>
      </trkpt>
      <trkpt lat="45.459223" lon="7.641265">
        <ele>2256.36316</ele>
        <time>2021-07-09T15:29:21.000Z</time>
      </trkpt>
      <trkpt lat="45.459244" lon="7.641244">
        <ele>2257.42999</ele>
        <time>2021-07-09T15:29:27.000Z</time>
      </trkpt>
      <trkpt lat="45.459276" lon="7.641211">
        <ele>2258.99102</ele>
        <time>2021-07-09T15:29:33.000Z</time>
      </trkpt>
      <trkpt lat="45.459302" lon="7.641195">
        <ele>2260.18076</ele>
        <time>2021-07-09T15:29:39.000Z</time>
      </trkpt>
      <trkpt lat="45.459304" lon="7.641188">
        <ele>2260.22674</ele>
        <time>2021-07-09T15:29:45.000Z</time>
      </trkpt>
      <trkpt lat="45.459313" lon="7.641167">
        <ele>2260.44158</ele>
        <time>2021-07-09T15:29:51.000Z</time>
      </trkpt>
      <trkpt lat="45.459321" lon="7.641163">
        <ele>2260.78368</ele>
        <time>2021-07-09T15:29:56.000Z</time>
      </trkpt>
      <trkpt lat="45.459386" lon="7.64117">
        <ele>2263.12422</ele>
        <time>2021-07-09T15:30:42.000Z</time>
      </trkpt>
      <trkpt lat="45.459393" lon="7.641181">
        <ele>2263.22601</ele>
        <time>2021-07-09T15:30:47.000Z</time>
      </trkpt>
      <trkpt lat="45.459461" lon="7.641179">
        <ele>2263.81111</ele>
        <time>2021-07-09T15:31:09.000Z</time>
      </trkpt>
      <trkpt lat="45.459478" lon="7.641152">
        <ele>2264.16807</ele>
        <time>2021-07-09T15:31:15.000Z</time>
      </trkpt>
      <trkpt lat="45.459491" lon="7.641135">
        <ele>2264.35927</ele>
        <time>2021-07-09T15:31:21.000Z</time>
      </trkpt>
      <trkpt lat="45.459523" lon="7.641086">
        <ele>2264.78272</ele>
        <time>2021-07-09T15:31:27.000Z</time>
      </trkpt>
      <trkpt lat="45.459548" lon="7.64107">
        <ele>2264.56477</ele>
        <time>2021-07-09T15:31:33.000Z</time>
      </trkpt>
      <trkpt lat="45.459563" lon="7.641027">
        <ele>2264.70349</ele>
        <time>2021-07-09T15:31:39.000Z</time>
      </trkpt>
      <trkpt lat="45.459562" lon="7.640997">
        <ele>2264.87664</ele>
        <time>2021-07-09T15:31:45.000Z</time>
      </trkpt>
      <trkpt lat="45.459563" lon="7.640995">
        <ele>2264.85688</ele>
        <time>2021-07-09T15:31:51.000Z</time>
      </trkpt>
      <trkpt lat="45.459568" lon="7.640982">
        <ele>2264.73224</ele>
        <time>2021-07-09T15:31:57.000Z</time>
      </trkpt>
      <trkpt lat="45.459573" lon="7.640961">
        <ele>2264.50121</ele>
        <time>2021-07-09T15:32:03.000Z</time>
      </trkpt>
      <trkpt lat="45.459597" lon="7.640909">
        <ele>2263.14417</ele>
        <time>2021-07-09T15:32:21.000Z</time>
      </trkpt>
      <trkpt lat="45.459609" lon="7.640911">
        <ele>2262.79913</ele>
        <time>2021-07-09T15:32:27.000Z</time>
      </trkpt>
      <trkpt lat="45.459632" lon="7.64089">
        <ele>2261.81606</ele>
        <time>2021-07-09T15:32:33.000Z</time>
      </trkpt>
      <trkpt lat="45.45965" lon="7.640866">
        <ele>2261.23206</ele>
        <time>2021-07-09T15:32:39.000Z</time>
      </trkpt>
      <trkpt lat="45.45967" lon="7.640849">
        <ele>2260.86426</ele>
        <time>2021-07-09T15:32:45.000Z</time>
      </trkpt>
      <trkpt lat="45.459689" lon="7.640815">
        <ele>2261.09405</ele>
        <time>2021-07-09T15:32:51.000Z</time>
      </trkpt>
      <trkpt lat="45.45971" lon="7.640796">
        <ele>2261.37599</ele>
        <time>2021-07-09T15:32:57.000Z</time>
      </trkpt>
      <trkpt lat="45.45974" lon="7.640809">
        <ele>2260.66485</ele>
        <time>2021-07-09T15:33:03.000Z</time>
      </trkpt>
      <trkpt lat="45.459769" lon="7.640772">
        <ele>2261.50211</ele>
        <time>2021-07-09T15:33:09.000Z</time>
      </trkpt>
      <trkpt lat="45.459791" lon="7.640758">
        <ele>2261.51318</ele>
        <time>2021-07-09T15:33:15.000Z</time>
      </trkpt>
      <trkpt lat="45.459809" lon="7.640725">
        <ele>2261.89436</ele>
        <time>2021-07-09T15:33:21.000Z</time>
      </trkpt>
      <trkpt lat="45.459814" lon="7.640715">
        <ele>2261.92524</ele>
        <time>2021-07-09T15:33:27.000Z</time>
      </trkpt>
      <trkpt lat="45.459815" lon="7.640718">
        <ele>2261.85932</ele>
        <time>2021-07-09T15:33:33.000Z</time>
      </trkpt>
      <trkpt lat="45.459819" lon="7.640695">
        <ele>2261.96247</ele>
        <time>2021-07-09T15:34:27.000Z</time>
      </trkpt>
      <trkpt lat="45.459822" lon="7.640692">
        <ele>2261.90033</ele>
        <time>2021-07-09T15:34:33.000Z</time>
      </trkpt>
      <trkpt lat="45.459828" lon="7.640697">
        <ele>2261.73392</ele>
        <time>2021-07-09T15:34:39.000Z</time>
      </trkpt>
      <trkpt lat="45.45983" lon="7.640697">
        <ele>2261.68091</ele>
        <time>2021-07-09T15:34:45.000Z</time>
      </trkpt>
      <trkpt lat="45.459829" lon="7.640712">
        <ele>2261.5656</ele>
        <time>2021-07-09T15:34:56.000Z</time>
      </trkpt>
      <trkpt lat="45.45983" lon="7.6407">
        <ele>2261.66158</ele>
        <time>2021-07-09T15:36:57.000Z</time>
      </trkpt>
      <trkpt lat="45.459853" lon="7.640664">
        <ele>2261.07125</ele>
        <time>2021-07-09T15:37:03.000Z</time>
      </trkpt>
      <trkpt lat="45.459865" lon="7.640659">
        <ele>2260.71437</ele>
        <time>2021-07-09T15:37:09.000Z</time>
      </trkpt>
      <trkpt lat="45.459867" lon="7.640655">
        <ele>2260.64299</ele>
        <time>2021-07-09T15:37:15.000Z</time>
      </trkpt>
      <trkpt lat="45.459889" lon="7.640639">
        <ele>2259.92723</ele>
        <time>2021-07-09T15:37:21.000Z</time>
      </trkpt>
      <trkpt lat="45.459897" lon="7.640614">
        <ele>2259.5568</ele>
        <time>2021-07-09T15:37:32.000Z</time>
      </trkpt>
      <trkpt lat="45.459919" lon="7.640592">
        <ele>2258.79625</ele>
        <time>2021-07-09T15:37:38.000Z</time>
      </trkpt>
      <trkpt lat="45.459918" lon="7.640563">
        <ele>2258.49792</ele>
        <time>2021-07-09T15:37:43.000Z</time>
      </trkpt>
      <trkpt lat="45.45994" lon="7.64054">
        <ele>2257.73195</ele>
        <time>2021-07-09T15:37:48.000Z</time>
      </trkpt>
      <trkpt lat="45.459951" lon="7.640516">
        <ele>2257.17362</ele>
        <time>2021-07-09T15:37:54.000Z</time>
      </trkpt>
      <trkpt lat="45.459951" lon="7.640507">
        <ele>2257.02101</ele>
        <time>2021-07-09T15:38:00.000Z</time>
      </trkpt>
      <trkpt lat="45.459967" lon="7.64046">
        <ele>2255.86197</ele>
        <time>2021-07-09T15:38:21.000Z</time>
      </trkpt>
      <trkpt lat="45.459993" lon="7.640421">
        <ele>2254.59712</ele>
        <time>2021-07-09T15:38:27.000Z</time>
      </trkpt>
      <trkpt lat="45.460007" lon="7.640415">
        <ele>2254.26302</ele>
        <time>2021-07-09T15:38:33.000Z</time>
      </trkpt>
      <trkpt lat="45.460007" lon="7.640412">
        <ele>2254.16694</ele>
        <time>2021-07-09T15:38:39.000Z</time>
      </trkpt>
      <trkpt lat="45.460024" lon="7.640381">
        <ele>2252.83457</ele>
        <time>2021-07-09T15:38:45.000Z</time>
      </trkpt>
      <trkpt lat="45.460038" lon="7.640349">
        <ele>2251.29031</ele>
        <time>2021-07-09T15:38:51.000Z</time>
      </trkpt>
      <trkpt lat="45.460044" lon="7.640348">
        <ele>2251.15547</ele>
        <time>2021-07-09T15:38:57.000Z</time>
      </trkpt>
      <trkpt lat="45.460069" lon="7.640332">
        <ele>2249.90835</ele>
        <time>2021-07-09T15:39:09.000Z</time>
      </trkpt>
      <trkpt lat="45.460095" lon="7.640308">
        <ele>2247.99496</ele>
        <time>2021-07-09T15:39:15.000Z</time>
      </trkpt>
      <trkpt lat="45.460103" lon="7.6403">
        <ele>2247.3112</ele>
        <time>2021-07-09T15:39:21.000Z</time>
      </trkpt>
      <trkpt lat="45.460129" lon="7.640266">
        <ele>2244.58931</ele>
        <time>2021-07-09T15:39:27.000Z</time>
      </trkpt>
      <trkpt lat="45.460132" lon="7.640263">
        <ele>2244.30152</ele>
        <time>2021-07-09T15:39:33.000Z</time>
      </trkpt>
      <trkpt lat="45.460165" lon="7.640261">
        <ele>2242.04114</ele>
        <time>2021-07-09T15:40:03.000Z</time>
      </trkpt>
      <trkpt lat="45.460177" lon="7.640247">
        <ele>2240.75461</ele>
        <time>2021-07-09T15:40:09.000Z</time>
      </trkpt>
      <trkpt lat="45.460177" lon="7.640243">
        <ele>2240.64584</ele>
        <time>2021-07-09T15:40:15.000Z</time>
      </trkpt>
      <trkpt lat="45.460189" lon="7.64019">
        <ele>2238.40533</ele>
        <time>2021-07-09T15:40:21.000Z</time>
      </trkpt>
      <trkpt lat="45.460195" lon="7.640156">
        <ele>2237.13974</ele>
        <time>2021-07-09T15:40:27.000Z</time>
      </trkpt>
      <trkpt lat="45.460219" lon="7.640151">
        <ele>2235.67094</ele>
        <time>2021-07-09T15:40:33.000Z</time>
      </trkpt>
      <trkpt lat="45.460223" lon="7.640121">
        <ele>2234.78455</ele>
        <time>2021-07-09T15:40:39.000Z</time>
      </trkpt>
      <trkpt lat="45.460233" lon="7.640097">
        <ele>2233.77581</ele>
        <time>2021-07-09T15:40:45.000Z</time>
      </trkpt>
      <trkpt lat="45.460233" lon="7.640079">
        <ele>2233.36852</ele>
        <time>2021-07-09T15:40:51.000Z</time>
      </trkpt>
      <trkpt lat="45.460256" lon="7.640062">
        <ele>2232.1194</ele>
        <time>2021-07-09T15:40:57.000Z</time>
      </trkpt>
      <trkpt lat="45.460279" lon="7.640045">
        <ele>2230.91877</ele>
        <time>2021-07-09T15:41:03.000Z</time>
      </trkpt>
      <trkpt lat="45.460303" lon="7.64002">
        <ele>2229.56096</ele>
        <time>2021-07-09T15:41:09.000Z</time>
      </trkpt>
      <trkpt lat="45.460318" lon="7.639979">
        <ele>2228.36713</ele>
        <time>2021-07-09T15:41:15.000Z</time>
      </trkpt>
      <trkpt lat="45.460335" lon="7.639954">
        <ele>2227.29082</ele>
        <time>2021-07-09T15:41:21.000Z</time>
      </trkpt>
      <trkpt lat="45.460334" lon="7.639926">
        <ele>2226.89779</ele>
        <time>2021-07-09T15:41:27.000Z</time>
      </trkpt>
      <trkpt lat="45.460359" lon="7.639903">
        <ele>2225.53373</ele>
        <time>2021-07-09T15:41:33.000Z</time>
      </trkpt>
      <trkpt lat="45.460371" lon="7.639875">
        <ele>2224.61499</ele>
        <time>2021-07-09T15:41:39.000Z</time>
      </trkpt>
      <trkpt lat="45.460379" lon="7.639832">
        <ele>2223.59248</ele>
        <time>2021-07-09T15:41:45.000Z</time>
      </trkpt>
      <trkpt lat="45.46039" lon="7.639802">
        <ele>2222.71481</ele>
        <time>2021-07-09T15:41:51.000Z</time>
      </trkpt>
      <trkpt lat="45.460403" lon="7.63977">
        <ele>2221.80174</ele>
        <time>2021-07-09T15:41:57.000Z</time>
      </trkpt>
      <trkpt lat="45.460436" lon="7.639725">
        <ele>2220.33587</ele>
        <time>2021-07-09T15:42:03.000Z</time>
      </trkpt>
      <trkpt lat="45.460465" lon="7.639684">
        <ele>2219.20799</ele>
        <time>2021-07-09T15:42:09.000Z</time>
      </trkpt>
      <trkpt lat="45.4605" lon="7.639622">
        <ele>2218.12018</ele>
        <time>2021-07-09T15:42:15.000Z</time>
      </trkpt>
      <trkpt lat="45.46056" lon="7.639581">
        <ele>2217.60337</ele>
        <time>2021-07-09T15:42:21.000Z</time>
      </trkpt>
      <trkpt lat="45.460588" lon="7.639536">
        <ele>2217.88628</ele>
        <time>2021-07-09T15:42:27.000Z</time>
      </trkpt>
      <trkpt lat="45.460604" lon="7.639481">
        <ele>2218.53864</ele>
        <time>2021-07-09T15:42:33.000Z</time>
      </trkpt>
      <trkpt lat="45.460626" lon="7.63941">
        <ele>2218.8729</ele>
        <time>2021-07-09T15:42:39.000Z</time>
      </trkpt>
      <trkpt lat="45.460674" lon="7.639361">
        <ele>2217.22938</ele>
        <time>2021-07-09T15:42:45.000Z</time>
      </trkpt>
      <trkpt lat="45.46069" lon="7.639303">
        <ele>2217.21029</ele>
        <time>2021-07-09T15:42:51.000Z</time>
      </trkpt>
      <trkpt lat="45.460714" lon="7.639255">
        <ele>2217.81539</ele>
        <time>2021-07-09T15:42:57.000Z</time>
      </trkpt>
      <trkpt lat="45.460722" lon="7.639191">
        <ele>2219.55815</ele>
        <time>2021-07-09T15:43:03.000Z</time>
      </trkpt>
      <trkpt lat="45.460746" lon="7.63911">
        <ele>2221.77285</ele>
        <time>2021-07-09T15:43:09.000Z</time>
      </trkpt>
      <trkpt lat="45.460766" lon="7.639069">
        <ele>2222.77623</ele>
        <time>2021-07-09T15:43:15.000Z</time>
      </trkpt>
      <trkpt lat="45.460783" lon="7.639078">
        <ele>2223.65376</ele>
        <time>2021-07-09T15:43:21.000Z</time>
      </trkpt>
      <trkpt lat="45.460785" lon="7.639055">
        <ele>2223.62862</ele>
        <time>2021-07-09T15:43:27.000Z</time>
      </trkpt>
      <trkpt lat="45.460804" lon="7.638999">
        <ele>2223.79813</ele>
        <time>2021-07-09T15:43:33.000Z</time>
      </trkpt>
      <trkpt lat="45.460825" lon="7.638954">
        <ele>2224.15134</ele>
        <time>2021-07-09T15:43:39.000Z</time>
      </trkpt>
      <trkpt lat="45.460858" lon="7.638933">
        <ele>2225.77427</ele>
        <time>2021-07-09T15:43:45.000Z</time>
      </trkpt>
      <trkpt lat="45.460882" lon="7.638912">
        <ele>2227.09213</ele>
        <time>2021-07-09T15:43:51.000Z</time>
      </trkpt>
      <trkpt lat="45.460903" lon="7.638866">
        <ele>2228.36604</ele>
        <time>2021-07-09T15:43:57.000Z</time>
      </trkpt>
      <trkpt lat="45.460923" lon="7.638816">
        <ele>2229.30527</ele>
        <time>2021-07-09T15:44:03.000Z</time>
      </trkpt>
      <trkpt lat="45.460939" lon="7.638748">
        <ele>2229.34743</ele>
        <time>2021-07-09T15:44:09.000Z</time>
      </trkpt>
      <trkpt lat="45.460952" lon="7.638679">
        <ele>2229.01401</ele>
        <time>2021-07-09T15:44:15.000Z</time>
      </trkpt>
      <trkpt lat="45.46096" lon="7.63863">
        <ele>2228.92639</ele>
        <time>2021-07-09T15:44:21.000Z</time>
      </trkpt>
      <trkpt lat="45.460964" lon="7.638572">
        <ele>2228.69606</ele>
        <time>2021-07-09T15:44:27.000Z</time>
      </trkpt>
      <trkpt lat="45.460981" lon="7.638508">
        <ele>2229.36685</ele>
        <time>2021-07-09T15:44:33.000Z</time>
      </trkpt>
      <trkpt lat="45.460999" lon="7.63847">
        <ele>2230.54588</ele>
        <time>2021-07-09T15:44:39.000Z</time>
      </trkpt>
      <trkpt lat="45.461007" lon="7.638413">
        <ele>2230.82105</ele>
        <time>2021-07-09T15:44:45.000Z</time>
      </trkpt>
      <trkpt lat="45.461023" lon="7.638347">
        <ele>2231.90407</ele>
        <time>2021-07-09T15:44:51.000Z</time>
      </trkpt>
      <trkpt lat="45.461037" lon="7.638299">
        <ele>2232.95893</ele>
        <time>2021-07-09T15:44:57.000Z</time>
      </trkpt>
      <trkpt lat="45.461045" lon="7.638277">
        <ele>2233.57519</ele>
        <time>2021-07-09T15:45:03.000Z</time>
      </trkpt>
      <trkpt lat="45.46105" lon="7.638264">
        <ele>2233.95272</ele>
        <time>2021-07-09T15:45:09.000Z</time>
      </trkpt>
      <trkpt lat="45.461087" lon="7.638241">
        <ele>2237.01861</ele>
        <time>2021-07-09T15:45:45.000Z</time>
      </trkpt>
      <trkpt lat="45.461132" lon="7.638209">
        <ele>2239.59088</ele>
        <time>2021-07-09T15:45:51.000Z</time>
      </trkpt>
      <trkpt lat="45.461137" lon="7.638189">
        <ele>2239.61718</ele>
        <time>2021-07-09T15:45:57.000Z</time>
      </trkpt>
      <trkpt lat="45.461151" lon="7.638146">
        <ele>2239.73416</ele>
        <time>2021-07-09T15:46:03.000Z</time>
      </trkpt>
      <trkpt lat="45.461179" lon="7.638122">
        <ele>2240.26418</ele>
        <time>2021-07-09T15:46:09.000Z</time>
      </trkpt>
      <trkpt lat="45.4612" lon="7.638091">
        <ele>2240.51609</ele>
        <time>2021-07-09T15:46:15.000Z</time>
      </trkpt>
      <trkpt lat="45.461223" lon="7.63807">
        <ele>2240.82776</ele>
        <time>2021-07-09T15:46:21.000Z</time>
      </trkpt>
      <trkpt lat="45.461218" lon="7.638068">
        <ele>2240.77235</ele>
        <time>2021-07-09T15:46:27.000Z</time>
      </trkpt>
      <trkpt lat="45.461217" lon="7.638068">
        <ele>2240.75886</ele>
        <time>2021-07-09T15:46:33.000Z</time>
      </trkpt>
      <trkpt lat="45.461244" lon="7.638028">
        <ele>2241.33582</ele>
        <time>2021-07-09T15:46:39.000Z</time>
      </trkpt>
      <trkpt lat="45.461268" lon="7.637979">
        <ele>2242.3187</ele>
        <time>2021-07-09T15:46:45.000Z</time>
      </trkpt>
      <trkpt lat="45.461288" lon="7.637945">
        <ele>2243.34267</ele>
        <time>2021-07-09T15:46:51.000Z</time>
      </trkpt>
      <trkpt lat="45.461304" lon="7.637914">
        <ele>2244.38452</ele>
        <time>2021-07-09T15:46:57.000Z</time>
      </trkpt>
      <trkpt lat="45.461315" lon="7.637886">
        <ele>2245.29939</ele>
        <time>2021-07-09T15:47:03.000Z</time>
      </trkpt>
      <trkpt lat="45.461312" lon="7.637879">
        <ele>2245.3333</ele>
        <time>2021-07-09T15:47:09.000Z</time>
      </trkpt>
      <trkpt lat="45.461312" lon="7.63788">
        <ele>2245.31446</ele>
        <time>2021-07-09T15:47:21.000Z</time>
      </trkpt>
      <trkpt lat="45.461335" lon="7.637849">
        <ele>2246.71687</ele>
        <time>2021-07-09T15:47:27.000Z</time>
      </trkpt>
      <trkpt lat="45.461354" lon="7.637829">
        <ele>2247.77062</ele>
        <time>2021-07-09T15:47:33.000Z</time>
      </trkpt>
      <trkpt lat="45.461375" lon="7.637827">
        <ele>2248.49687</ele>
        <time>2021-07-09T15:47:39.000Z</time>
      </trkpt>
      <trkpt lat="45.461385" lon="7.637793">
        <ele>2249.63719</ele>
        <time>2021-07-09T15:47:45.000Z</time>
      </trkpt>
      <trkpt lat="45.461383" lon="7.637765">
        <ele>2250.12723</ele>
        <time>2021-07-09T15:47:51.000Z</time>
      </trkpt>
      <trkpt lat="45.46139" lon="7.637755">
        <ele>2250.61408</ele>
        <time>2021-07-09T15:47:57.000Z</time>
      </trkpt>
      <trkpt lat="45.461411" lon="7.637727">
        <ele>2252.09183</ele>
        <time>2021-07-09T15:48:03.000Z</time>
      </trkpt>
      <trkpt lat="45.461435" lon="7.637703">
        <ele>2253.71289</ele>
        <time>2021-07-09T15:48:09.000Z</time>
      </trkpt>
      <trkpt lat="45.46144" lon="7.6377">
        <ele>2254.01715</ele>
        <time>2021-07-09T15:48:15.000Z</time>
      </trkpt>
      <trkpt lat="45.461468" lon="7.637743">
        <ele>2253.98672</ele>
        <time>2021-07-09T15:48:45.000Z</time>
      </trkpt>
      <trkpt lat="45.461492" lon="7.637744">
        <ele>2254.72755</ele>
        <time>2021-07-09T15:48:51.000Z</time>
      </trkpt>
      <trkpt lat="45.461512" lon="7.637733">
        <ele>2255.76525</ele>
        <time>2021-07-09T15:48:57.000Z</time>
      </trkpt>
      <trkpt lat="45.461524" lon="7.63771">
        <ele>2257.06003</ele>
        <time>2021-07-09T15:49:03.000Z</time>
      </trkpt>
      <trkpt lat="45.461533" lon="7.637689">
        <ele>2258.18435</ele>
        <time>2021-07-09T15:49:09.000Z</time>
      </trkpt>
      <trkpt lat="45.461536" lon="7.637671">
        <ele>2258.98606</ele>
        <time>2021-07-09T15:49:15.000Z</time>
      </trkpt>
      <trkpt lat="45.461548" lon="7.637668">
        <ele>2259.51506</ele>
        <time>2021-07-09T15:49:21.000Z</time>
      </trkpt>
      <trkpt lat="45.461569" lon="7.637667">
        <ele>2260.22942</ele>
        <time>2021-07-09T15:49:27.000Z</time>
      </trkpt>
      <trkpt lat="45.461579" lon="7.637657">
        <ele>2261.00733</ele>
        <time>2021-07-09T15:49:33.000Z</time>
      </trkpt>
      <trkpt lat="45.461578" lon="7.637655">
        <ele>2261.0671</ele>
        <time>2021-07-09T15:49:39.000Z</time>
      </trkpt>
      <trkpt lat="45.461593" lon="7.637631">
        <ele>2262.68714</ele>
        <time>2021-07-09T15:49:45.000Z</time>
      </trkpt>
      <trkpt lat="45.461604" lon="7.637612">
        <ele>2263.94745</ele>
        <time>2021-07-09T15:49:51.000Z</time>
      </trkpt>
      <trkpt lat="45.461634" lon="7.637599">
        <ele>2265.81725</ele>
        <time>2021-07-09T15:49:57.000Z</time>
      </trkpt>
      <trkpt lat="45.461637" lon="7.637595">
        <ele>2266.12547</ele>
        <time>2021-07-09T15:50:03.000Z</time>
      </trkpt>
      <trkpt lat="45.461644" lon="7.637582">
        <ele>2266.97972</ele>
        <time>2021-07-09T15:50:14.000Z</time>
      </trkpt>
      <trkpt lat="45.461658" lon="7.637532">
        <ele>2269.23776</ele>
        <time>2021-07-09T15:50:19.000Z</time>
      </trkpt>
      <trkpt lat="45.461665" lon="7.637503">
        <ele>2270.22551</ele>
        <time>2021-07-09T15:50:25.000Z</time>
      </trkpt>
      <trkpt lat="45.46168" lon="7.637529">
        <ele>2270.58448</ele>
        <time>2021-07-09T15:50:31.000Z</time>
      </trkpt>
      <trkpt lat="45.46168" lon="7.637532">
        <ele>2270.50738</ele>
        <time>2021-07-09T15:50:37.000Z</time>
      </trkpt>
      <trkpt lat="45.461702" lon="7.637491">
        <ele>2272.75522</ele>
        <time>2021-07-09T15:50:48.000Z</time>
      </trkpt>
      <trkpt lat="45.461712" lon="7.637467">
        <ele>2273.79957</ele>
        <time>2021-07-09T15:50:53.000Z</time>
      </trkpt>
      <trkpt lat="45.46171" lon="7.637438">
        <ele>2274.00746</ele>
        <time>2021-07-09T15:50:59.000Z</time>
      </trkpt>
      <trkpt lat="45.461712" lon="7.637435">
        <ele>2274.17718</ele>
        <time>2021-07-09T15:51:04.000Z</time>
      </trkpt>
      <trkpt lat="45.46172" lon="7.637463">
        <ele>2274.39728</ele>
        <time>2021-07-09T15:51:09.000Z</time>
      </trkpt>
      <trkpt lat="45.461722" lon="7.637467">
        <ele>2274.47205</ele>
        <time>2021-07-09T15:51:15.000Z</time>
      </trkpt>
      <trkpt lat="45.461753" lon="7.63746">
        <ele>2276.69839</ele>
        <time>2021-07-09T15:51:21.000Z</time>
      </trkpt>
      <trkpt lat="45.461758" lon="7.63746">
        <ele>2277.04157</ele>
        <time>2021-07-09T15:51:27.000Z</time>
      </trkpt>
      <trkpt lat="45.461785" lon="7.637448">
        <ele>2279.14417</ele>
        <time>2021-07-09T15:51:45.000Z</time>
      </trkpt>
      <trkpt lat="45.461793" lon="7.637447">
        <ele>2279.72413</ele>
        <time>2021-07-09T15:51:51.000Z</time>
      </trkpt>
      <trkpt lat="45.461807" lon="7.637452">
        <ele>2280.58915</ele>
        <time>2021-07-09T15:52:15.000Z</time>
      </trkpt>
      <trkpt lat="45.461812" lon="7.637472">
        <ele>2280.42695</ele>
        <time>2021-07-09T15:52:21.000Z</time>
      </trkpt>
      <trkpt lat="45.461813" lon="7.637475">
        <ele>2280.41059</ele>
        <time>2021-07-09T15:52:27.000Z</time>
      </trkpt>
      <trkpt lat="45.461862" lon="7.637434">
        <ele>2284.82784</ele>
        <time>2021-07-09T15:52:45.000Z</time>
      </trkpt>
      <trkpt lat="45.461863" lon="7.637415">
        <ele>2285.35181</ele>
        <time>2021-07-09T15:52:51.000Z</time>
      </trkpt>
      <trkpt lat="45.461883" lon="7.637413">
        <ele>2286.77749</ele>
        <time>2021-07-09T15:53:15.000Z</time>
      </trkpt>
      <trkpt lat="45.461905" lon="7.637427">
        <ele>2287.87581</ele>
        <time>2021-07-09T15:53:21.000Z</time>
      </trkpt>
      <trkpt lat="45.461921" lon="7.637433">
        <ele>2288.72871</ele>
        <time>2021-07-09T15:53:27.000Z</time>
      </trkpt>
      <trkpt lat="45.461919" lon="7.637399">
        <ele>2289.54067</ele>
        <time>2021-07-09T15:53:33.000Z</time>
      </trkpt>
      <trkpt lat="45.461939" lon="7.63739">
        <ele>2291.10686</ele>
        <time>2021-07-09T15:53:39.000Z</time>
      </trkpt>
      <trkpt lat="45.461951" lon="7.63737">
        <ele>2292.40563</ele>
        <time>2021-07-09T15:53:45.000Z</time>
      </trkpt>
      <trkpt lat="45.461957" lon="7.637379">
        <ele>2292.59974</ele>
        <time>2021-07-09T15:53:51.000Z</time>
      </trkpt>
      <trkpt lat="45.461976" lon="7.637375">
        <ele>2293.99958</ele>
        <time>2021-07-09T15:54:21.000Z</time>
      </trkpt>
      <trkpt lat="45.461992" lon="7.637338">
        <ele>2295.97764</ele>
        <time>2021-07-09T15:54:27.000Z</time>
      </trkpt>
      <trkpt lat="45.462004" lon="7.637319">
        <ele>2297.21784</ele>
        <time>2021-07-09T15:54:33.000Z</time>
      </trkpt>
      <trkpt lat="45.462007" lon="7.637313">
        <ele>2297.54123</ele>
        <time>2021-07-09T15:54:39.000Z</time>
      </trkpt>
      <trkpt lat="45.462025" lon="7.637289">
        <ele>2299.17818</ele>
        <time>2021-07-09T15:54:45.000Z</time>
      </trkpt>
      <trkpt lat="45.462041" lon="7.637273">
        <ele>2300.47364</ele>
        <time>2021-07-09T15:54:51.000Z</time>
      </trkpt>
      <trkpt lat="45.462054" lon="7.637262">
        <ele>2301.47918</ele>
        <time>2021-07-09T15:54:57.000Z</time>
      </trkpt>
      <trkpt lat="45.462057" lon="7.637255">
        <ele>2301.72511</ele>
        <time>2021-07-09T15:55:03.000Z</time>
      </trkpt>
      <trkpt lat="45.46207" lon="7.637229">
        <ele>2302.67075</ele>
        <time>2021-07-09T15:55:15.000Z</time>
      </trkpt>
      <trkpt lat="45.462076" lon="7.637209">
        <ele>2302.99994</ele>
        <time>2021-07-09T15:55:21.000Z</time>
      </trkpt>
      <trkpt lat="45.462104" lon="7.637181">
        <ele>2304.62285</ele>
        <time>2021-07-09T15:55:33.000Z</time>
      </trkpt>
      <trkpt lat="45.462117" lon="7.637172">
        <ele>2305.32156</ele>
        <time>2021-07-09T15:55:39.000Z</time>
      </trkpt>
      <trkpt lat="45.462128" lon="7.637165">
        <ele>2305.87512</ele>
        <time>2021-07-09T15:55:45.000Z</time>
      </trkpt>
      <trkpt lat="45.462151" lon="7.63713">
        <ele>2306.39907</ele>
        <time>2021-07-09T15:55:51.000Z</time>
      </trkpt>
      <trkpt lat="45.462171" lon="7.637109">
        <ele>2306.8165</ele>
        <time>2021-07-09T15:55:57.000Z</time>
      </trkpt>
      <trkpt lat="45.462191" lon="7.637086">
        <ele>2306.99351</ele>
        <time>2021-07-09T15:56:03.000Z</time>
      </trkpt>
      <trkpt lat="45.46222" lon="7.637106">
        <ele>2308.61141</ele>
        <time>2021-07-09T15:56:27.000Z</time>
      </trkpt>
      <trkpt lat="45.462249" lon="7.637132">
        <ele>2310.18917</ele>
        <time>2021-07-09T15:56:33.000Z</time>
      </trkpt>
      <trkpt lat="45.462275" lon="7.637128">
        <ele>2310.50675</ele>
        <time>2021-07-09T15:56:39.000Z</time>
      </trkpt>
      <trkpt lat="45.462303" lon="7.63714">
        <ele>2311.19021</ele>
        <time>2021-07-09T15:56:45.000Z</time>
      </trkpt>
      <trkpt lat="45.462302" lon="7.637162">
        <ele>2311.87912</ele>
        <time>2021-07-09T15:56:51.000Z</time>
      </trkpt>
      <trkpt lat="45.4623" lon="7.637187">
        <ele>2312.61393</ele>
        <time>2021-07-09T15:56:57.000Z</time>
      </trkpt>
      <trkpt lat="45.462291" lon="7.637216">
        <ele>2313.31119</ele>
        <time>2021-07-09T15:57:03.000Z</time>
      </trkpt>
      <trkpt lat="45.462272" lon="7.637244">
        <ele>2313.67075</ele>
        <time>2021-07-09T15:57:09.000Z</time>
      </trkpt>
      <trkpt lat="45.462263" lon="7.63725">
        <ele>2313.61</ele>
        <time>2021-07-09T15:57:15.000Z</time>
      </trkpt>
      <trkpt lat="45.462287" lon="7.637303">
        <ele>2314.74035</ele>
        <time>2021-07-09T15:57:33.000Z</time>
      </trkpt>
      <trkpt lat="45.462296" lon="7.637322">
        <ele>2314.99186</ele>
        <time>2021-07-09T15:57:39.000Z</time>
      </trkpt>
      <trkpt lat="45.462295" lon="7.63732">
        <ele>2314.96595</ele>
        <time>2021-07-09T15:57:45.000Z</time>
      </trkpt>
      <trkpt lat="45.462316" lon="7.637356">
        <ele>2315.51022</ele>
        <time>2021-07-09T15:57:51.000Z</time>
      </trkpt>
      <trkpt lat="45.462349" lon="7.63738">
        <ele>2316.17036</ele>
        <time>2021-07-09T15:57:57.000Z</time>
      </trkpt>
      <trkpt lat="45.462384" lon="7.637383">
        <ele>2316.78365</ele>
        <time>2021-07-09T15:58:03.000Z</time>
      </trkpt>
      <trkpt lat="45.462414" lon="7.637403">
        <ele>2317.63664</ele>
        <time>2021-07-09T15:58:09.000Z</time>
      </trkpt>
      <trkpt lat="45.462414" lon="7.637415">
        <ele>2317.73203</ele>
        <time>2021-07-09T15:58:15.000Z</time>
      </trkpt>
      <trkpt lat="45.462415" lon="7.637398">
        <ele>2317.61656</ele>
        <time>2021-07-09T15:58:27.000Z</time>
      </trkpt>
      <trkpt lat="45.462408" lon="7.637412">
        <ele>2317.55529</ele>
        <time>2021-07-09T15:58:33.000Z</time>
      </trkpt>
      <trkpt lat="45.462405" lon="7.637417">
        <ele>2317.51099</ele>
        <time>2021-07-09T15:58:39.000Z</time>
      </trkpt>
      <trkpt lat="45.462397" lon="7.637433">
        <ele>2317.37709</ele>
        <time>2021-07-09T15:58:45.000Z</time>
      </trkpt>
      <trkpt lat="45.46242" lon="7.637392">
        <ele>2317.68021</ele>
        <time>2021-07-09T15:58:51.000Z</time>
      </trkpt>
      <trkpt lat="45.462413" lon="7.63739">
        <ele>2317.49053</ele>
        <time>2021-07-09T15:58:57.000Z</time>
      </trkpt>
    </trkseg>
  </trk>
</gpx>